<?xml version="1.0" encoding="UTF-8"?>
<gpx version="1.1" creator="2bulu-scraper" xmlns="http://www.topografix.com/GPX/1/1">
  <metadata><name>宜宾马鞍山环线</name><desc>source: 2bulu.com trackId=80039091; exported 2026-08-31T01:50:14.094Z</desc>
    <bounds minlat="29.171089" minlon="104.635287" maxlat="29.196338" maxlon="104.642353"/>
    <link href="https://www.2bulu.com/track/t-8e7kioDwSg7p%252FR2KBg5Tzw%253D%253D.htm"><text>2bulu 源页面</text></link>
  </metadata>
  <wpt lat="29.172325" lon="104.639764"><ele>425</ele><name></name></wpt>
  <wpt lat="29.176335" lon="104.639017"><ele>424</ele><name></name></wpt>
  <wpt lat="29.176253" lon="104.639753"><ele>430</ele><name></name></wpt>
  <wpt lat="29.177502" lon="104.638969"><ele>459</ele><name></name></wpt>
  <wpt lat="29.177727" lon="104.638212"><ele>461</ele><name></name></wpt>
  <wpt lat="29.18009" lon="104.638935"><ele>463</ele><name></name></wpt>
  <wpt lat="29.18187" lon="104.641816"><ele>459</ele><name></name></wpt>
  <wpt lat="29.184074" lon="104.642178"><ele>458</ele><name></name></wpt>
  <wpt lat="29.187459" lon="104.639953"><ele>432</ele><name></name></wpt>
  <wpt lat="29.190726" lon="104.640298"><ele>414</ele><name></name></wpt>
  <wpt lat="29.193434" lon="104.639278"><ele>401</ele><name></name></wpt>
  <wpt lat="29.193976" lon="104.639351"><ele>385</ele><name></name></wpt>
  <wpt lat="29.194861" lon="104.640546"><ele>408</ele><name></name></wpt>
  <wpt lat="29.195329" lon="104.641043"><ele>412</ele><name></name></wpt>
  <wpt lat="29.195675" lon="104.638263"><ele>391</ele><name></name></wpt>
  <wpt lat="29.194003" lon="104.637105"><ele>384</ele><name></name></wpt>
  <wpt lat="29.19069" lon="104.636286"><ele>452</ele><name></name></wpt>
  <wpt lat="29.18638" lon="104.638239"><ele>426</ele><name></name></wpt>
  <wpt lat="29.185556" lon="104.637909"><ele>424</ele><name></name></wpt>
  <wpt lat="29.184496" lon="104.636889"><ele>411</ele><name></name></wpt>
  <wpt lat="29.183835" lon="104.637155"><ele>415</ele><name></name></wpt>
  <wpt lat="29.180464" lon="104.640178"><ele>450</ele><name></name></wpt>
  <wpt lat="29.177736" lon="104.639655"><ele>427</ele><name></name></wpt>
  <trk><name>宜宾马鞍山环线</name>
      <trkseg>
        <trkpt lat="29.172087" lon="104.640992"><ele>432.52286</ele><time>2026-03-07T20:17:37.000Z</time></trkpt>
        <trkpt lat="29.172035" lon="104.641004"><ele>432.82068</ele><time>2026-03-07T20:17:43.000Z</time></trkpt>
        <trkpt lat="29.17199" lon="104.641013"><ele>432.46823</ele><time>2026-03-07T20:17:48.000Z</time></trkpt>
        <trkpt lat="29.172028" lon="104.640984"><ele>431.4936</ele><time>2026-03-07T20:17:55.000Z</time></trkpt>
        <trkpt lat="29.17207" lon="104.640945"><ele>431.78302</ele><time>2026-03-07T20:17:59.000Z</time></trkpt>
        <trkpt lat="29.172109" lon="104.640904"><ele>431.60553</ele><time>2026-03-07T20:18:04.000Z</time></trkpt>
        <trkpt lat="29.172093" lon="104.640956"><ele>422.64276</ele><time>2026-03-07T20:20:09.000Z</time></trkpt>
        <trkpt lat="29.172038" lon="104.640963"><ele>421.4678</ele><time>2026-03-07T20:20:15.000Z</time></trkpt>
        <trkpt lat="29.171991" lon="104.640968"><ele>421.1863</ele><time>2026-03-07T20:20:20.000Z</time></trkpt>
        <trkpt lat="29.17194" lon="104.640946"><ele>421.06616</ele><time>2026-03-07T20:20:25.000Z</time></trkpt>
        <trkpt lat="29.171888" lon="104.64095"><ele>420.77618</ele><time>2026-03-07T20:20:30.000Z</time></trkpt>
        <trkpt lat="29.17184" lon="104.640937"><ele>420.67154</ele><time>2026-03-07T20:20:35.000Z</time></trkpt>
        <trkpt lat="29.171794" lon="104.640934"><ele>419.89777</ele><time>2026-03-07T20:20:40.000Z</time></trkpt>
        <trkpt lat="29.171743" lon="104.64092"><ele>420.1361</ele><time>2026-03-07T20:20:44.000Z</time></trkpt>
        <trkpt lat="29.171693" lon="104.640912"><ele>419.95734</ele><time>2026-03-07T20:20:49.000Z</time></trkpt>
        <trkpt lat="29.17164" lon="104.640893"><ele>421.00705</ele><time>2026-03-07T20:20:54.000Z</time></trkpt>
        <trkpt lat="29.171592" lon="104.640901"><ele>420.80615</ele><time>2026-03-07T20:20:59.000Z</time></trkpt>
        <trkpt lat="29.171558" lon="104.640864"><ele>421.04553</ele><time>2026-03-07T20:21:03.000Z</time></trkpt>
        <trkpt lat="29.171528" lon="104.640824"><ele>421.2632</ele><time>2026-03-07T20:21:07.000Z</time></trkpt>
        <trkpt lat="29.171504" lon="104.640778"><ele>421.39496</ele><time>2026-03-07T20:21:11.000Z</time></trkpt>
        <trkpt lat="29.171468" lon="104.640742"><ele>421.43573</ele><time>2026-03-07T20:21:15.000Z</time></trkpt>
        <trkpt lat="29.171433" lon="104.640705"><ele>421.76776</ele><time>2026-03-07T20:21:19.000Z</time></trkpt>
        <trkpt lat="29.171393" lon="104.64066"><ele>421.96475</ele><time>2026-03-07T20:21:24.000Z</time></trkpt>
        <trkpt lat="29.171354" lon="104.640627"><ele>422.49744</ele><time>2026-03-07T20:21:28.000Z</time></trkpt>
        <trkpt lat="29.171318" lon="104.640583"><ele>422.932</ele><time>2026-03-07T20:21:32.000Z</time></trkpt>
        <trkpt lat="29.171277" lon="104.640538"><ele>423.5924</ele><time>2026-03-07T20:21:37.000Z</time></trkpt>
        <trkpt lat="29.171242" lon="104.640498"><ele>424.07028</ele><time>2026-03-07T20:21:41.000Z</time></trkpt>
        <trkpt lat="29.171198" lon="104.640463"><ele>424.94763</ele><time>2026-03-07T20:21:45.000Z</time></trkpt>
        <trkpt lat="29.171168" lon="104.640418"><ele>425.1795</ele><time>2026-03-07T20:21:49.000Z</time></trkpt>
        <trkpt lat="29.171123" lon="104.64038"><ele>426.17178</ele><time>2026-03-07T20:21:54.000Z</time></trkpt>
        <trkpt lat="29.171089" lon="104.640343"><ele>426.69708</ele><time>2026-03-07T20:21:59.000Z</time></trkpt>
        <trkpt lat="29.171129" lon="104.640381"><ele>424.8062</ele><time>2026-03-07T20:22:10.000Z</time></trkpt>
        <trkpt lat="29.171173" lon="104.640403"><ele>424.7467</ele><time>2026-03-07T20:22:23.000Z</time></trkpt>
        <trkpt lat="29.171201" lon="104.640444"><ele>424.43515</ele><time>2026-03-07T20:22:29.000Z</time></trkpt>
        <trkpt lat="29.171174" lon="104.640394"><ele>425.17697</ele><time>2026-03-07T20:22:42.000Z</time></trkpt>
        <trkpt lat="29.171216" lon="104.640372"><ele>423.88745</ele><time>2026-03-07T20:22:48.000Z</time></trkpt>
        <trkpt lat="29.171222" lon="104.640321"><ele>422.09073</ele><time>2026-03-07T20:22:56.000Z</time></trkpt>
        <trkpt lat="29.171246" lon="104.640276"><ele>421.8844</ele><time>2026-03-07T20:23:02.000Z</time></trkpt>
        <trkpt lat="29.17128" lon="104.640234"><ele>422.51923</ele><time>2026-03-07T20:23:08.000Z</time></trkpt>
        <trkpt lat="29.171302" lon="104.640176"><ele>423.28183</ele><time>2026-03-07T20:23:12.000Z</time></trkpt>
        <trkpt lat="29.171334" lon="104.640133"><ele>424.4593</ele><time>2026-03-07T20:23:16.000Z</time></trkpt>
        <trkpt lat="29.171364" lon="104.640076"><ele>425.42694</ele><time>2026-03-07T20:23:20.000Z</time></trkpt>
        <trkpt lat="29.171398" lon="104.640037"><ele>425.64102</ele><time>2026-03-07T20:23:23.000Z</time></trkpt>
        <trkpt lat="29.171453" lon="104.640041"><ele>426.83188</ele><time>2026-03-07T20:23:28.000Z</time></trkpt>
        <trkpt lat="29.171505" lon="104.640036"><ele>428.2532</ele><time>2026-03-07T20:23:33.000Z</time></trkpt>
        <trkpt lat="29.171551" lon="104.640069"><ele>427.94647</ele><time>2026-03-07T20:23:39.000Z</time></trkpt>
        <trkpt lat="29.171586" lon="104.640108"><ele>427.96225</ele><time>2026-03-07T20:23:43.000Z</time></trkpt>
        <trkpt lat="29.171625" lon="104.640147"><ele>427.50827</ele><time>2026-03-07T20:23:47.000Z</time></trkpt>
        <trkpt lat="29.171666" lon="104.640176"><ele>426.6836</ele><time>2026-03-07T20:23:50.000Z</time></trkpt>
        <trkpt lat="29.171706" lon="104.640208"><ele>426.51303</ele><time>2026-03-07T20:23:54.000Z</time></trkpt>
        <trkpt lat="29.171749" lon="104.640228"><ele>426.44373</ele><time>2026-03-07T20:23:57.000Z</time></trkpt>
        <trkpt lat="29.171798" lon="104.640236"><ele>425.53796</ele><time>2026-03-07T20:24:01.000Z</time></trkpt>
        <trkpt lat="29.17185" lon="104.640229"><ele>425.96625</ele><time>2026-03-07T20:24:05.000Z</time></trkpt>
        <trkpt lat="29.171903" lon="104.640224"><ele>424.84766</ele><time>2026-03-07T20:24:10.000Z</time></trkpt>
        <trkpt lat="29.171953" lon="104.640201"><ele>424.55948</ele><time>2026-03-07T20:24:16.000Z</time></trkpt>
        <trkpt lat="29.171998" lon="104.640181"><ele>424.43384</ele><time>2026-03-07T20:24:25.000Z</time></trkpt>
        <trkpt lat="29.172024" lon="104.640135"><ele>424.69308</ele><time>2026-03-07T20:24:29.000Z</time></trkpt>
        <trkpt lat="29.172078" lon="104.640117"><ele>424.7196</ele><time>2026-03-07T20:24:33.000Z</time></trkpt>
        <trkpt lat="29.172115" lon="104.640077"><ele>425.56024</ele><time>2026-03-07T20:24:37.000Z</time></trkpt>
        <trkpt lat="29.172145" lon="104.640022"><ele>424.83963</ele><time>2026-03-07T20:24:42.000Z</time></trkpt>
        <trkpt lat="29.172169" lon="104.639976"><ele>425.1916</ele><time>2026-03-07T20:24:46.000Z</time></trkpt>
        <trkpt lat="29.172207" lon="104.639937"><ele>425.11453</ele><time>2026-03-07T20:24:52.000Z</time></trkpt>
        <trkpt lat="29.172257" lon="104.639903"><ele>424.51657</ele><time>2026-03-07T20:24:58.000Z</time></trkpt>
        <trkpt lat="29.172299" lon="104.639865"><ele>423.72064</ele><time>2026-03-07T20:25:03.000Z</time></trkpt>
        <trkpt lat="29.172324" lon="104.639821"><ele>423.9223</ele><time>2026-03-07T20:25:08.000Z</time></trkpt>
        <trkpt lat="29.172325" lon="104.639764"><ele>425.01987</ele><time>2026-03-07T20:25:22.000Z</time></trkpt>
        <trkpt lat="29.172369" lon="104.639781"><ele>424.92453</ele><time>2026-03-07T20:25:40.000Z</time></trkpt>
        <trkpt lat="29.172395" lon="104.639737"><ele>424.037</ele><time>2026-03-07T20:25:49.000Z</time></trkpt>
        <trkpt lat="29.17243" lon="104.639705"><ele>423.49878</ele><time>2026-03-07T20:25:54.000Z</time></trkpt>
        <trkpt lat="29.172453" lon="104.639656"><ele>423.16388</ele><time>2026-03-07T20:25:59.000Z</time></trkpt>
        <trkpt lat="29.172461" lon="104.639604"><ele>423.0494</ele><time>2026-03-07T20:26:03.000Z</time></trkpt>
        <trkpt lat="29.172492" lon="104.639565"><ele>423.406</ele><time>2026-03-07T20:26:06.000Z</time></trkpt>
        <trkpt lat="29.172479" lon="104.639511"><ele>423.95837</ele><time>2026-03-07T20:26:11.000Z</time></trkpt>
        <trkpt lat="29.172488" lon="104.639459"><ele>423.78116</ele><time>2026-03-07T20:26:14.000Z</time></trkpt>
        <trkpt lat="29.172505" lon="104.639406"><ele>424.0772</ele><time>2026-03-07T20:26:19.000Z</time></trkpt>
        <trkpt lat="29.172517" lon="104.639349"><ele>424.13046</ele><time>2026-03-07T20:26:23.000Z</time></trkpt>
        <trkpt lat="29.1725" lon="104.639294"><ele>424.87225</ele><time>2026-03-07T20:26:29.000Z</time></trkpt>
        <trkpt lat="29.172478" lon="104.639238"><ele>424.6244</ele><time>2026-03-07T20:26:34.000Z</time></trkpt>
        <trkpt lat="29.172467" lon="104.639184"><ele>425.37888</ele><time>2026-03-07T20:26:38.000Z</time></trkpt>
        <trkpt lat="29.172445" lon="104.639128"><ele>425.45566</ele><time>2026-03-07T20:26:43.000Z</time></trkpt>
        <trkpt lat="29.172458" lon="104.639072"><ele>425.187</ele><time>2026-03-07T20:26:48.000Z</time></trkpt>
        <trkpt lat="29.172472" lon="104.639014"><ele>425.23782</ele><time>2026-03-07T20:26:55.000Z</time></trkpt>
        <trkpt lat="29.172492" lon="104.638958"><ele>424.30856</ele><time>2026-03-07T20:26:59.000Z</time></trkpt>
        <trkpt lat="29.172493" lon="104.638905"><ele>425.02747</ele><time>2026-03-07T20:27:02.000Z</time></trkpt>
        <trkpt lat="29.17249" lon="104.638842"><ele>423.9513</ele><time>2026-03-07T20:27:08.000Z</time></trkpt>
        <trkpt lat="29.172485" lon="104.638786"><ele>423.4213</ele><time>2026-03-07T20:27:12.000Z</time></trkpt>
        <trkpt lat="29.172472" lon="104.638722"><ele>423.33505</ele><time>2026-03-07T20:27:16.000Z</time></trkpt>
        <trkpt lat="29.17248" lon="104.638665"><ele>424.3625</ele><time>2026-03-07T20:27:20.000Z</time></trkpt>
        <trkpt lat="29.17248" lon="104.638604"><ele>423.63968</ele><time>2026-03-07T20:27:24.000Z</time></trkpt>
        <trkpt lat="29.172513" lon="104.638554"><ele>424.45782</ele><time>2026-03-07T20:27:29.000Z</time></trkpt>
        <trkpt lat="29.172559" lon="104.638536"><ele>425.28687</ele><time>2026-03-07T20:27:33.000Z</time></trkpt>
        <trkpt lat="29.172606" lon="104.638541"><ele>424.60028</ele><time>2026-03-07T20:27:36.000Z</time></trkpt>
        <trkpt lat="29.172655" lon="104.638528"><ele>424.62003</ele><time>2026-03-07T20:27:41.000Z</time></trkpt>
        <trkpt lat="29.1727" lon="104.638507"><ele>424.27792</ele><time>2026-03-07T20:27:45.000Z</time></trkpt>
        <trkpt lat="29.172744" lon="104.638493"><ele>423.88348</ele><time>2026-03-07T20:27:48.000Z</time></trkpt>
        <trkpt lat="29.172794" lon="104.638484"><ele>423.37335</ele><time>2026-03-07T20:27:52.000Z</time></trkpt>
        <trkpt lat="29.172843" lon="104.638472"><ele>423.56726</ele><time>2026-03-07T20:27:56.000Z</time></trkpt>
        <trkpt lat="29.1729" lon="104.638452"><ele>423.33337</ele><time>2026-03-07T20:28:00.000Z</time></trkpt>
        <trkpt lat="29.172953" lon="104.638443"><ele>423.09088</ele><time>2026-03-07T20:28:04.000Z</time></trkpt>
        <trkpt lat="29.172999" lon="104.638422"><ele>423.53595</ele><time>2026-03-07T20:28:08.000Z</time></trkpt>
        <trkpt lat="29.173054" lon="104.638418"><ele>423.69687</ele><time>2026-03-07T20:28:12.000Z</time></trkpt>
        <trkpt lat="29.173107" lon="104.638404"><ele>424.13138</ele><time>2026-03-07T20:28:16.000Z</time></trkpt>
        <trkpt lat="29.173158" lon="104.638394"><ele>425.23865</ele><time>2026-03-07T20:28:20.000Z</time></trkpt>
        <trkpt lat="29.173206" lon="104.638425"><ele>427.09424</ele><time>2026-03-07T20:28:24.000Z</time></trkpt>
        <trkpt lat="29.17324" lon="104.638478"><ele>427.2572</ele><time>2026-03-07T20:28:28.000Z</time></trkpt>
        <trkpt lat="29.173277" lon="104.63852"><ele>428.01447</ele><time>2026-03-07T20:28:33.000Z</time></trkpt>
        <trkpt lat="29.173313" lon="104.638563"><ele>428.53983</ele><time>2026-03-07T20:28:37.000Z</time></trkpt>
        <trkpt lat="29.173351" lon="104.638602"><ele>428.97537</ele><time>2026-03-07T20:28:41.000Z</time></trkpt>
        <trkpt lat="29.173388" lon="104.638648"><ele>429.2659</ele><time>2026-03-07T20:28:45.000Z</time></trkpt>
        <trkpt lat="29.173431" lon="104.638686"><ele>429.20062</ele><time>2026-03-07T20:28:49.000Z</time></trkpt>
        <trkpt lat="29.173477" lon="104.638713"><ele>429.36563</ele><time>2026-03-07T20:28:53.000Z</time></trkpt>
        <trkpt lat="29.173523" lon="104.638741"><ele>429.6717</ele><time>2026-03-07T20:28:57.000Z</time></trkpt>
        <trkpt lat="29.173571" lon="104.638768"><ele>429.90384</ele><time>2026-03-07T20:29:01.000Z</time></trkpt>
        <trkpt lat="29.173624" lon="104.638783"><ele>430.32166</ele><time>2026-03-07T20:29:05.000Z</time></trkpt>
        <trkpt lat="29.173673" lon="104.638806"><ele>430.4667</ele><time>2026-03-07T20:29:09.000Z</time></trkpt>
        <trkpt lat="29.173722" lon="104.638828"><ele>430.0019</ele><time>2026-03-07T20:29:13.000Z</time></trkpt>
        <trkpt lat="29.173766" lon="104.638845"><ele>429.37396</ele><time>2026-03-07T20:29:17.000Z</time></trkpt>
        <trkpt lat="29.173817" lon="104.638856"><ele>429.38354</ele><time>2026-03-07T20:29:21.000Z</time></trkpt>
        <trkpt lat="29.173868" lon="104.638855"><ele>429.77188</ele><time>2026-03-07T20:29:25.000Z</time></trkpt>
        <trkpt lat="29.173921" lon="104.638861"><ele>429.13782</ele><time>2026-03-07T20:29:29.000Z</time></trkpt>
        <trkpt lat="29.173973" lon="104.638878"><ele>429.0673</ele><time>2026-03-07T20:29:33.000Z</time></trkpt>
        <trkpt lat="29.174024" lon="104.638882"><ele>427.3525</ele><time>2026-03-07T20:29:37.000Z</time></trkpt>
        <trkpt lat="29.174069" lon="104.638877"><ele>427.2944</ele><time>2026-03-07T20:29:41.000Z</time></trkpt>
        <trkpt lat="29.174121" lon="104.638857"><ele>427.25125</ele><time>2026-03-07T20:29:45.000Z</time></trkpt>
        <trkpt lat="29.174186" lon="104.638852"><ele>427.1268</ele><time>2026-03-07T20:29:49.000Z</time></trkpt>
        <trkpt lat="29.174237" lon="104.638842"><ele>426.52695</ele><time>2026-03-07T20:29:53.000Z</time></trkpt>
        <trkpt lat="29.174293" lon="104.638848"><ele>425.1422</ele><time>2026-03-07T20:29:58.000Z</time></trkpt>
        <trkpt lat="29.174341" lon="104.638838"><ele>424.5086</ele><time>2026-03-07T20:30:01.000Z</time></trkpt>
        <trkpt lat="29.174386" lon="104.638828"><ele>424.00693</ele><time>2026-03-07T20:30:04.000Z</time></trkpt>
        <trkpt lat="29.174438" lon="104.638812"><ele>423.94275</ele><time>2026-03-07T20:30:08.000Z</time></trkpt>
        <trkpt lat="29.174481" lon="104.638774"><ele>423.33835</ele><time>2026-03-07T20:30:12.000Z</time></trkpt>
        <trkpt lat="29.174533" lon="104.638748"><ele>424.95856</ele><time>2026-03-07T20:30:16.000Z</time></trkpt>
        <trkpt lat="29.174563" lon="104.638695"><ele>426.0089</ele><time>2026-03-07T20:30:20.000Z</time></trkpt>
        <trkpt lat="29.174599" lon="104.63865"><ele>426.74045</ele><time>2026-03-07T20:30:24.000Z</time></trkpt>
        <trkpt lat="29.17464" lon="104.638617"><ele>426.76178</ele><time>2026-03-07T20:30:28.000Z</time></trkpt>
        <trkpt lat="29.174688" lon="104.638596"><ele>426.2848</ele><time>2026-03-07T20:30:32.000Z</time></trkpt>
        <trkpt lat="29.174733" lon="104.63857"><ele>426.43423</ele><time>2026-03-07T20:30:36.000Z</time></trkpt>
        <trkpt lat="29.174777" lon="104.638551"><ele>425.02466</ele><time>2026-03-07T20:30:40.000Z</time></trkpt>
        <trkpt lat="29.17482" lon="104.638509"><ele>426.7188</ele><time>2026-03-07T20:30:44.000Z</time></trkpt>
        <trkpt lat="29.174868" lon="104.638473"><ele>426.76892</ele><time>2026-03-07T20:30:48.000Z</time></trkpt>
        <trkpt lat="29.174917" lon="104.63845"><ele>427.6333</ele><time>2026-03-07T20:30:52.000Z</time></trkpt>
        <trkpt lat="29.174973" lon="104.638444"><ele>428.72165</ele><time>2026-03-07T20:30:56.000Z</time></trkpt>
        <trkpt lat="29.175028" lon="104.638452"><ele>428.78452</ele><time>2026-03-07T20:31:00.000Z</time></trkpt>
        <trkpt lat="29.175084" lon="104.638456"><ele>427.47916</ele><time>2026-03-07T20:31:04.000Z</time></trkpt>
        <trkpt lat="29.175137" lon="104.638449"><ele>426.60767</ele><time>2026-03-07T20:31:08.000Z</time></trkpt>
        <trkpt lat="29.175182" lon="104.638418"><ele>425.76044</ele><time>2026-03-07T20:31:12.000Z</time></trkpt>
        <trkpt lat="29.175222" lon="104.638391"><ele>425.56873</ele><time>2026-03-07T20:31:16.000Z</time></trkpt>
        <trkpt lat="29.175274" lon="104.638379"><ele>424.15604</ele><time>2026-03-07T20:31:20.000Z</time></trkpt>
        <trkpt lat="29.175323" lon="104.638365"><ele>423.54565</ele><time>2026-03-07T20:31:24.000Z</time></trkpt>
        <trkpt lat="29.175363" lon="104.638327"><ele>423.40115</ele><time>2026-03-07T20:31:28.000Z</time></trkpt>
        <trkpt lat="29.175407" lon="104.638295"><ele>423.81396</ele><time>2026-03-07T20:31:32.000Z</time></trkpt>
        <trkpt lat="29.175452" lon="104.638262"><ele>423.56906</ele><time>2026-03-07T20:31:36.000Z</time></trkpt>
        <trkpt lat="29.175507" lon="104.638253"><ele>424.042</ele><time>2026-03-07T20:31:40.000Z</time></trkpt>
        <trkpt lat="29.175555" lon="104.638275"><ele>423.30402</ele><time>2026-03-07T20:31:44.000Z</time></trkpt>
        <trkpt lat="29.175598" lon="104.63831"><ele>423.67377</ele><time>2026-03-07T20:31:48.000Z</time></trkpt>
        <trkpt lat="29.175615" lon="104.638366"><ele>423.5901</ele><time>2026-03-07T20:31:52.000Z</time></trkpt>
        <trkpt lat="29.175639" lon="104.63842"><ele>424.16647</ele><time>2026-03-07T20:31:55.000Z</time></trkpt>
        <trkpt lat="29.175671" lon="104.638469"><ele>425.1831</ele><time>2026-03-07T20:31:59.000Z</time></trkpt>
        <trkpt lat="29.175708" lon="104.638511"><ele>425.69635</ele><time>2026-03-07T20:32:03.000Z</time></trkpt>
        <trkpt lat="29.175741" lon="104.638567"><ele>426.5505</ele><time>2026-03-07T20:32:10.000Z</time></trkpt>
        <trkpt lat="29.175775" lon="104.638604"><ele>426.7363</ele><time>2026-03-07T20:32:14.000Z</time></trkpt>
        <trkpt lat="29.175824" lon="104.638636"><ele>426.06296</ele><time>2026-03-07T20:32:19.000Z</time></trkpt>
        <trkpt lat="29.175879" lon="104.638659"><ele>425.80508</ele><time>2026-03-07T20:32:24.000Z</time></trkpt>
        <trkpt lat="29.175925" lon="104.638692"><ele>425.56488</ele><time>2026-03-07T20:32:28.000Z</time></trkpt>
        <trkpt lat="29.175963" lon="104.638724"><ele>424.96786</ele><time>2026-03-07T20:32:32.000Z</time></trkpt>
        <trkpt lat="29.176015" lon="104.638744"><ele>425.00464</ele><time>2026-03-07T20:32:37.000Z</time></trkpt>
        <trkpt lat="29.176067" lon="104.638759"><ele>425.1542</ele><time>2026-03-07T20:32:41.000Z</time></trkpt>
        <trkpt lat="29.176119" lon="104.638766"><ele>425.49362</ele><time>2026-03-07T20:32:46.000Z</time></trkpt>
        <trkpt lat="29.176172" lon="104.638771"><ele>425.75348</ele><time>2026-03-07T20:32:51.000Z</time></trkpt>
        <trkpt lat="29.176221" lon="104.63877"><ele>425.08255</ele><time>2026-03-07T20:32:58.000Z</time></trkpt>
        <trkpt lat="29.176264" lon="104.63881"><ele>424.97217</ele><time>2026-03-07T20:33:06.000Z</time></trkpt>
        <trkpt lat="29.1763" lon="104.63886"><ele>425.07706</ele><time>2026-03-07T20:33:10.000Z</time></trkpt>
        <trkpt lat="29.176319" lon="104.638914"><ele>423.61856</ele><time>2026-03-07T20:33:14.000Z</time></trkpt>
        <trkpt lat="29.176331" lon="104.638965"><ele>423.216</ele><time>2026-03-07T20:33:17.000Z</time></trkpt>
        <trkpt lat="29.176335" lon="104.639017"><ele>424.22256</ele><time>2026-03-07T20:33:21.000Z</time></trkpt>
        <trkpt lat="29.176307" lon="104.63907"><ele>424.43362</ele><time>2026-03-07T20:33:32.000Z</time></trkpt>
        <trkpt lat="29.176267" lon="104.639111"><ele>425.09045</ele><time>2026-03-07T20:33:36.000Z</time></trkpt>
        <trkpt lat="29.176234" lon="104.639166"><ele>425.60114</ele><time>2026-03-07T20:33:40.000Z</time></trkpt>
        <trkpt lat="29.176197" lon="104.639216"><ele>426.36597</ele><time>2026-03-07T20:33:45.000Z</time></trkpt>
        <trkpt lat="29.176177" lon="104.639268"><ele>426.7403</ele><time>2026-03-07T20:33:49.000Z</time></trkpt>
        <trkpt lat="29.176186" lon="104.639329"><ele>426.775</ele><time>2026-03-07T20:34:15.000Z</time></trkpt>
        <trkpt lat="29.176169" lon="104.639384"><ele>427.22955</ele><time>2026-03-07T20:34:20.000Z</time></trkpt>
        <trkpt lat="29.176176" lon="104.639445"><ele>428.2907</ele><time>2026-03-07T20:34:25.000Z</time></trkpt>
        <trkpt lat="29.176164" lon="104.639494"><ele>428.7387</ele><time>2026-03-07T20:34:31.000Z</time></trkpt>
        <trkpt lat="29.176212" lon="104.639504"><ele>429.27048</ele><time>2026-03-07T20:34:35.000Z</time></trkpt>
        <trkpt lat="29.17618" lon="104.639543"><ele>429.3252</ele><time>2026-03-07T20:34:48.000Z</time></trkpt>
        <trkpt lat="29.176168" lon="104.639595"><ele>428.4144</ele><time>2026-03-07T20:34:52.000Z</time></trkpt>
        <trkpt lat="29.176159" lon="104.639646"><ele>429.21545</ele><time>2026-03-07T20:34:55.000Z</time></trkpt>
        <trkpt lat="29.17617" lon="104.639696"><ele>428.0851</ele><time>2026-03-07T20:35:00.000Z</time></trkpt>
        <trkpt lat="29.176214" lon="104.639719"><ele>428.88806</ele><time>2026-03-07T20:35:05.000Z</time></trkpt>
        <trkpt lat="29.176253" lon="104.639753"><ele>429.87216</ele><time>2026-03-07T20:35:10.000Z</time></trkpt>
        <trkpt lat="29.176304" lon="104.639756"><ele>430.36002</ele><time>2026-03-07T20:35:37.000Z</time></trkpt>
        <trkpt lat="29.176332" lon="104.639708"><ele>431.75937</ele><time>2026-03-07T20:35:41.000Z</time></trkpt>
        <trkpt lat="29.176352" lon="104.639659"><ele>432.71494</ele><time>2026-03-07T20:35:44.000Z</time></trkpt>
        <trkpt lat="29.176387" lon="104.639625"><ele>433.7602</ele><time>2026-03-07T20:35:48.000Z</time></trkpt>
        <trkpt lat="29.176436" lon="104.639625"><ele>434.25247</ele><time>2026-03-07T20:35:52.000Z</time></trkpt>
        <trkpt lat="29.176492" lon="104.639637"><ele>434.66858</ele><time>2026-03-07T20:35:57.000Z</time></trkpt>
        <trkpt lat="29.176554" lon="104.639648"><ele>434.44473</ele><time>2026-03-07T20:36:03.000Z</time></trkpt>
        <trkpt lat="29.176601" lon="104.639655"><ele>434.8554</ele><time>2026-03-07T20:36:07.000Z</time></trkpt>
        <trkpt lat="29.176647" lon="104.639673"><ele>435.12085</ele><time>2026-03-07T20:36:11.000Z</time></trkpt>
        <trkpt lat="29.176683" lon="104.639641"><ele>435.84457</ele><time>2026-03-07T20:36:14.000Z</time></trkpt>
        <trkpt lat="29.176733" lon="104.639622"><ele>436.6927</ele><time>2026-03-07T20:36:18.000Z</time></trkpt>
        <trkpt lat="29.176778" lon="104.639584"><ele>437.20337</ele><time>2026-03-07T20:36:23.000Z</time></trkpt>
        <trkpt lat="29.176828" lon="104.639552"><ele>438.24884</ele><time>2026-03-07T20:36:28.000Z</time></trkpt>
        <trkpt lat="29.176866" lon="104.639521"><ele>439.15317</ele><time>2026-03-07T20:36:32.000Z</time></trkpt>
        <trkpt lat="29.176904" lon="104.639492"><ele>440.4418</ele><time>2026-03-07T20:36:36.000Z</time></trkpt>
        <trkpt lat="29.176949" lon="104.639458"><ele>441.786</ele><time>2026-03-07T20:36:41.000Z</time></trkpt>
        <trkpt lat="29.176991" lon="104.639421"><ele>443.42014</ele><time>2026-03-07T20:36:46.000Z</time></trkpt>
        <trkpt lat="29.177036" lon="104.639402"><ele>444.17273</ele><time>2026-03-07T20:36:50.000Z</time></trkpt>
        <trkpt lat="29.177073" lon="104.639369"><ele>445.27386</ele><time>2026-03-07T20:36:54.000Z</time></trkpt>
        <trkpt lat="29.177112" lon="104.639333"><ele>445.83447</ele><time>2026-03-07T20:37:00.000Z</time></trkpt>
        <trkpt lat="29.177151" lon="104.639287"><ele>447.25</ele><time>2026-03-07T20:37:05.000Z</time></trkpt>
        <trkpt lat="29.17718" lon="104.639231"><ele>448.82495</ele><time>2026-03-07T20:37:10.000Z</time></trkpt>
        <trkpt lat="29.177212" lon="104.63919"><ele>450.67642</ele><time>2026-03-07T20:37:15.000Z</time></trkpt>
        <trkpt lat="29.177248" lon="104.639144"><ele>452.64282</ele><time>2026-03-07T20:37:21.000Z</time></trkpt>
        <trkpt lat="29.177292" lon="104.639112"><ele>453.9309</ele><time>2026-03-07T20:37:26.000Z</time></trkpt>
        <trkpt lat="29.17733" lon="104.639074"><ele>455.1572</ele><time>2026-03-07T20:37:31.000Z</time></trkpt>
        <trkpt lat="29.177382" lon="104.639067"><ele>455.68842</ele><time>2026-03-07T20:37:36.000Z</time></trkpt>
        <trkpt lat="29.177434" lon="104.639046"><ele>455.72308</ele><time>2026-03-07T20:37:41.000Z</time></trkpt>
        <trkpt lat="29.177478" lon="104.639015"><ele>456.9703</ele><time>2026-03-07T20:37:46.000Z</time></trkpt>
        <trkpt lat="29.177502" lon="104.638969"><ele>458.79874</ele><time>2026-03-07T20:37:51.000Z</time></trkpt>
        <trkpt lat="29.177515" lon="104.638913"><ele>459.2521</ele><time>2026-03-07T20:38:08.000Z</time></trkpt>
        <trkpt lat="29.177512" lon="104.638854"><ele>461.21957</ele><time>2026-03-07T20:38:13.000Z</time></trkpt>
        <trkpt lat="29.177507" lon="104.638802"><ele>462.03262</ele><time>2026-03-07T20:38:17.000Z</time></trkpt>
        <trkpt lat="29.177493" lon="104.63875"><ele>462.27454</ele><time>2026-03-07T20:38:21.000Z</time></trkpt>
        <trkpt lat="29.177488" lon="104.638697"><ele>462.009</ele><time>2026-03-07T20:38:25.000Z</time></trkpt>
        <trkpt lat="29.177484" lon="104.638641"><ele>461.98297</ele><time>2026-03-07T20:38:29.000Z</time></trkpt>
        <trkpt lat="29.177492" lon="104.638584"><ele>461.74783</ele><time>2026-03-07T20:38:33.000Z</time></trkpt>
        <trkpt lat="29.177511" lon="104.638526"><ele>461.67822</ele><time>2026-03-07T20:38:37.000Z</time></trkpt>
        <trkpt lat="29.177539" lon="104.638473"><ele>461.54202</ele><time>2026-03-07T20:38:41.000Z</time></trkpt>
        <trkpt lat="29.177574" lon="104.638436"><ele>461.76306</ele><time>2026-03-07T20:38:46.000Z</time></trkpt>
        <trkpt lat="29.177603" lon="104.638394"><ele>461.45804</ele><time>2026-03-07T20:38:51.000Z</time></trkpt>
        <trkpt lat="29.177634" lon="104.638347"><ele>461.44672</ele><time>2026-03-07T20:38:55.000Z</time></trkpt>
        <trkpt lat="29.177673" lon="104.638304"><ele>461.03064</ele><time>2026-03-07T20:39:00.000Z</time></trkpt>
        <trkpt lat="29.177707" lon="104.638259"><ele>459.74615</ele><time>2026-03-07T20:39:06.000Z</time></trkpt>
        <trkpt lat="29.177727" lon="104.638212"><ele>460.5523</ele><time>2026-03-07T20:39:10.000Z</time></trkpt>
        <trkpt lat="29.177775" lon="104.638206"><ele>460.1941</ele><time>2026-03-07T20:39:21.000Z</time></trkpt>
        <trkpt lat="29.177814" lon="104.638179"><ele>461.0301</ele><time>2026-03-07T20:39:24.000Z</time></trkpt>
        <trkpt lat="29.177856" lon="104.638138"><ele>461.913</ele><time>2026-03-07T20:39:28.000Z</time></trkpt>
        <trkpt lat="29.177904" lon="104.6381"><ele>462.09924</ele><time>2026-03-07T20:39:32.000Z</time></trkpt>
        <trkpt lat="29.177945" lon="104.638056"><ele>462.15106</ele><time>2026-03-07T20:39:36.000Z</time></trkpt>
        <trkpt lat="29.177986" lon="104.638007"><ele>463.30325</ele><time>2026-03-07T20:39:40.000Z</time></trkpt>
        <trkpt lat="29.178021" lon="104.637966"><ele>464.1341</ele><time>2026-03-07T20:39:44.000Z</time></trkpt>
        <trkpt lat="29.178058" lon="104.637934"><ele>465.30127</ele><time>2026-03-07T20:39:48.000Z</time></trkpt>
        <trkpt lat="29.178097" lon="104.637906"><ele>466.27264</ele><time>2026-03-07T20:39:53.000Z</time></trkpt>
        <trkpt lat="29.178137" lon="104.637862"><ele>467.1805</ele><time>2026-03-07T20:39:58.000Z</time></trkpt>
        <trkpt lat="29.178173" lon="104.637823"><ele>467.74463</ele><time>2026-03-07T20:40:02.000Z</time></trkpt>
        <trkpt lat="29.178204" lon="104.637775"><ele>466.56525</ele><time>2026-03-07T20:40:07.000Z</time></trkpt>
        <trkpt lat="29.178241" lon="104.637741"><ele>466.9059</ele><time>2026-03-07T20:40:10.000Z</time></trkpt>
        <trkpt lat="29.178287" lon="104.637704"><ele>467.3423</ele><time>2026-03-07T20:40:14.000Z</time></trkpt>
        <trkpt lat="29.178321" lon="104.63767"><ele>466.00616</ele><time>2026-03-07T20:40:18.000Z</time></trkpt>
        <trkpt lat="29.178363" lon="104.637649"><ele>465.3987</ele><time>2026-03-07T20:40:22.000Z</time></trkpt>
        <trkpt lat="29.17841" lon="104.637649"><ele>464.97006</ele><time>2026-03-07T20:40:26.000Z</time></trkpt>
        <trkpt lat="29.178468" lon="104.637656"><ele>464.5915</ele><time>2026-03-07T20:40:31.000Z</time></trkpt>
        <trkpt lat="29.178517" lon="104.637661"><ele>464.6344</ele><time>2026-03-07T20:40:35.000Z</time></trkpt>
        <trkpt lat="29.178564" lon="104.63768"><ele>464.79916</ele><time>2026-03-07T20:40:39.000Z</time></trkpt>
        <trkpt lat="29.178604" lon="104.637711"><ele>464.59793</ele><time>2026-03-07T20:40:43.000Z</time></trkpt>
        <trkpt lat="29.178652" lon="104.637738"><ele>465.03143</ele><time>2026-03-07T20:40:47.000Z</time></trkpt>
        <trkpt lat="29.178702" lon="104.637759"><ele>465.2375</ele><time>2026-03-07T20:40:51.000Z</time></trkpt>
        <trkpt lat="29.178756" lon="104.637791"><ele>465.85968</ele><time>2026-03-07T20:40:55.000Z</time></trkpt>
        <trkpt lat="29.178798" lon="104.637828"><ele>466.29428</ele><time>2026-03-07T20:40:59.000Z</time></trkpt>
        <trkpt lat="29.178836" lon="104.637866"><ele>466.37805</ele><time>2026-03-07T20:41:03.000Z</time></trkpt>
        <trkpt lat="29.178881" lon="104.637897"><ele>467.1863</ele><time>2026-03-07T20:41:15.000Z</time></trkpt>
        <trkpt lat="29.178925" lon="104.637932"><ele>467.78824</ele><time>2026-03-07T20:41:19.000Z</time></trkpt>
        <trkpt lat="29.178964" lon="104.637976"><ele>468.07455</ele><time>2026-03-07T20:41:23.000Z</time></trkpt>
        <trkpt lat="29.178995" lon="104.638021"><ele>468.0365</ele><time>2026-03-07T20:41:27.000Z</time></trkpt>
        <trkpt lat="29.179047" lon="104.638039"><ele>468.06198</ele><time>2026-03-07T20:41:32.000Z</time></trkpt>
        <trkpt lat="29.179095" lon="104.638069"><ele>467.81302</ele><time>2026-03-07T20:41:38.000Z</time></trkpt>
        <trkpt lat="29.179153" lon="104.638075"><ele>467.94083</ele><time>2026-03-07T20:41:43.000Z</time></trkpt>
        <trkpt lat="29.179198" lon="104.638089"><ele>466.29965</ele><time>2026-03-07T20:41:47.000Z</time></trkpt>
        <trkpt lat="29.179253" lon="104.638103"><ele>465.69672</ele><time>2026-03-07T20:41:52.000Z</time></trkpt>
        <trkpt lat="29.179305" lon="104.638109"><ele>464.81677</ele><time>2026-03-07T20:41:57.000Z</time></trkpt>
        <trkpt lat="29.179355" lon="104.638109"><ele>464.32254</ele><time>2026-03-07T20:42:01.000Z</time></trkpt>
        <trkpt lat="29.179407" lon="104.638109"><ele>464.2118</ele><time>2026-03-07T20:42:10.000Z</time></trkpt>
        <trkpt lat="29.179461" lon="104.638117"><ele>464.4965</ele><time>2026-03-07T20:42:14.000Z</time></trkpt>
        <trkpt lat="29.179515" lon="104.638113"><ele>464.22552</ele><time>2026-03-07T20:42:17.000Z</time></trkpt>
        <trkpt lat="29.179564" lon="104.638106"><ele>463.86685</ele><time>2026-03-07T20:42:21.000Z</time></trkpt>
        <trkpt lat="29.17961" lon="104.638103"><ele>463.67905</ele><time>2026-03-07T20:42:25.000Z</time></trkpt>
        <trkpt lat="29.179659" lon="104.638119"><ele>461.8687</ele><time>2026-03-07T20:42:29.000Z</time></trkpt>
        <trkpt lat="29.179705" lon="104.638155"><ele>460.7529</ele><time>2026-03-07T20:42:34.000Z</time></trkpt>
        <trkpt lat="29.179747" lon="104.638193"><ele>459.41486</ele><time>2026-03-07T20:42:38.000Z</time></trkpt>
        <trkpt lat="29.17978" lon="104.638233"><ele>458.9232</ele><time>2026-03-07T20:42:42.000Z</time></trkpt>
        <trkpt lat="29.179819" lon="104.63828"><ele>458.60727</ele><time>2026-03-07T20:42:46.000Z</time></trkpt>
        <trkpt lat="29.179845" lon="104.638334"><ele>458.94644</ele><time>2026-03-07T20:42:50.000Z</time></trkpt>
        <trkpt lat="29.179865" lon="104.638384"><ele>458.71255</ele><time>2026-03-07T20:42:54.000Z</time></trkpt>
        <trkpt lat="29.179879" lon="104.638436"><ele>458.94882</ele><time>2026-03-07T20:42:58.000Z</time></trkpt>
        <trkpt lat="29.179882" lon="104.63849"><ele>459.86182</ele><time>2026-03-07T20:43:02.000Z</time></trkpt>
        <trkpt lat="29.179875" lon="104.638544"><ele>460.23996</ele><time>2026-03-07T20:43:06.000Z</time></trkpt>
        <trkpt lat="29.179863" lon="104.638597"><ele>460.39795</ele><time>2026-03-07T20:43:10.000Z</time></trkpt>
        <trkpt lat="29.179858" lon="104.638656"><ele>460.83716</ele><time>2026-03-07T20:43:15.000Z</time></trkpt>
        <trkpt lat="29.179841" lon="104.638717"><ele>460.59402</ele><time>2026-03-07T20:43:20.000Z</time></trkpt>
        <trkpt lat="29.179851" lon="104.63878"><ele>461.20334</ele><time>2026-03-07T20:43:24.000Z</time></trkpt>
        <trkpt lat="29.179868" lon="104.63884"><ele>461.0732</ele><time>2026-03-07T20:43:28.000Z</time></trkpt>
        <trkpt lat="29.179896" lon="104.638888"><ele>461.90442</ele><time>2026-03-07T20:43:32.000Z</time></trkpt>
        <trkpt lat="29.179935" lon="104.638916"><ele>461.78717</ele><time>2026-03-07T20:43:36.000Z</time></trkpt>
        <trkpt lat="29.179992" lon="104.638932"><ele>462.4171</ele><time>2026-03-07T20:43:41.000Z</time></trkpt>
        <trkpt lat="29.180043" lon="104.638934"><ele>462.93976</ele><time>2026-03-07T20:43:46.000Z</time></trkpt>
        <trkpt lat="29.18009" lon="104.638935"><ele>462.96454</ele><time>2026-03-07T20:43:50.000Z</time></trkpt>
        <trkpt lat="29.180136" lon="104.638931"><ele>462.38162</ele><time>2026-03-07T20:44:00.000Z</time></trkpt>
        <trkpt lat="29.18019" lon="104.638939"><ele>461.2735</ele><time>2026-03-07T20:44:05.000Z</time></trkpt>
        <trkpt lat="29.18024" lon="104.638924"><ele>461.1502</ele><time>2026-03-07T20:44:09.000Z</time></trkpt>
        <trkpt lat="29.180293" lon="104.638929"><ele>460.7012</ele><time>2026-03-07T20:44:14.000Z</time></trkpt>
        <trkpt lat="29.180341" lon="104.638926"><ele>460.0255</ele><time>2026-03-07T20:44:18.000Z</time></trkpt>
        <trkpt lat="29.18039" lon="104.638918"><ele>459.30148</ele><time>2026-03-07T20:44:27.000Z</time></trkpt>
        <trkpt lat="29.180446" lon="104.63891"><ele>458.1427</ele><time>2026-03-07T20:44:32.000Z</time></trkpt>
        <trkpt lat="29.180487" lon="104.638888"><ele>457.33746</ele><time>2026-03-07T20:44:36.000Z</time></trkpt>
        <trkpt lat="29.180526" lon="104.638858"><ele>457.1191</ele><time>2026-03-07T20:44:40.000Z</time></trkpt>
        <trkpt lat="29.180564" lon="104.638827"><ele>456.23636</ele><time>2026-03-07T20:44:44.000Z</time></trkpt>
        <trkpt lat="29.180608" lon="104.638797"><ele>455.59772</ele><time>2026-03-07T20:44:48.000Z</time></trkpt>
        <trkpt lat="29.180656" lon="104.638763"><ele>454.43985</ele><time>2026-03-07T20:44:52.000Z</time></trkpt>
        <trkpt lat="29.180697" lon="104.638727"><ele>453.229</ele><time>2026-03-07T20:44:57.000Z</time></trkpt>
        <trkpt lat="29.180739" lon="104.638692"><ele>453.09943</ele><time>2026-03-07T20:45:01.000Z</time></trkpt>
        <trkpt lat="29.180774" lon="104.63865"><ele>452.24872</ele><time>2026-03-07T20:45:05.000Z</time></trkpt>
        <trkpt lat="29.180809" lon="104.638604"><ele>451.65854</ele><time>2026-03-07T20:45:09.000Z</time></trkpt>
        <trkpt lat="29.180844" lon="104.638566"><ele>450.85608</ele><time>2026-03-07T20:45:13.000Z</time></trkpt>
        <trkpt lat="29.180881" lon="104.638523"><ele>450.30862</ele><time>2026-03-07T20:45:17.000Z</time></trkpt>
        <trkpt lat="29.180875" lon="104.638586"><ele>449.83185</ele><time>2026-03-07T20:45:24.000Z</time></trkpt>
        <trkpt lat="29.180842" lon="104.63864"><ele>450.56897</ele><time>2026-03-07T20:45:28.000Z</time></trkpt>
        <trkpt lat="29.180812" lon="104.638693"><ele>450.30136</ele><time>2026-03-07T20:45:32.000Z</time></trkpt>
        <trkpt lat="29.18078" lon="104.638732"><ele>451.02023</ele><time>2026-03-07T20:45:36.000Z</time></trkpt>
        <trkpt lat="29.180746" lon="104.638783"><ele>451.4896</ele><time>2026-03-07T20:45:42.000Z</time></trkpt>
        <trkpt lat="29.180716" lon="104.638834"><ele>451.79352</ele><time>2026-03-07T20:45:47.000Z</time></trkpt>
        <trkpt lat="29.180689" lon="104.638888"><ele>452.03424</ele><time>2026-03-07T20:45:51.000Z</time></trkpt>
        <trkpt lat="29.180673" lon="104.638954"><ele>451.94815</ele><time>2026-03-07T20:45:57.000Z</time></trkpt>
        <trkpt lat="29.180653" lon="104.639012"><ele>451.46216</ele><time>2026-03-07T20:46:02.000Z</time></trkpt>
        <trkpt lat="29.18064" lon="104.63907"><ele>451.1584</ele><time>2026-03-07T20:46:06.000Z</time></trkpt>
        <trkpt lat="29.180624" lon="104.639125"><ele>451.01688</ele><time>2026-03-07T20:46:10.000Z</time></trkpt>
        <trkpt lat="29.180609" lon="104.639174"><ele>451.07562</ele><time>2026-03-07T20:46:14.000Z</time></trkpt>
        <trkpt lat="29.180593" lon="104.639231"><ele>451.0659</ele><time>2026-03-07T20:46:18.000Z</time></trkpt>
        <trkpt lat="29.180578" lon="104.639281"><ele>450.99634</ele><time>2026-03-07T20:46:22.000Z</time></trkpt>
        <trkpt lat="29.180552" lon="104.639341"><ele>451.02893</ele><time>2026-03-07T20:46:26.000Z</time></trkpt>
        <trkpt lat="29.180532" lon="104.639403"><ele>450.27222</ele><time>2026-03-07T20:46:29.000Z</time></trkpt>
        <trkpt lat="29.180512" lon="104.639455"><ele>449.9965</ele><time>2026-03-07T20:46:33.000Z</time></trkpt>
        <trkpt lat="29.180492" lon="104.639504"><ele>449.19345</ele><time>2026-03-07T20:46:37.000Z</time></trkpt>
        <trkpt lat="29.180462" lon="104.639559"><ele>449.87335</ele><time>2026-03-07T20:46:41.000Z</time></trkpt>
        <trkpt lat="29.180447" lon="104.639615"><ele>450.4317</ele><time>2026-03-07T20:46:45.000Z</time></trkpt>
        <trkpt lat="29.180435" lon="104.63967"><ele>450.3988</ele><time>2026-03-07T20:46:49.000Z</time></trkpt>
        <trkpt lat="29.180427" lon="104.639729"><ele>450.78952</ele><time>2026-03-07T20:46:53.000Z</time></trkpt>
        <trkpt lat="29.180418" lon="104.639782"><ele>451.17764</ele><time>2026-03-07T20:46:56.000Z</time></trkpt>
        <trkpt lat="29.180428" lon="104.639841"><ele>450.80783</ele><time>2026-03-07T20:47:00.000Z</time></trkpt>
        <trkpt lat="29.180448" lon="104.639894"><ele>451.15222</ele><time>2026-03-07T20:47:04.000Z</time></trkpt>
        <trkpt lat="29.18049" lon="104.639934"><ele>450.91528</ele><time>2026-03-07T20:47:08.000Z</time></trkpt>
        <trkpt lat="29.180522" lon="104.639977"><ele>451.03152</ele><time>2026-03-07T20:47:12.000Z</time></trkpt>
        <trkpt lat="29.180564" lon="104.640019"><ele>451.2139</ele><time>2026-03-07T20:47:16.000Z</time></trkpt>
        <trkpt lat="29.180592" lon="104.640067"><ele>451.4517</ele><time>2026-03-07T20:47:20.000Z</time></trkpt>
        <trkpt lat="29.180625" lon="104.640107"><ele>451.78015</ele><time>2026-03-07T20:47:24.000Z</time></trkpt>
        <trkpt lat="29.180654" lon="104.640147"><ele>451.7941</ele><time>2026-03-07T20:47:29.000Z</time></trkpt>
        <trkpt lat="29.180701" lon="104.640179"><ele>452.17953</ele><time>2026-03-07T20:47:34.000Z</time></trkpt>
        <trkpt lat="29.180721" lon="104.640229"><ele>452.7286</ele><time>2026-03-07T20:47:38.000Z</time></trkpt>
        <trkpt lat="29.180754" lon="104.640279"><ele>452.8773</ele><time>2026-03-07T20:47:43.000Z</time></trkpt>
        <trkpt lat="29.180785" lon="104.640327"><ele>453.2718</ele><time>2026-03-07T20:47:47.000Z</time></trkpt>
        <trkpt lat="29.180815" lon="104.640384"><ele>453.003</ele><time>2026-03-07T20:47:52.000Z</time></trkpt>
        <trkpt lat="29.180841" lon="104.640435"><ele>453.50198</ele><time>2026-03-07T20:47:56.000Z</time></trkpt>
        <trkpt lat="29.180872" lon="104.640484"><ele>453.53363</ele><time>2026-03-07T20:48:00.000Z</time></trkpt>
        <trkpt lat="29.180898" lon="104.640537"><ele>454.41458</ele><time>2026-03-07T20:48:04.000Z</time></trkpt>
        <trkpt lat="29.180918" lon="104.640592"><ele>454.84573</ele><time>2026-03-07T20:48:08.000Z</time></trkpt>
        <trkpt lat="29.180943" lon="104.640639"><ele>456.37582</ele><time>2026-03-07T20:48:12.000Z</time></trkpt>
        <trkpt lat="29.180959" lon="104.640691"><ele>456.87122</ele><time>2026-03-07T20:48:17.000Z</time></trkpt>
        <trkpt lat="29.180969" lon="104.640753"><ele>456.86868</ele><time>2026-03-07T20:48:23.000Z</time></trkpt>
        <trkpt lat="29.180969" lon="104.640813"><ele>457.63907</ele><time>2026-03-07T20:48:27.000Z</time></trkpt>
        <trkpt lat="29.180955" lon="104.64087"><ele>457.9832</ele><time>2026-03-07T20:48:31.000Z</time></trkpt>
        <trkpt lat="29.180944" lon="104.640927"><ele>457.70413</ele><time>2026-03-07T20:48:35.000Z</time></trkpt>
        <trkpt lat="29.18092" lon="104.64098"><ele>458.0011</ele><time>2026-03-07T20:48:38.000Z</time></trkpt>
        <trkpt lat="29.180901" lon="104.641035"><ele>457.90903</ele><time>2026-03-07T20:48:42.000Z</time></trkpt>
        <trkpt lat="29.180893" lon="104.641098"><ele>458.1621</ele><time>2026-03-07T20:48:47.000Z</time></trkpt>
        <trkpt lat="29.18087" lon="104.641144"><ele>457.63028</ele><time>2026-03-07T20:48:50.000Z</time></trkpt>
        <trkpt lat="29.180869" lon="104.641207"><ele>456.96454</ele><time>2026-03-07T20:48:54.000Z</time></trkpt>
        <trkpt lat="29.180878" lon="104.641264"><ele>456.52924</ele><time>2026-03-07T20:48:58.000Z</time></trkpt>
        <trkpt lat="29.180898" lon="104.641318"><ele>456.3189</ele><time>2026-03-07T20:49:02.000Z</time></trkpt>
        <trkpt lat="29.180915" lon="104.641372"><ele>456.00156</ele><time>2026-03-07T20:49:07.000Z</time></trkpt>
        <trkpt lat="29.180951" lon="104.641418"><ele>455.66263</ele><time>2026-03-07T20:49:12.000Z</time></trkpt>
        <trkpt lat="29.180985" lon="104.64146"><ele>455.22012</ele><time>2026-03-07T20:49:16.000Z</time></trkpt>
        <trkpt lat="29.181037" lon="104.641498"><ele>456.01422</ele><time>2026-03-07T20:49:21.000Z</time></trkpt>
        <trkpt lat="29.181078" lon="104.641537"><ele>456.27036</ele><time>2026-03-07T20:49:26.000Z</time></trkpt>
        <trkpt lat="29.181134" lon="104.64156"><ele>456.59784</ele><time>2026-03-07T20:49:35.000Z</time></trkpt>
        <trkpt lat="29.18118" lon="104.64159"><ele>456.48413</ele><time>2026-03-07T20:49:40.000Z</time></trkpt>
        <trkpt lat="29.181219" lon="104.641617"><ele>456.60385</ele><time>2026-03-07T20:49:44.000Z</time></trkpt>
        <trkpt lat="29.181265" lon="104.641636"><ele>456.61426</ele><time>2026-03-07T20:49:48.000Z</time></trkpt>
        <trkpt lat="29.181309" lon="104.641654"><ele>457.4491</ele><time>2026-03-07T20:49:52.000Z</time></trkpt>
        <trkpt lat="29.181355" lon="104.64167"><ele>458.21616</ele><time>2026-03-07T20:49:56.000Z</time></trkpt>
        <trkpt lat="29.181405" lon="104.641684"><ele>458.46744</ele><time>2026-03-07T20:50:00.000Z</time></trkpt>
        <trkpt lat="29.181461" lon="104.641698"><ele>458.25717</ele><time>2026-03-07T20:50:04.000Z</time></trkpt>
        <trkpt lat="29.181511" lon="104.641717"><ele>458.43015</ele><time>2026-03-07T20:50:08.000Z</time></trkpt>
        <trkpt lat="29.181561" lon="104.641723"><ele>459.27307</ele><time>2026-03-07T20:50:12.000Z</time></trkpt>
        <trkpt lat="29.181614" lon="104.641737"><ele>459.88306</ele><time>2026-03-07T20:50:16.000Z</time></trkpt>
        <trkpt lat="29.181667" lon="104.641752"><ele>460.22083</ele><time>2026-03-07T20:50:20.000Z</time></trkpt>
        <trkpt lat="29.181718" lon="104.64177"><ele>460.189</ele><time>2026-03-07T20:50:24.000Z</time></trkpt>
        <trkpt lat="29.18177" lon="104.641776"><ele>460.3934</ele><time>2026-03-07T20:50:32.000Z</time></trkpt>
        <trkpt lat="29.181823" lon="104.641785"><ele>460.358</ele><time>2026-03-07T20:50:36.000Z</time></trkpt>
        <trkpt lat="29.18187" lon="104.641816"><ele>459.13574</ele><time>2026-03-07T20:50:48.000Z</time></trkpt>
        <trkpt lat="29.181917" lon="104.641828"><ele>459.86102</ele><time>2026-03-07T20:50:53.000Z</time></trkpt>
        <trkpt lat="29.181955" lon="104.641856"><ele>460.4067</ele><time>2026-03-07T20:50:57.000Z</time></trkpt>
        <trkpt lat="29.181999" lon="104.641889"><ele>460.57135</ele><time>2026-03-07T20:51:03.000Z</time></trkpt>
        <trkpt lat="29.182045" lon="104.641885"><ele>461.77777</ele><time>2026-03-07T20:51:06.000Z</time></trkpt>
        <trkpt lat="29.182098" lon="104.641888"><ele>462.44974</ele><time>2026-03-07T20:51:16.000Z</time></trkpt>
        <trkpt lat="29.182151" lon="104.641909"><ele>463.4319</ele><time>2026-03-07T20:51:21.000Z</time></trkpt>
        <trkpt lat="29.182193" lon="104.641939"><ele>463.3831</ele><time>2026-03-07T20:51:26.000Z</time></trkpt>
        <trkpt lat="29.18224" lon="104.641961"><ele>464.23026</ele><time>2026-03-07T20:51:31.000Z</time></trkpt>
        <trkpt lat="29.182289" lon="104.641975"><ele>464.50473</ele><time>2026-03-07T20:51:39.000Z</time></trkpt>
        <trkpt lat="29.182335" lon="104.641971"><ele>464.28278</ele><time>2026-03-07T20:51:44.000Z</time></trkpt>
        <trkpt lat="29.182382" lon="104.641971"><ele>464.40695</ele><time>2026-03-07T20:51:49.000Z</time></trkpt>
        <trkpt lat="29.182427" lon="104.641957"><ele>464.27097</ele><time>2026-03-07T20:52:07.000Z</time></trkpt>
        <trkpt lat="29.182475" lon="104.641952"><ele>463.19016</ele><time>2026-03-07T20:52:13.000Z</time></trkpt>
        <trkpt lat="29.18252" lon="104.641937"><ele>462.98828</ele><time>2026-03-07T20:52:18.000Z</time></trkpt>
        <trkpt lat="29.182568" lon="104.641934"><ele>462.62183</ele><time>2026-03-07T20:52:25.000Z</time></trkpt>
        <trkpt lat="29.182623" lon="104.641931"><ele>462.59875</ele><time>2026-03-07T20:52:34.000Z</time></trkpt>
        <trkpt lat="29.182674" lon="104.64194"><ele>462.29193</ele><time>2026-03-07T20:52:41.000Z</time></trkpt>
        <trkpt lat="29.182718" lon="104.641952"><ele>462.05154</ele><time>2026-03-07T20:52:47.000Z</time></trkpt>
        <trkpt lat="29.182767" lon="104.641967"><ele>462.02567</ele><time>2026-03-07T20:52:53.000Z</time></trkpt>
        <trkpt lat="29.182822" lon="104.641984"><ele>461.82916</ele><time>2026-03-07T20:52:59.000Z</time></trkpt>
        <trkpt lat="29.182874" lon="104.641995"><ele>461.39078</ele><time>2026-03-07T20:53:04.000Z</time></trkpt>
        <trkpt lat="29.182926" lon="104.641994"><ele>461.5375</ele><time>2026-03-07T20:53:08.000Z</time></trkpt>
        <trkpt lat="29.182978" lon="104.641996"><ele>461.29834</ele><time>2026-03-07T20:53:12.000Z</time></trkpt>
        <trkpt lat="29.183028" lon="104.642"><ele>460.88647</ele><time>2026-03-07T20:53:17.000Z</time></trkpt>
        <trkpt lat="29.183072" lon="104.641977"><ele>460.72318</ele><time>2026-03-07T20:53:21.000Z</time></trkpt>
        <trkpt lat="29.183124" lon="104.641956"><ele>460.2582</ele><time>2026-03-07T20:53:26.000Z</time></trkpt>
        <trkpt lat="29.183167" lon="104.641935"><ele>459.22034</ele><time>2026-03-07T20:53:30.000Z</time></trkpt>
        <trkpt lat="29.183216" lon="104.64191"><ele>458.84906</ele><time>2026-03-07T20:53:34.000Z</time></trkpt>
        <trkpt lat="29.183268" lon="104.64188"><ele>457.8824</ele><time>2026-03-07T20:53:39.000Z</time></trkpt>
        <trkpt lat="29.183312" lon="104.641855"><ele>457.6119</ele><time>2026-03-07T20:53:43.000Z</time></trkpt>
        <trkpt lat="29.183361" lon="104.64183"><ele>457.62872</ele><time>2026-03-07T20:53:47.000Z</time></trkpt>
        <trkpt lat="29.183409" lon="104.641808"><ele>458.27457</ele><time>2026-03-07T20:53:51.000Z</time></trkpt>
        <trkpt lat="29.183458" lon="104.641794"><ele>458.23914</ele><time>2026-03-07T20:53:56.000Z</time></trkpt>
        <trkpt lat="29.183511" lon="104.641796"><ele>458.36334</ele><time>2026-03-07T20:54:00.000Z</time></trkpt>
        <trkpt lat="29.183559" lon="104.641821"><ele>458.69482</ele><time>2026-03-07T20:54:04.000Z</time></trkpt>
        <trkpt lat="29.183597" lon="104.641865"><ele>458.8419</ele><time>2026-03-07T20:54:08.000Z</time></trkpt>
        <trkpt lat="29.183641" lon="104.641902"><ele>458.75262</ele><time>2026-03-07T20:54:12.000Z</time></trkpt>
        <trkpt lat="29.183686" lon="104.641935"><ele>458.78107</ele><time>2026-03-07T20:54:16.000Z</time></trkpt>
        <trkpt lat="29.18373" lon="104.641963"><ele>458.58563</ele><time>2026-03-07T20:54:20.000Z</time></trkpt>
        <trkpt lat="29.183772" lon="104.641998"><ele>458.5701</ele><time>2026-03-07T20:54:24.000Z</time></trkpt>
        <trkpt lat="29.183821" lon="104.642022"><ele>459.174</ele><time>2026-03-07T20:54:28.000Z</time></trkpt>
        <trkpt lat="29.183866" lon="104.642033"><ele>458.89697</ele><time>2026-03-07T20:54:32.000Z</time></trkpt>
        <trkpt lat="29.183902" lon="104.642068"><ele>458.97647</ele><time>2026-03-07T20:54:36.000Z</time></trkpt>
        <trkpt lat="29.183943" lon="104.6421"><ele>458.58096</ele><time>2026-03-07T20:54:39.000Z</time></trkpt>
        <trkpt lat="29.183983" lon="104.642124"><ele>458.3605</ele><time>2026-03-07T20:54:43.000Z</time></trkpt>
        <trkpt lat="29.184022" lon="104.642158"><ele>457.59073</ele><time>2026-03-07T20:54:47.000Z</time></trkpt>
        <trkpt lat="29.184074" lon="104.642178"><ele>457.8069</ele><time>2026-03-07T20:54:51.000Z</time></trkpt>
        <trkpt lat="29.184093" lon="104.642233"><ele>457.53598</ele><time>2026-03-07T20:55:05.000Z</time></trkpt>
        <trkpt lat="29.184133" lon="104.642267"><ele>457.8133</ele><time>2026-03-07T20:55:09.000Z</time></trkpt>
        <trkpt lat="29.184186" lon="104.642286"><ele>458.63275</ele><time>2026-03-07T20:55:12.000Z</time></trkpt>
        <trkpt lat="29.184235" lon="104.64231"><ele>458.79147</ele><time>2026-03-07T20:55:16.000Z</time></trkpt>
        <trkpt lat="29.184282" lon="104.642324"><ele>459.4418</ele><time>2026-03-07T20:55:20.000Z</time></trkpt>
        <trkpt lat="29.184337" lon="104.642338"><ele>460.54108</ele><time>2026-03-07T20:55:24.000Z</time></trkpt>
        <trkpt lat="29.184387" lon="104.642344"><ele>459.6001</ele><time>2026-03-07T20:55:28.000Z</time></trkpt>
        <trkpt lat="29.184441" lon="104.642353"><ele>459.7805</ele><time>2026-03-07T20:55:33.000Z</time></trkpt>
        <trkpt lat="29.184493" lon="104.642337"><ele>460.06378</ele><time>2026-03-07T20:55:38.000Z</time></trkpt>
        <trkpt lat="29.184542" lon="104.642315"><ele>460.56198</ele><time>2026-03-07T20:55:42.000Z</time></trkpt>
        <trkpt lat="29.184593" lon="104.642293"><ele>460.75092</ele><time>2026-03-07T20:55:47.000Z</time></trkpt>
        <trkpt lat="29.18464" lon="104.642268"><ele>460.6939</ele><time>2026-03-07T20:55:52.000Z</time></trkpt>
        <trkpt lat="29.184683" lon="104.642246"><ele>460.8528</ele><time>2026-03-07T20:55:56.000Z</time></trkpt>
        <trkpt lat="29.184731" lon="104.642229"><ele>460.84244</ele><time>2026-03-07T20:56:00.000Z</time></trkpt>
        <trkpt lat="29.184778" lon="104.642202"><ele>460.87622</ele><time>2026-03-07T20:56:04.000Z</time></trkpt>
        <trkpt lat="29.184818" lon="104.642171"><ele>461.76788</ele><time>2026-03-07T20:56:08.000Z</time></trkpt>
        <trkpt lat="29.184859" lon="104.642144"><ele>461.68008</ele><time>2026-03-07T20:56:12.000Z</time></trkpt>
        <trkpt lat="29.184904" lon="104.642122"><ele>460.83017</ele><time>2026-03-07T20:56:16.000Z</time></trkpt>
        <trkpt lat="29.184943" lon="104.642095"><ele>460.10147</ele><time>2026-03-07T20:56:20.000Z</time></trkpt>
        <trkpt lat="29.184986" lon="104.642069"><ele>460.27188</ele><time>2026-03-07T20:56:24.000Z</time></trkpt>
        <trkpt lat="29.185027" lon="104.64204"><ele>460.03613</ele><time>2026-03-07T20:56:28.000Z</time></trkpt>
        <trkpt lat="29.185071" lon="104.642014"><ele>459.92545</ele><time>2026-03-07T20:56:32.000Z</time></trkpt>
        <trkpt lat="29.185116" lon="104.641988"><ele>459.38544</ele><time>2026-03-07T20:56:36.000Z</time></trkpt>
        <trkpt lat="29.185156" lon="104.641957"><ele>458.90872</ele><time>2026-03-07T20:56:40.000Z</time></trkpt>
        <trkpt lat="29.185194" lon="104.641926"><ele>458.4042</ele><time>2026-03-07T20:56:44.000Z</time></trkpt>
        <trkpt lat="29.185239" lon="104.641902"><ele>457.4618</ele><time>2026-03-07T20:56:48.000Z</time></trkpt>
        <trkpt lat="29.185283" lon="104.641881"><ele>457.39264</ele><time>2026-03-07T20:56:52.000Z</time></trkpt>
        <trkpt lat="29.18533" lon="104.641853"><ele>457.22757</ele><time>2026-03-07T20:56:56.000Z</time></trkpt>
        <trkpt lat="29.185378" lon="104.641826"><ele>457.3414</ele><time>2026-03-07T20:56:59.000Z</time></trkpt>
        <trkpt lat="29.185417" lon="104.641788"><ele>457.22202</ele><time>2026-03-07T20:57:03.000Z</time></trkpt>
        <trkpt lat="29.185457" lon="104.641759"><ele>456.7839</ele><time>2026-03-07T20:57:07.000Z</time></trkpt>
        <trkpt lat="29.185503" lon="104.641733"><ele>456.2436</ele><time>2026-03-07T20:57:11.000Z</time></trkpt>
        <trkpt lat="29.185548" lon="104.641704"><ele>456.46295</ele><time>2026-03-07T20:57:15.000Z</time></trkpt>
        <trkpt lat="29.185595" lon="104.641672"><ele>455.2267</ele><time>2026-03-07T20:57:19.000Z</time></trkpt>
        <trkpt lat="29.185636" lon="104.641648"><ele>455.81198</ele><time>2026-03-07T20:57:23.000Z</time></trkpt>
        <trkpt lat="29.185669" lon="104.64161"><ele>455.83694</ele><time>2026-03-07T20:57:27.000Z</time></trkpt>
        <trkpt lat="29.185699" lon="104.641556"><ele>455.61414</ele><time>2026-03-07T20:57:31.000Z</time></trkpt>
        <trkpt lat="29.185725" lon="104.64151"><ele>455.54935</ele><time>2026-03-07T20:57:35.000Z</time></trkpt>
        <trkpt lat="29.185743" lon="104.641458"><ele>455.29996</ele><time>2026-03-07T20:57:39.000Z</time></trkpt>
        <trkpt lat="29.185757" lon="104.641404"><ele>454.74997</ele><time>2026-03-07T20:57:43.000Z</time></trkpt>
        <trkpt lat="29.185758" lon="104.641351"><ele>454.74063</ele><time>2026-03-07T20:57:47.000Z</time></trkpt>
        <trkpt lat="29.185761" lon="104.641295"><ele>454.04916</ele><time>2026-03-07T20:57:51.000Z</time></trkpt>
        <trkpt lat="29.185759" lon="104.641237"><ele>454.24393</ele><time>2026-03-07T20:57:55.000Z</time></trkpt>
        <trkpt lat="29.185751" lon="104.641182"><ele>454.63916</ele><time>2026-03-07T20:58:00.000Z</time></trkpt>
        <trkpt lat="29.185745" lon="104.641122"><ele>455.2335</ele><time>2026-03-07T20:58:04.000Z</time></trkpt>
        <trkpt lat="29.185741" lon="104.641064"><ele>453.989</ele><time>2026-03-07T20:58:08.000Z</time></trkpt>
        <trkpt lat="29.185735" lon="104.641005"><ele>454.01166</ele><time>2026-03-07T20:58:12.000Z</time></trkpt>
        <trkpt lat="29.185725" lon="104.640949"><ele>453.7145</ele><time>2026-03-07T20:58:16.000Z</time></trkpt>
        <trkpt lat="29.185716" lon="104.640895"><ele>453.65012</ele><time>2026-03-07T20:58:20.000Z</time></trkpt>
        <trkpt lat="29.185713" lon="104.64084"><ele>453.3051</ele><time>2026-03-07T20:58:24.000Z</time></trkpt>
        <trkpt lat="29.185712" lon="104.640789"><ele>452.58908</ele><time>2026-03-07T20:58:28.000Z</time></trkpt>
        <trkpt lat="29.185714" lon="104.640732"><ele>452.06326</ele><time>2026-03-07T20:58:32.000Z</time></trkpt>
        <trkpt lat="29.185719" lon="104.640675"><ele>451.74512</ele><time>2026-03-07T20:58:36.000Z</time></trkpt>
        <trkpt lat="29.18573" lon="104.640616"><ele>451.0143</ele><time>2026-03-07T20:58:40.000Z</time></trkpt>
        <trkpt lat="29.185729" lon="104.640558"><ele>450.49854</ele><time>2026-03-07T20:58:44.000Z</time></trkpt>
        <trkpt lat="29.185736" lon="104.640502"><ele>449.27173</ele><time>2026-03-07T20:58:48.000Z</time></trkpt>
        <trkpt lat="29.185743" lon="104.64045"><ele>449.34326</ele><time>2026-03-07T20:58:52.000Z</time></trkpt>
        <trkpt lat="29.185754" lon="104.640392"><ele>449.63916</ele><time>2026-03-07T20:58:57.000Z</time></trkpt>
        <trkpt lat="29.185768" lon="104.640338"><ele>449.1175</ele><time>2026-03-07T20:59:01.000Z</time></trkpt>
        <trkpt lat="29.185785" lon="104.640285"><ele>448.95322</ele><time>2026-03-07T20:59:05.000Z</time></trkpt>
        <trkpt lat="29.185798" lon="104.640222"><ele>448.3138</ele><time>2026-03-07T20:59:09.000Z</time></trkpt>
        <trkpt lat="29.185812" lon="104.640166"><ele>447.13553</ele><time>2026-03-07T20:59:12.000Z</time></trkpt>
        <trkpt lat="29.185825" lon="104.640111"><ele>446.87097</ele><time>2026-03-07T20:59:16.000Z</time></trkpt>
        <trkpt lat="29.185842" lon="104.640058"><ele>445.97424</ele><time>2026-03-07T20:59:20.000Z</time></trkpt>
        <trkpt lat="29.185858" lon="104.640004"><ele>445.94208</ele><time>2026-03-07T20:59:24.000Z</time></trkpt>
        <trkpt lat="29.185871" lon="104.639947"><ele>444.7847</ele><time>2026-03-07T20:59:28.000Z</time></trkpt>
        <trkpt lat="29.185873" lon="104.639892"><ele>444.11096</ele><time>2026-03-07T20:59:32.000Z</time></trkpt>
        <trkpt lat="29.185886" lon="104.639834"><ele>442.8023</ele><time>2026-03-07T20:59:36.000Z</time></trkpt>
        <trkpt lat="29.185898" lon="104.639778"><ele>441.22424</ele><time>2026-03-07T20:59:40.000Z</time></trkpt>
        <trkpt lat="29.185918" lon="104.639724"><ele>439.5179</ele><time>2026-03-07T20:59:44.000Z</time></trkpt>
        <trkpt lat="29.185941" lon="104.639669"><ele>439.37997</ele><time>2026-03-07T20:59:48.000Z</time></trkpt>
        <trkpt lat="29.185969" lon="104.63962"><ele>438.16083</ele><time>2026-03-07T20:59:52.000Z</time></trkpt>
        <trkpt lat="29.185998" lon="104.639574"><ele>436.9477</ele><time>2026-03-07T20:59:56.000Z</time></trkpt>
        <trkpt lat="29.186028" lon="104.639531"><ele>436.50357</ele><time>2026-03-07T21:00:00.000Z</time></trkpt>
        <trkpt lat="29.186064" lon="104.639493"><ele>435.29678</ele><time>2026-03-07T21:00:05.000Z</time></trkpt>
        <trkpt lat="29.186098" lon="104.639454"><ele>434.53998</ele><time>2026-03-07T21:00:09.000Z</time></trkpt>
        <trkpt lat="29.186127" lon="104.63941"><ele>433.2626</ele><time>2026-03-07T21:00:13.000Z</time></trkpt>
        <trkpt lat="29.186163" lon="104.639373"><ele>431.91943</ele><time>2026-03-07T21:00:17.000Z</time></trkpt>
        <trkpt lat="29.186207" lon="104.63935"><ele>431.79675</ele><time>2026-03-07T21:00:21.000Z</time></trkpt>
        <trkpt lat="29.186256" lon="104.639328"><ele>430.75552</ele><time>2026-03-07T21:00:25.000Z</time></trkpt>
        <trkpt lat="29.186305" lon="104.639318"><ele>430.16788</ele><time>2026-03-07T21:00:29.000Z</time></trkpt>
        <trkpt lat="29.186352" lon="104.639297"><ele>430.20935</ele><time>2026-03-07T21:00:33.000Z</time></trkpt>
        <trkpt lat="29.1864" lon="104.639272"><ele>432.63535</ele><time>2026-03-07T21:00:38.000Z</time></trkpt>
        <trkpt lat="29.18645" lon="104.63928"><ele>432.09644</ele><time>2026-03-07T21:00:42.000Z</time></trkpt>
        <trkpt lat="29.186491" lon="104.639322"><ele>431.67017</ele><time>2026-03-07T21:00:46.000Z</time></trkpt>
        <trkpt lat="29.186538" lon="104.639349"><ele>430.98758</ele><time>2026-03-07T21:00:50.000Z</time></trkpt>
        <trkpt lat="29.186582" lon="104.639389"><ele>432.26486</ele><time>2026-03-07T21:00:54.000Z</time></trkpt>
        <trkpt lat="29.186629" lon="104.639418"><ele>432.5197</ele><time>2026-03-07T21:00:58.000Z</time></trkpt>
        <trkpt lat="29.18668" lon="104.639441"><ele>432.92926</ele><time>2026-03-07T21:01:02.000Z</time></trkpt>
        <trkpt lat="29.186728" lon="104.639473"><ele>434.82538</ele><time>2026-03-07T21:01:06.000Z</time></trkpt>
        <trkpt lat="29.186775" lon="104.639502"><ele>434.91132</ele><time>2026-03-07T21:01:10.000Z</time></trkpt>
        <trkpt lat="29.186819" lon="104.639537"><ele>435.01013</ele><time>2026-03-07T21:01:14.000Z</time></trkpt>
        <trkpt lat="29.186862" lon="104.639578"><ele>434.60052</ele><time>2026-03-07T21:01:17.000Z</time></trkpt>
        <trkpt lat="29.186907" lon="104.639617"><ele>434.99084</ele><time>2026-03-07T21:01:21.000Z</time></trkpt>
        <trkpt lat="29.186958" lon="104.639644"><ele>433.8365</ele><time>2026-03-07T21:01:25.000Z</time></trkpt>
        <trkpt lat="29.187002" lon="104.639679"><ele>434.49326</ele><time>2026-03-07T21:01:29.000Z</time></trkpt>
        <trkpt lat="29.187038" lon="104.639713"><ele>434.56937</ele><time>2026-03-07T21:01:33.000Z</time></trkpt>
        <trkpt lat="29.187082" lon="104.639738"><ele>434.46732</ele><time>2026-03-07T21:01:37.000Z</time></trkpt>
        <trkpt lat="29.187128" lon="104.63976"><ele>434.3376</ele><time>2026-03-07T21:01:41.000Z</time></trkpt>
        <trkpt lat="29.187178" lon="104.639795"><ele>434.7579</ele><time>2026-03-07T21:01:45.000Z</time></trkpt>
        <trkpt lat="29.187221" lon="104.639832"><ele>433.86856</ele><time>2026-03-07T21:01:49.000Z</time></trkpt>
        <trkpt lat="29.187269" lon="104.639861"><ele>435.08475</ele><time>2026-03-07T21:01:53.000Z</time></trkpt>
        <trkpt lat="29.187318" lon="104.639889"><ele>434.65298</ele><time>2026-03-07T21:01:57.000Z</time></trkpt>
        <trkpt lat="29.187366" lon="104.639917"><ele>433.57724</ele><time>2026-03-07T21:02:01.000Z</time></trkpt>
        <trkpt lat="29.187413" lon="104.639944"><ele>433.60117</ele><time>2026-03-07T21:02:05.000Z</time></trkpt>
        <trkpt lat="29.187459" lon="104.639953"><ele>432.04416</ele><time>2026-03-07T21:02:33.000Z</time></trkpt>
        <trkpt lat="29.187507" lon="104.639936"><ele>432.00995</ele><time>2026-03-07T21:02:37.000Z</time></trkpt>
        <trkpt lat="29.187547" lon="104.639908"><ele>433.01675</ele><time>2026-03-07T21:02:41.000Z</time></trkpt>
        <trkpt lat="29.187589" lon="104.639883"><ele>433.77304</ele><time>2026-03-07T21:02:46.000Z</time></trkpt>
        <trkpt lat="29.187622" lon="104.639837"><ele>433.83212</ele><time>2026-03-07T21:02:51.000Z</time></trkpt>
        <trkpt lat="29.187672" lon="104.639852"><ele>434.35483</ele><time>2026-03-07T21:02:56.000Z</time></trkpt>
        <trkpt lat="29.187706" lon="104.639888"><ele>433.9434</ele><time>2026-03-07T21:03:00.000Z</time></trkpt>
        <trkpt lat="29.187742" lon="104.639933"><ele>433.4894</ele><time>2026-03-07T21:03:04.000Z</time></trkpt>
        <trkpt lat="29.187775" lon="104.639977"><ele>432.9275</ele><time>2026-03-07T21:03:08.000Z</time></trkpt>
        <trkpt lat="29.187803" lon="104.640028"><ele>432.58078</ele><time>2026-03-07T21:03:12.000Z</time></trkpt>
        <trkpt lat="29.187834" lon="104.640073"><ele>432.1951</ele><time>2026-03-07T21:03:16.000Z</time></trkpt>
        <trkpt lat="29.187863" lon="104.640116"><ele>432.1824</ele><time>2026-03-07T21:03:19.000Z</time></trkpt>
        <trkpt lat="29.187895" lon="104.640162"><ele>432.28793</ele><time>2026-03-07T21:03:23.000Z</time></trkpt>
        <trkpt lat="29.187922" lon="104.640209"><ele>433.29376</ele><time>2026-03-07T21:03:31.000Z</time></trkpt>
        <trkpt lat="29.187947" lon="104.640264"><ele>432.73883</ele><time>2026-03-07T21:03:35.000Z</time></trkpt>
        <trkpt lat="29.187982" lon="104.640308"><ele>433.03262</ele><time>2026-03-07T21:03:39.000Z</time></trkpt>
        <trkpt lat="29.188006" lon="104.640359"><ele>433.00916</ele><time>2026-03-07T21:03:44.000Z</time></trkpt>
        <trkpt lat="29.188034" lon="104.640404"><ele>432.81693</ele><time>2026-03-07T21:03:48.000Z</time></trkpt>
        <trkpt lat="29.188076" lon="104.640436"><ele>433.08926</ele><time>2026-03-07T21:03:52.000Z</time></trkpt>
        <trkpt lat="29.188106" lon="104.640481"><ele>433.31134</ele><time>2026-03-07T21:03:56.000Z</time></trkpt>
        <trkpt lat="29.188133" lon="104.640537"><ele>433.9308</ele><time>2026-03-07T21:04:00.000Z</time></trkpt>
        <trkpt lat="29.188156" lon="104.640587"><ele>434.18036</ele><time>2026-03-07T21:04:04.000Z</time></trkpt>
        <trkpt lat="29.188175" lon="104.640638"><ele>434.7488</ele><time>2026-03-07T21:04:08.000Z</time></trkpt>
        <trkpt lat="29.188189" lon="104.640694"><ele>435.7293</ele><time>2026-03-07T21:04:12.000Z</time></trkpt>
        <trkpt lat="29.188204" lon="104.640758"><ele>436.35638</ele><time>2026-03-07T21:04:17.000Z</time></trkpt>
        <trkpt lat="29.188224" lon="104.640813"><ele>437.47806</ele><time>2026-03-07T21:04:21.000Z</time></trkpt>
        <trkpt lat="29.188244" lon="104.640875"><ele>438.3471</ele><time>2026-03-07T21:04:26.000Z</time></trkpt>
        <trkpt lat="29.188275" lon="104.64093"><ele>439.7809</ele><time>2026-03-07T21:04:30.000Z</time></trkpt>
        <trkpt lat="29.188306" lon="104.640981"><ele>440.49197</ele><time>2026-03-07T21:04:35.000Z</time></trkpt>
        <trkpt lat="29.188348" lon="104.641017"><ele>441.90543</ele><time>2026-03-07T21:04:39.000Z</time></trkpt>
        <trkpt lat="29.188388" lon="104.641061"><ele>443.0409</ele><time>2026-03-07T21:04:44.000Z</time></trkpt>
        <trkpt lat="29.188421" lon="104.641098"><ele>442.4872</ele><time>2026-03-07T21:04:48.000Z</time></trkpt>
        <trkpt lat="29.188461" lon="104.641128"><ele>442.86047</ele><time>2026-03-07T21:04:52.000Z</time></trkpt>
        <trkpt lat="29.188504" lon="104.641165"><ele>443.2977</ele><time>2026-03-07T21:04:56.000Z</time></trkpt>
        <trkpt lat="29.188535" lon="104.641209"><ele>443.68057</ele><time>2026-03-07T21:05:00.000Z</time></trkpt>
        <trkpt lat="29.188571" lon="104.641244"><ele>443.09094</ele><time>2026-03-07T21:05:04.000Z</time></trkpt>
        <trkpt lat="29.188614" lon="104.641284"><ele>442.3357</ele><time>2026-03-07T21:05:08.000Z</time></trkpt>
        <trkpt lat="29.188657" lon="104.641314"><ele>442.6062</ele><time>2026-03-07T21:05:12.000Z</time></trkpt>
        <trkpt lat="29.188718" lon="104.641307"><ele>442.5098</ele><time>2026-03-07T21:05:17.000Z</time></trkpt>
        <trkpt lat="29.188765" lon="104.641293"><ele>442.05167</ele><time>2026-03-07T21:05:21.000Z</time></trkpt>
        <trkpt lat="29.188811" lon="104.641288"><ele>441.89413</ele><time>2026-03-07T21:05:24.000Z</time></trkpt>
        <trkpt lat="29.18886" lon="104.641282"><ele>441.32526</ele><time>2026-03-07T21:05:28.000Z</time></trkpt>
        <trkpt lat="29.188911" lon="104.641272"><ele>440.77777</ele><time>2026-03-07T21:05:32.000Z</time></trkpt>
        <trkpt lat="29.188958" lon="104.641248"><ele>439.77255</ele><time>2026-03-07T21:05:36.000Z</time></trkpt>
        <trkpt lat="29.188999" lon="104.641218"><ele>439.72888</ele><time>2026-03-07T21:05:40.000Z</time></trkpt>
        <trkpt lat="29.189045" lon="104.641193"><ele>437.9658</ele><time>2026-03-07T21:05:44.000Z</time></trkpt>
        <trkpt lat="29.189094" lon="104.64116"><ele>436.62296</ele><time>2026-03-07T21:05:49.000Z</time></trkpt>
        <trkpt lat="29.189135" lon="104.641127"><ele>435.30026</ele><time>2026-03-07T21:05:55.000Z</time></trkpt>
        <trkpt lat="29.189163" lon="104.641071"><ele>434.36276</ele><time>2026-03-07T21:06:00.000Z</time></trkpt>
        <trkpt lat="29.189195" lon="104.641022"><ele>432.25952</ele><time>2026-03-07T21:06:06.000Z</time></trkpt>
        <trkpt lat="29.189213" lon="104.640973"><ele>431.02722</ele><time>2026-03-07T21:06:11.000Z</time></trkpt>
        <trkpt lat="29.189231" lon="104.64092"><ele>430.2536</ele><time>2026-03-07T21:06:16.000Z</time></trkpt>
        <trkpt lat="29.189258" lon="104.640871"><ele>429.90878</ele><time>2026-03-07T21:06:29.000Z</time></trkpt>
        <trkpt lat="29.189279" lon="104.640817"><ele>429.76108</ele><time>2026-03-07T21:06:34.000Z</time></trkpt>
        <trkpt lat="29.189295" lon="104.640765"><ele>429.2394</ele><time>2026-03-07T21:06:38.000Z</time></trkpt>
        <trkpt lat="29.189327" lon="104.640723"><ele>427.77878</ele><time>2026-03-07T21:06:43.000Z</time></trkpt>
        <trkpt lat="29.189366" lon="104.64069"><ele>428.05386</ele><time>2026-03-07T21:06:47.000Z</time></trkpt>
        <trkpt lat="29.189419" lon="104.640679"><ele>427.92307</ele><time>2026-03-07T21:06:51.000Z</time></trkpt>
        <trkpt lat="29.189466" lon="104.640685"><ele>427.90106</ele><time>2026-03-07T21:06:55.000Z</time></trkpt>
        <trkpt lat="29.189512" lon="104.640661"><ele>426.68228</ele><time>2026-03-07T21:06:59.000Z</time></trkpt>
        <trkpt lat="29.189571" lon="104.640647"><ele>426.7113</ele><time>2026-03-07T21:07:04.000Z</time></trkpt>
        <trkpt lat="29.18962" lon="104.640605"><ele>425.9247</ele><time>2026-03-07T21:07:09.000Z</time></trkpt>
        <trkpt lat="29.189669" lon="104.640628"><ele>425.3517</ele><time>2026-03-07T21:07:13.000Z</time></trkpt>
        <trkpt lat="29.189711" lon="104.640649"><ele>424.4622</ele><time>2026-03-07T21:07:17.000Z</time></trkpt>
        <trkpt lat="29.189752" lon="104.640676"><ele>423.03168</ele><time>2026-03-07T21:07:21.000Z</time></trkpt>
        <trkpt lat="29.189807" lon="104.640691"><ele>422.7072</ele><time>2026-03-07T21:07:26.000Z</time></trkpt>
        <trkpt lat="29.189855" lon="104.640706"><ele>422.05347</ele><time>2026-03-07T21:07:29.000Z</time></trkpt>
        <trkpt lat="29.189897" lon="104.640741"><ele>420.5604</ele><time>2026-03-07T21:07:33.000Z</time></trkpt>
        <trkpt lat="29.189949" lon="104.64077"><ele>418.8721</ele><time>2026-03-07T21:07:38.000Z</time></trkpt>
        <trkpt lat="29.190001" lon="104.640775"><ele>418.01004</ele><time>2026-03-07T21:07:42.000Z</time></trkpt>
        <trkpt lat="29.19005" lon="104.640786"><ele>417.75623</ele><time>2026-03-07T21:07:46.000Z</time></trkpt>
        <trkpt lat="29.190043" lon="104.640842"><ele>415.15402</ele><time>2026-03-07T21:08:15.000Z</time></trkpt>
        <trkpt lat="29.190098" lon="104.640799"><ele>414.82794</ele><time>2026-03-07T21:08:28.000Z</time></trkpt>
        <trkpt lat="29.190151" lon="104.640816"><ele>413.56412</ele><time>2026-03-07T21:08:33.000Z</time></trkpt>
        <trkpt lat="29.190195" lon="104.640801"><ele>413.82443</ele><time>2026-03-07T21:08:36.000Z</time></trkpt>
        <trkpt lat="29.190242" lon="104.640784"><ele>414.04123</ele><time>2026-03-07T21:08:42.000Z</time></trkpt>
        <trkpt lat="29.190293" lon="104.640765"><ele>412.52066</ele><time>2026-03-07T21:08:47.000Z</time></trkpt>
        <trkpt lat="29.190347" lon="104.640745"><ele>412.89838</ele><time>2026-03-07T21:08:52.000Z</time></trkpt>
        <trkpt lat="29.190392" lon="104.640722"><ele>413.13733</ele><time>2026-03-07T21:08:56.000Z</time></trkpt>
        <trkpt lat="29.19044" lon="104.640714"><ele>413.34955</ele><time>2026-03-07T21:09:00.000Z</time></trkpt>
        <trkpt lat="29.190484" lon="104.6407"><ele>413.39114</ele><time>2026-03-07T21:09:04.000Z</time></trkpt>
        <trkpt lat="29.190526" lon="104.640677"><ele>412.8327</ele><time>2026-03-07T21:09:09.000Z</time></trkpt>
        <trkpt lat="29.190569" lon="104.64065"><ele>412.94983</ele><time>2026-03-07T21:09:14.000Z</time></trkpt>
        <trkpt lat="29.190608" lon="104.640618"><ele>412.73004</ele><time>2026-03-07T21:09:20.000Z</time></trkpt>
        <trkpt lat="29.190632" lon="104.64056"><ele>412.6339</ele><time>2026-03-07T21:09:25.000Z</time></trkpt>
        <trkpt lat="29.190643" lon="104.640507"><ele>413.19916</ele><time>2026-03-07T21:09:30.000Z</time></trkpt>
        <trkpt lat="29.190664" lon="104.640453"><ele>413.9347</ele><time>2026-03-07T21:09:34.000Z</time></trkpt>
        <trkpt lat="29.190681" lon="104.6404"><ele>413.60034</ele><time>2026-03-07T21:09:37.000Z</time></trkpt>
        <trkpt lat="29.190706" lon="104.64035"><ele>413.91876</ele><time>2026-03-07T21:09:42.000Z</time></trkpt>
        <trkpt lat="29.190726" lon="104.640298"><ele>413.97217</ele><time>2026-03-07T21:09:47.000Z</time></trkpt>
        <trkpt lat="29.190765" lon="104.64027"><ele>413.5686</ele><time>2026-03-07T21:10:06.000Z</time></trkpt>
        <trkpt lat="29.190804" lon="104.64024"><ele>414.6984</ele><time>2026-03-07T21:10:10.000Z</time></trkpt>
        <trkpt lat="29.190857" lon="104.640214"><ele>416.4558</ele><time>2026-03-07T21:10:14.000Z</time></trkpt>
        <trkpt lat="29.190904" lon="104.640203"><ele>416.71796</ele><time>2026-03-07T21:10:18.000Z</time></trkpt>
        <trkpt lat="29.190952" lon="104.640197"><ele>416.5636</ele><time>2026-03-07T21:10:21.000Z</time></trkpt>
        <trkpt lat="29.191005" lon="104.640185"><ele>417.34866</ele><time>2026-03-07T21:10:25.000Z</time></trkpt>
        <trkpt lat="29.191046" lon="104.640149"><ele>418.31146</ele><time>2026-03-07T21:10:29.000Z</time></trkpt>
        <trkpt lat="29.191084" lon="104.640112"><ele>419.13266</ele><time>2026-03-07T21:10:35.000Z</time></trkpt>
        <trkpt lat="29.191118" lon="104.640069"><ele>419.8705</ele><time>2026-03-07T21:10:41.000Z</time></trkpt>
        <trkpt lat="29.191158" lon="104.640044"><ele>419.29385</ele><time>2026-03-07T21:10:45.000Z</time></trkpt>
        <trkpt lat="29.191197" lon="104.640001"><ele>418.89703</ele><time>2026-03-07T21:10:50.000Z</time></trkpt>
        <trkpt lat="29.191229" lon="104.639962"><ele>418.94016</ele><time>2026-03-07T21:10:54.000Z</time></trkpt>
        <trkpt lat="29.19127" lon="104.639914"><ele>418.77902</ele><time>2026-03-07T21:10:59.000Z</time></trkpt>
        <trkpt lat="29.191305" lon="104.639878"><ele>418.52554</ele><time>2026-03-07T21:11:03.000Z</time></trkpt>
        <trkpt lat="29.191348" lon="104.639838"><ele>417.56314</ele><time>2026-03-07T21:11:08.000Z</time></trkpt>
        <trkpt lat="29.191383" lon="104.639795"><ele>418.00485</ele><time>2026-03-07T21:11:12.000Z</time></trkpt>
        <trkpt lat="29.191421" lon="104.639761"><ele>417.5742</ele><time>2026-03-07T21:11:16.000Z</time></trkpt>
        <trkpt lat="29.191451" lon="104.639716"><ele>416.40887</ele><time>2026-03-07T21:11:20.000Z</time></trkpt>
        <trkpt lat="29.19149" lon="104.63968"><ele>415.68448</ele><time>2026-03-07T21:11:24.000Z</time></trkpt>
        <trkpt lat="29.191517" lon="104.639631"><ele>415.17947</ele><time>2026-03-07T21:11:28.000Z</time></trkpt>
        <trkpt lat="29.191556" lon="104.6396"><ele>415.14224</ele><time>2026-03-07T21:11:32.000Z</time></trkpt>
        <trkpt lat="29.19161" lon="104.63958"><ele>414.12445</ele><time>2026-03-07T21:11:36.000Z</time></trkpt>
        <trkpt lat="29.191657" lon="104.639565"><ele>415.6111</ele><time>2026-03-07T21:11:39.000Z</time></trkpt>
        <trkpt lat="29.191708" lon="104.639552"><ele>416.06067</ele><time>2026-03-07T21:11:43.000Z</time></trkpt>
        <trkpt lat="29.191755" lon="104.639534"><ele>415.8201</ele><time>2026-03-07T21:11:47.000Z</time></trkpt>
        <trkpt lat="29.191803" lon="104.639517"><ele>416.89008</ele><time>2026-03-07T21:11:51.000Z</time></trkpt>
        <trkpt lat="29.191854" lon="104.639521"><ele>417.2734</ele><time>2026-03-07T21:11:55.000Z</time></trkpt>
        <trkpt lat="29.191905" lon="104.639535"><ele>417.26544</ele><time>2026-03-07T21:11:59.000Z</time></trkpt>
        <trkpt lat="29.191953" lon="104.639572"><ele>416.95966</ele><time>2026-03-07T21:12:03.000Z</time></trkpt>
        <trkpt lat="29.191993" lon="104.639605"><ele>415.89258</ele><time>2026-03-07T21:12:07.000Z</time></trkpt>
        <trkpt lat="29.192029" lon="104.639639"><ele>414.2492</ele><time>2026-03-07T21:12:11.000Z</time></trkpt>
        <trkpt lat="29.192072" lon="104.63966"><ele>412.44955</ele><time>2026-03-07T21:12:15.000Z</time></trkpt>
        <trkpt lat="29.192124" lon="104.639642"><ele>412.12958</ele><time>2026-03-07T21:12:20.000Z</time></trkpt>
        <trkpt lat="29.192166" lon="104.63962"><ele>413.4677</ele><time>2026-03-07T21:12:24.000Z</time></trkpt>
        <trkpt lat="29.192216" lon="104.639595"><ele>412.80496</ele><time>2026-03-07T21:12:29.000Z</time></trkpt>
        <trkpt lat="29.192256" lon="104.639564"><ele>412.4258</ele><time>2026-03-07T21:12:33.000Z</time></trkpt>
        <trkpt lat="29.192294" lon="104.639527"><ele>412.996</ele><time>2026-03-07T21:12:37.000Z</time></trkpt>
        <trkpt lat="29.192339" lon="104.639491"><ele>412.67636</ele><time>2026-03-07T21:12:43.000Z</time></trkpt>
        <trkpt lat="29.19237" lon="104.639435"><ele>412.03107</ele><time>2026-03-07T21:12:49.000Z</time></trkpt>
        <trkpt lat="29.192404" lon="104.639397"><ele>412.8409</ele><time>2026-03-07T21:12:53.000Z</time></trkpt>
        <trkpt lat="29.19244" lon="104.63936"><ele>411.79044</ele><time>2026-03-07T21:12:57.000Z</time></trkpt>
        <trkpt lat="29.192492" lon="104.639339"><ele>411.41022</ele><time>2026-03-07T21:13:01.000Z</time></trkpt>
        <trkpt lat="29.192542" lon="104.63932"><ele>409.74677</ele><time>2026-03-07T21:13:05.000Z</time></trkpt>
        <trkpt lat="29.192594" lon="104.639315"><ele>408.98706</ele><time>2026-03-07T21:13:09.000Z</time></trkpt>
        <trkpt lat="29.192646" lon="104.639325"><ele>408.21817</ele><time>2026-03-07T21:13:13.000Z</time></trkpt>
        <trkpt lat="29.192697" lon="104.63935"><ele>409.1621</ele><time>2026-03-07T21:13:17.000Z</time></trkpt>
        <trkpt lat="29.192741" lon="104.639389"><ele>408.6974</ele><time>2026-03-07T21:13:21.000Z</time></trkpt>
        <trkpt lat="29.192769" lon="104.639431"><ele>408.71753</ele><time>2026-03-07T21:13:24.000Z</time></trkpt>
        <trkpt lat="29.192809" lon="104.639476"><ele>408.0008</ele><time>2026-03-07T21:13:28.000Z</time></trkpt>
        <trkpt lat="29.192837" lon="104.639525"><ele>407.96323</ele><time>2026-03-07T21:13:32.000Z</time></trkpt>
        <trkpt lat="29.192868" lon="104.639573"><ele>407.74924</ele><time>2026-03-07T21:13:36.000Z</time></trkpt>
        <trkpt lat="29.192893" lon="104.639617"><ele>407.57642</ele><time>2026-03-07T21:13:40.000Z</time></trkpt>
        <trkpt lat="29.192927" lon="104.639657"><ele>406.7774</ele><time>2026-03-07T21:13:43.000Z</time></trkpt>
        <trkpt lat="29.192957" lon="104.639698"><ele>406.50842</ele><time>2026-03-07T21:13:47.000Z</time></trkpt>
        <trkpt lat="29.19299" lon="104.639738"><ele>405.49686</ele><time>2026-03-07T21:13:51.000Z</time></trkpt>
        <trkpt lat="29.193035" lon="104.63976"><ele>405.11133</ele><time>2026-03-07T21:13:55.000Z</time></trkpt>
        <trkpt lat="29.193089" lon="104.639772"><ele>404.40228</ele><time>2026-03-07T21:14:00.000Z</time></trkpt>
        <trkpt lat="29.193135" lon="104.639777"><ele>403.8869</ele><time>2026-03-07T21:14:04.000Z</time></trkpt>
        <trkpt lat="29.193182" lon="104.639774"><ele>403.59552</ele><time>2026-03-07T21:14:08.000Z</time></trkpt>
        <trkpt lat="29.193226" lon="104.639754"><ele>402.9544</ele><time>2026-03-07T21:14:12.000Z</time></trkpt>
        <trkpt lat="29.193265" lon="104.639726"><ele>401.5713</ele><time>2026-03-07T21:14:16.000Z</time></trkpt>
        <trkpt lat="29.193299" lon="104.639672"><ele>401.84256</ele><time>2026-03-07T21:14:22.000Z</time></trkpt>
        <trkpt lat="29.193327" lon="104.639623"><ele>402.77264</ele><time>2026-03-07T21:14:26.000Z</time></trkpt>
        <trkpt lat="29.193368" lon="104.639592"><ele>401.54932</ele><time>2026-03-07T21:14:31.000Z</time></trkpt>
        <trkpt lat="29.193398" lon="104.639544"><ele>401.24118</ele><time>2026-03-07T21:14:35.000Z</time></trkpt>
        <trkpt lat="29.193431" lon="104.639505"><ele>400.93298</ele><time>2026-03-07T21:14:40.000Z</time></trkpt>
        <trkpt lat="29.193443" lon="104.639445"><ele>400.70114</ele><time>2026-03-07T21:14:46.000Z</time></trkpt>
        <trkpt lat="29.19343" lon="104.639385"><ele>399.9695</ele><time>2026-03-07T21:15:07.000Z</time></trkpt>
        <trkpt lat="29.19342" lon="104.639332"><ele>400.9405</ele><time>2026-03-07T21:15:13.000Z</time></trkpt>
        <trkpt lat="29.193434" lon="104.639278"><ele>401.30603</ele><time>2026-03-07T21:15:19.000Z</time></trkpt>
        <trkpt lat="29.193442" lon="104.639222"><ele>402.12415</ele><time>2026-03-07T21:15:28.000Z</time></trkpt>
        <trkpt lat="29.193466" lon="104.639164"><ele>402.86804</ele><time>2026-03-07T21:15:34.000Z</time></trkpt>
        <trkpt lat="29.193491" lon="104.639111"><ele>402.52808</ele><time>2026-03-07T21:15:38.000Z</time></trkpt>
        <trkpt lat="29.19351" lon="104.639063"><ele>402.00406</ele><time>2026-03-07T21:15:42.000Z</time></trkpt>
        <trkpt lat="29.193529" lon="104.639013"><ele>400.86768</ele><time>2026-03-07T21:15:45.000Z</time></trkpt>
        <trkpt lat="29.193529" lon="104.638951"><ele>400.17422</ele><time>2026-03-07T21:15:49.000Z</time></trkpt>
        <trkpt lat="29.193572" lon="104.638936"><ele>400.9621</ele><time>2026-03-07T21:16:10.000Z</time></trkpt>
        <trkpt lat="29.19362" lon="104.638931"><ele>401.167</ele><time>2026-03-07T21:16:19.000Z</time></trkpt>
        <trkpt lat="29.193664" lon="104.638945"><ele>399.18646</ele><time>2026-03-07T21:16:30.000Z</time></trkpt>
        <trkpt lat="29.193618" lon="104.638962"><ele>398.81015</ele><time>2026-03-07T21:16:40.000Z</time></trkpt>
        <trkpt lat="29.193572" lon="104.638945"><ele>400.26328</ele><time>2026-03-07T21:16:46.000Z</time></trkpt>
        <trkpt lat="29.193575" lon="104.638893"><ele>399.69775</ele><time>2026-03-07T21:16:54.000Z</time></trkpt>
        <trkpt lat="29.19362" lon="104.638871"><ele>398.5167</ele><time>2026-03-07T21:17:01.000Z</time></trkpt>
        <trkpt lat="29.193663" lon="104.638892"><ele>397.9515</ele><time>2026-03-07T21:17:08.000Z</time></trkpt>
        <trkpt lat="29.193698" lon="104.638929"><ele>397.26526</ele><time>2026-03-07T21:17:20.000Z</time></trkpt>
        <trkpt lat="29.193746" lon="104.638933"><ele>395.79086</ele><time>2026-03-07T21:17:32.000Z</time></trkpt>
        <trkpt lat="29.193736" lon="104.638879"><ele>401.1664</ele><time>2026-03-07T21:18:02.000Z</time></trkpt>
        <trkpt lat="29.193781" lon="104.638893"><ele>400.44556</ele><time>2026-03-07T21:18:22.000Z</time></trkpt>
        <trkpt lat="29.193814" lon="104.638929"><ele>397.00668</ele><time>2026-03-07T21:18:27.000Z</time></trkpt>
        <trkpt lat="29.193854" lon="104.638968"><ele>392.1386</ele><time>2026-03-07T21:18:33.000Z</time></trkpt>
        <trkpt lat="29.193882" lon="104.639014"><ele>390.84363</ele><time>2026-03-07T21:18:38.000Z</time></trkpt>
        <trkpt lat="29.193905" lon="104.639069"><ele>388.94855</ele><time>2026-03-07T21:18:44.000Z</time></trkpt>
        <trkpt lat="29.193899" lon="104.639124"><ele>389.0922</ele><time>2026-03-07T21:19:01.000Z</time></trkpt>
        <trkpt lat="29.193899" lon="104.639178"><ele>389.49316</ele><time>2026-03-07T21:19:11.000Z</time></trkpt>
        <trkpt lat="29.193879" lon="104.63924"><ele>390.2962</ele><time>2026-03-07T21:19:19.000Z</time></trkpt>
        <trkpt lat="29.193879" lon="104.639184"><ele>389.83115</ele><time>2026-03-07T21:19:34.000Z</time></trkpt>
        <trkpt lat="29.19392" lon="104.639209"><ele>387.87622</ele><time>2026-03-07T21:19:45.000Z</time></trkpt>
        <trkpt lat="29.193939" lon="104.639256"><ele>386.50223</ele><time>2026-03-07T21:20:01.000Z</time></trkpt>
        <trkpt lat="29.193969" lon="104.6393"><ele>385.4134</ele><time>2026-03-07T21:20:14.000Z</time></trkpt>
        <trkpt lat="29.193976" lon="104.639351"><ele>384.5716</ele><time>2026-03-07T21:20:21.000Z</time></trkpt>
        <trkpt lat="29.193969" lon="104.639406"><ele>383.8394</ele><time>2026-03-07T21:20:37.000Z</time></trkpt>
        <trkpt lat="29.193969" lon="104.63946"><ele>383.5743</ele><time>2026-03-07T21:20:44.000Z</time></trkpt>
        <trkpt lat="29.193958" lon="104.639407"><ele>383.5324</ele><time>2026-03-07T21:21:13.000Z</time></trkpt>
        <trkpt lat="29.193972" lon="104.639354"><ele>383.79117</ele><time>2026-03-07T21:21:21.000Z</time></trkpt>
        <trkpt lat="29.194017" lon="104.639359"><ele>383.93726</ele><time>2026-03-07T21:21:37.000Z</time></trkpt>
        <trkpt lat="29.194056" lon="104.63939"><ele>384.08765</ele><time>2026-03-07T21:22:00.000Z</time></trkpt>
        <trkpt lat="29.194031" lon="104.639436"><ele>384.0964</ele><time>2026-03-07T21:22:09.000Z</time></trkpt>
        <trkpt lat="29.193993" lon="104.639467"><ele>384.6223</ele><time>2026-03-07T21:22:14.000Z</time></trkpt>
        <trkpt lat="29.193969" lon="104.639514"><ele>383.57135</ele><time>2026-03-07T21:22:22.000Z</time></trkpt>
        <trkpt lat="29.19393" lon="104.639541"><ele>384.60965</ele><time>2026-03-07T21:22:43.000Z</time></trkpt>
        <trkpt lat="29.193973" lon="104.639522"><ele>384.5027</ele><time>2026-03-07T21:23:05.000Z</time></trkpt>
        <trkpt lat="29.193927" lon="104.639486"><ele>381.09308</ele><time>2026-03-07T21:23:18.000Z</time></trkpt>
        <trkpt lat="29.193953" lon="104.639538"><ele>383.9308</ele><time>2026-03-07T21:23:28.000Z</time></trkpt>
        <trkpt lat="29.193929" lon="104.639582"><ele>384.29062</ele><time>2026-03-07T21:23:40.000Z</time></trkpt>
        <trkpt lat="29.193955" lon="104.639538"><ele>384.0385</ele><time>2026-03-07T21:23:56.000Z</time></trkpt>
        <trkpt lat="29.193939" lon="104.639609"><ele>384.00687</ele><time>2026-03-07T21:24:00.000Z</time></trkpt>
        <trkpt lat="29.193932" lon="104.639548"><ele>384.37827</ele><time>2026-03-07T21:24:04.000Z</time></trkpt>
        <trkpt lat="29.193875" lon="104.63958"><ele>390.5696</ele><time>2026-03-07T21:24:36.000Z</time></trkpt>
        <trkpt lat="29.193922" lon="104.639598"><ele>388.33813</ele><time>2026-03-07T21:24:41.000Z</time></trkpt>
        <trkpt lat="29.19393" lon="104.639543"><ele>384.3367</ele><time>2026-03-07T21:25:04.000Z</time></trkpt>
        <trkpt lat="29.193978" lon="104.639545"><ele>383.71793</ele><time>2026-03-07T21:26:23.000Z</time></trkpt>
        <trkpt lat="29.193945" lon="104.639601"><ele>383.67917</ele><time>2026-03-07T21:26:30.000Z</time></trkpt>
        <trkpt lat="29.193991" lon="104.639595"><ele>383.96292</ele><time>2026-03-07T21:26:58.000Z</time></trkpt>
        <trkpt lat="29.194044" lon="104.639549"><ele>384.3646</ele><time>2026-03-07T21:27:03.000Z</time></trkpt>
        <trkpt lat="29.194021" lon="104.639503"><ele>383.57785</ele><time>2026-03-07T21:27:17.000Z</time></trkpt>
        <trkpt lat="29.194061" lon="104.63953"><ele>383.10474</ele><time>2026-03-07T21:27:37.000Z</time></trkpt>
        <trkpt lat="29.194108" lon="104.639534"><ele>382.39972</ele><time>2026-03-07T21:28:07.000Z</time></trkpt>
        <trkpt lat="29.194132" lon="104.639581"><ele>383.1674</ele><time>2026-03-07T21:28:18.000Z</time></trkpt>
        <trkpt lat="29.194149" lon="104.639633"><ele>383.60492</ele><time>2026-03-07T21:28:30.000Z</time></trkpt>
        <trkpt lat="29.194128" lon="104.639684"><ele>384.45218</ele><time>2026-03-07T21:28:39.000Z</time></trkpt>
        <trkpt lat="29.194104" lon="104.639731"><ele>385.16077</ele><time>2026-03-07T21:28:52.000Z</time></trkpt>
        <trkpt lat="29.194071" lon="104.639767"><ele>385.48004</ele><time>2026-03-07T21:29:03.000Z</time></trkpt>
        <trkpt lat="29.194047" lon="104.639706"><ele>385.82236</ele><time>2026-03-07T21:29:15.000Z</time></trkpt>
        <trkpt lat="29.194035" lon="104.639651"><ele>385.19443</ele><time>2026-03-07T21:29:24.000Z</time></trkpt>
        <trkpt lat="29.194031" lon="104.639599"><ele>385.0874</ele><time>2026-03-07T21:29:30.000Z</time></trkpt>
        <trkpt lat="29.194077" lon="104.639573"><ele>384.35242</ele><time>2026-03-07T21:29:38.000Z</time></trkpt>
        <trkpt lat="29.194123" lon="104.639563"><ele>383.804</ele><time>2026-03-07T21:29:44.000Z</time></trkpt>
        <trkpt lat="29.194167" lon="104.639584"><ele>383.10382</ele><time>2026-03-07T21:29:56.000Z</time></trkpt>
        <trkpt lat="29.194185" lon="104.639631"><ele>385.38388</ele><time>2026-03-07T21:30:06.000Z</time></trkpt>
        <trkpt lat="29.194199" lon="104.639687"><ele>385.08237</ele><time>2026-03-07T21:30:14.000Z</time></trkpt>
        <trkpt lat="29.194165" lon="104.639723"><ele>385.30728</ele><time>2026-03-07T21:30:24.000Z</time></trkpt>
        <trkpt lat="29.194125" lon="104.639754"><ele>385.80185</ele><time>2026-03-07T21:30:30.000Z</time></trkpt>
        <trkpt lat="29.194084" lon="104.639777"><ele>385.99533</ele><time>2026-03-07T21:30:37.000Z</time></trkpt>
        <trkpt lat="29.194037" lon="104.639795"><ele>385.80722</ele><time>2026-03-07T21:30:48.000Z</time></trkpt>
        <trkpt lat="29.193997" lon="104.63983"><ele>385.54984</ele><time>2026-03-07T21:30:57.000Z</time></trkpt>
        <trkpt lat="29.193951" lon="104.639861"><ele>386.46036</ele><time>2026-03-07T21:31:12.000Z</time></trkpt>
        <trkpt lat="29.193971" lon="104.639909"><ele>387.28433</ele><time>2026-03-07T21:31:51.000Z</time></trkpt>
        <trkpt lat="29.193992" lon="104.639859"><ele>387.69498</ele><time>2026-03-07T21:32:00.000Z</time></trkpt>
        <trkpt lat="29.194015" lon="104.6398"><ele>388.1858</ele><time>2026-03-07T21:32:06.000Z</time></trkpt>
        <trkpt lat="29.19406" lon="104.639809"><ele>388.1848</ele><time>2026-03-07T21:32:15.000Z</time></trkpt>
        <trkpt lat="29.19406" lon="104.639868"><ele>386.73508</ele><time>2026-03-07T21:32:22.000Z</time></trkpt>
        <trkpt lat="29.194048" lon="104.639923"><ele>387.3499</ele><time>2026-03-07T21:32:28.000Z</time></trkpt>
        <trkpt lat="29.194083" lon="104.639887"><ele>387.65988</ele><time>2026-03-07T21:32:52.000Z</time></trkpt>
        <trkpt lat="29.194134" lon="104.639894"><ele>386.8534</ele><time>2026-03-07T21:32:57.000Z</time></trkpt>
        <trkpt lat="29.194184" lon="104.639886"><ele>387.1394</ele><time>2026-03-07T21:33:02.000Z</time></trkpt>
        <trkpt lat="29.194223" lon="104.639925"><ele>387.69644</ele><time>2026-03-07T21:33:06.000Z</time></trkpt>
        <trkpt lat="29.194199" lon="104.639972"><ele>388.09933</ele><time>2026-03-07T21:33:14.000Z</time></trkpt>
        <trkpt lat="29.194176" lon="104.640019"><ele>388.58038</ele><time>2026-03-07T21:33:21.000Z</time></trkpt>
        <trkpt lat="29.194229" lon="104.640023"><ele>387.66614</ele><time>2026-03-07T21:33:49.000Z</time></trkpt>
        <trkpt lat="29.19428" lon="104.640024"><ele>388.3591</ele><time>2026-03-07T21:33:54.000Z</time></trkpt>
        <trkpt lat="29.194303" lon="104.640078"><ele>390.32446</ele><time>2026-03-07T21:34:00.000Z</time></trkpt>
        <trkpt lat="29.194307" lon="104.640142"><ele>392.16483</ele><time>2026-03-07T21:34:14.000Z</time></trkpt>
        <trkpt lat="29.194343" lon="104.640177"><ele>393.37796</ele><time>2026-03-07T21:34:21.000Z</time></trkpt>
        <trkpt lat="29.19437" lon="104.640221"><ele>394.80023</ele><time>2026-03-07T21:34:26.000Z</time></trkpt>
        <trkpt lat="29.194344" lon="104.640266"><ele>396.35242</ele><time>2026-03-07T21:34:34.000Z</time></trkpt>
        <trkpt lat="29.194347" lon="104.640321"><ele>396.49625</ele><time>2026-03-07T21:34:40.000Z</time></trkpt>
        <trkpt lat="29.194391" lon="104.640348"><ele>395.8905</ele><time>2026-03-07T21:34:47.000Z</time></trkpt>
        <trkpt lat="29.194435" lon="104.640337"><ele>396.06528</ele><time>2026-03-07T21:35:06.000Z</time></trkpt>
        <trkpt lat="29.194481" lon="104.640333"><ele>396.70276</ele><time>2026-03-07T21:35:58.000Z</time></trkpt>
        <trkpt lat="29.194479" lon="104.640279"><ele>397.97452</ele><time>2026-03-07T21:36:17.000Z</time></trkpt>
        <trkpt lat="29.194484" lon="104.640227"><ele>397.92902</ele><time>2026-03-07T21:36:22.000Z</time></trkpt>
        <trkpt lat="29.194524" lon="104.640203"><ele>398.97153</ele><time>2026-03-07T21:36:28.000Z</time></trkpt>
        <trkpt lat="29.194549" lon="104.640257"><ele>399.18127</ele><time>2026-03-07T21:36:34.000Z</time></trkpt>
        <trkpt lat="29.194582" lon="104.640297"><ele>400.0838</ele><time>2026-03-07T21:36:41.000Z</time></trkpt>
        <trkpt lat="29.194585" lon="104.640365"><ele>400.10974</ele><time>2026-03-07T21:36:46.000Z</time></trkpt>
        <trkpt lat="29.194618" lon="104.640401"><ele>402.33096</ele><time>2026-03-07T21:36:55.000Z</time></trkpt>
        <trkpt lat="29.194666" lon="104.640405"><ele>403.5534</ele><time>2026-03-07T21:37:09.000Z</time></trkpt>
        <trkpt lat="29.194691" lon="104.64036"><ele>406.03204</ele><time>2026-03-07T21:37:17.000Z</time></trkpt>
        <trkpt lat="29.194668" lon="104.64031"><ele>406.71893</ele><time>2026-03-07T21:37:23.000Z</time></trkpt>
        <trkpt lat="29.194714" lon="104.6403"><ele>407.26495</ele><time>2026-03-07T21:37:32.000Z</time></trkpt>
        <trkpt lat="29.194743" lon="104.640351"><ele>407.89542</ele><time>2026-03-07T21:37:37.000Z</time></trkpt>
        <trkpt lat="29.194783" lon="104.640393"><ele>407.9145</ele><time>2026-03-07T21:37:42.000Z</time></trkpt>
        <trkpt lat="29.194815" lon="104.640433"><ele>408.37698</ele><time>2026-03-07T21:37:46.000Z</time></trkpt>
        <trkpt lat="29.194826" lon="104.640499"><ele>407.8599</ele><time>2026-03-07T21:37:58.000Z</time></trkpt>
        <trkpt lat="29.194861" lon="104.640546"><ele>407.51984</ele><time>2026-03-07T21:38:05.000Z</time></trkpt>
        <trkpt lat="29.194906" lon="104.64058"><ele>408.6254</ele><time>2026-03-07T21:38:16.000Z</time></trkpt>
        <trkpt lat="29.194947" lon="104.640621"><ele>408.95166</ele><time>2026-03-07T21:38:21.000Z</time></trkpt>
        <trkpt lat="29.194983" lon="104.64066"><ele>409.14066</ele><time>2026-03-07T21:38:26.000Z</time></trkpt>
        <trkpt lat="29.195023" lon="104.640693"><ele>409.9879</ele><time>2026-03-07T21:38:35.000Z</time></trkpt>
        <trkpt lat="29.195061" lon="104.640724"><ele>410.46173</ele><time>2026-03-07T21:38:39.000Z</time></trkpt>
        <trkpt lat="29.195102" lon="104.640759"><ele>411.4113</ele><time>2026-03-07T21:38:53.000Z</time></trkpt>
        <trkpt lat="29.195117" lon="104.640809"><ele>410.5917</ele><time>2026-03-07T21:38:58.000Z</time></trkpt>
        <trkpt lat="29.195112" lon="104.640868"><ele>411.44736</ele><time>2026-03-07T21:39:02.000Z</time></trkpt>
        <trkpt lat="29.195159" lon="104.640853"><ele>411.14056</ele><time>2026-03-07T21:39:15.000Z</time></trkpt>
        <trkpt lat="29.195216" lon="104.640857"><ele>411.39954</ele><time>2026-03-07T21:39:20.000Z</time></trkpt>
        <trkpt lat="29.195267" lon="104.640844"><ele>411.96677</ele><time>2026-03-07T21:39:25.000Z</time></trkpt>
        <trkpt lat="29.195294" lon="104.640889"><ele>411.88968</ele><time>2026-03-07T21:39:31.000Z</time></trkpt>
        <trkpt lat="29.195306" lon="104.640944"><ele>411.9212</ele><time>2026-03-07T21:39:34.000Z</time></trkpt>
        <trkpt lat="29.195306" lon="104.640997"><ele>412.129</ele><time>2026-03-07T21:39:38.000Z</time></trkpt>
        <trkpt lat="29.195329" lon="104.641043"><ele>412.32394</ele><time>2026-03-07T21:39:42.000Z</time></trkpt>
        <trkpt lat="29.195374" lon="104.641028"><ele>411.44736</ele><time>2026-03-07T21:40:06.000Z</time></trkpt>
        <trkpt lat="29.195406" lon="104.640974"><ele>410.92517</ele><time>2026-03-07T21:40:10.000Z</time></trkpt>
        <trkpt lat="29.195443" lon="104.640933"><ele>409.83203</ele><time>2026-03-07T21:40:15.000Z</time></trkpt>
        <trkpt lat="29.195478" lon="104.640896"><ele>409.80652</ele><time>2026-03-07T21:40:19.000Z</time></trkpt>
        <trkpt lat="29.195512" lon="104.640855"><ele>407.81943</ele><time>2026-03-07T21:40:23.000Z</time></trkpt>
        <trkpt lat="29.195549" lon="104.640809"><ele>407.24167</ele><time>2026-03-07T21:40:27.000Z</time></trkpt>
        <trkpt lat="29.195569" lon="104.640756"><ele>407.36877</ele><time>2026-03-07T21:40:31.000Z</time></trkpt>
        <trkpt lat="29.19559" lon="104.6407"><ele>407.98724</ele><time>2026-03-07T21:40:35.000Z</time></trkpt>
        <trkpt lat="29.195607" lon="104.640651"><ele>407.05637</ele><time>2026-03-07T21:40:44.000Z</time></trkpt>
        <trkpt lat="29.195613" lon="104.640599"><ele>406.47067</ele><time>2026-03-07T21:40:49.000Z</time></trkpt>
        <trkpt lat="29.195615" lon="104.64054"><ele>405.46863</ele><time>2026-03-07T21:41:01.000Z</time></trkpt>
        <trkpt lat="29.195609" lon="104.64048"><ele>404.711</ele><time>2026-03-07T21:41:05.000Z</time></trkpt>
        <trkpt lat="29.195605" lon="104.640425"><ele>404.09543</ele><time>2026-03-07T21:41:09.000Z</time></trkpt>
        <trkpt lat="29.195588" lon="104.640367"><ele>404.15613</ele><time>2026-03-07T21:41:13.000Z</time></trkpt>
        <trkpt lat="29.195566" lon="104.640311"><ele>405.3455</ele><time>2026-03-07T21:41:17.000Z</time></trkpt>
        <trkpt lat="29.195556" lon="104.640258"><ele>405.4894</ele><time>2026-03-07T21:41:21.000Z</time></trkpt>
        <trkpt lat="29.195542" lon="104.640197"><ele>405.41315</ele><time>2026-03-07T21:41:25.000Z</time></trkpt>
        <trkpt lat="29.195537" lon="104.640129"><ele>404.63193</ele><time>2026-03-07T21:41:29.000Z</time></trkpt>
        <trkpt lat="29.19551" lon="104.640079"><ele>404.94757</ele><time>2026-03-07T21:41:33.000Z</time></trkpt>
        <trkpt lat="29.195487" lon="104.640028"><ele>405.68768</ele><time>2026-03-07T21:41:37.000Z</time></trkpt>
        <trkpt lat="29.195477" lon="104.639973"><ele>404.44696</ele><time>2026-03-07T21:41:41.000Z</time></trkpt>
        <trkpt lat="29.195521" lon="104.639948"><ele>406.4017</ele><time>2026-03-07T21:41:45.000Z</time></trkpt>
        <trkpt lat="29.195561" lon="104.639922"><ele>403.98608</ele><time>2026-03-07T21:41:49.000Z</time></trkpt>
        <trkpt lat="29.195593" lon="104.639875"><ele>404.63565</ele><time>2026-03-07T21:41:53.000Z</time></trkpt>
        <trkpt lat="29.195634" lon="104.639827"><ele>402.86868</ele><time>2026-03-07T21:41:57.000Z</time></trkpt>
        <trkpt lat="29.195658" lon="104.639779"><ele>401.5244</ele><time>2026-03-07T21:42:00.000Z</time></trkpt>
        <trkpt lat="29.195698" lon="104.639738"><ele>401.23325</ele><time>2026-03-07T21:42:05.000Z</time></trkpt>
        <trkpt lat="29.195722" lon="104.639688"><ele>400.546</ele><time>2026-03-07T21:42:09.000Z</time></trkpt>
        <trkpt lat="29.195759" lon="104.63965"><ele>399.11697</ele><time>2026-03-07T21:42:13.000Z</time></trkpt>
        <trkpt lat="29.195796" lon="104.639615"><ele>398.8684</ele><time>2026-03-07T21:42:17.000Z</time></trkpt>
        <trkpt lat="29.195809" lon="104.639558"><ele>398.63986</ele><time>2026-03-07T21:42:21.000Z</time></trkpt>
        <trkpt lat="29.195799" lon="104.639494"><ele>396.79724</ele><time>2026-03-07T21:42:26.000Z</time></trkpt>
        <trkpt lat="29.195807" lon="104.639436"><ele>396.89438</ele><time>2026-03-07T21:42:32.000Z</time></trkpt>
        <trkpt lat="29.195817" lon="104.639377"><ele>396.80258</ele><time>2026-03-07T21:42:36.000Z</time></trkpt>
        <trkpt lat="29.195838" lon="104.639321"><ele>394.457</ele><time>2026-03-07T21:42:45.000Z</time></trkpt>
        <trkpt lat="29.195876" lon="104.639263"><ele>393.95212</ele><time>2026-03-07T21:42:49.000Z</time></trkpt>
        <trkpt lat="29.195883" lon="104.639209"><ele>393.0462</ele><time>2026-03-07T21:42:52.000Z</time></trkpt>
        <trkpt lat="29.195913" lon="104.639156"><ele>393.13968</ele><time>2026-03-07T21:42:56.000Z</time></trkpt>
        <trkpt lat="29.195924" lon="104.639103"><ele>394.0229</ele><time>2026-03-07T21:43:00.000Z</time></trkpt>
        <trkpt lat="29.195898" lon="104.639054"><ele>392.98926</ele><time>2026-03-07T21:43:06.000Z</time></trkpt>
        <trkpt lat="29.195891" lon="104.639"><ele>393.42828</ele><time>2026-03-07T21:43:10.000Z</time></trkpt>
        <trkpt lat="29.195872" lon="104.63895"><ele>393.64618</ele><time>2026-03-07T21:43:14.000Z</time></trkpt>
        <trkpt lat="29.195829" lon="104.638915"><ele>394.51617</ele><time>2026-03-07T21:43:18.000Z</time></trkpt>
        <trkpt lat="29.1958" lon="104.638876"><ele>395.7178</ele><time>2026-03-07T21:43:21.000Z</time></trkpt>
        <trkpt lat="29.195827" lon="104.638827"><ele>395.46475</ele><time>2026-03-07T21:43:29.000Z</time></trkpt>
        <trkpt lat="29.195864" lon="104.638792"><ele>395.3219</ele><time>2026-03-07T21:43:33.000Z</time></trkpt>
        <trkpt lat="29.195917" lon="104.638763"><ele>395.09665</ele><time>2026-03-07T21:43:37.000Z</time></trkpt>
        <trkpt lat="29.195962" lon="104.638732"><ele>394.78946</ele><time>2026-03-07T21:43:41.000Z</time></trkpt>
        <trkpt lat="29.19596" lon="104.638676"><ele>395.89587</ele><time>2026-03-07T21:43:54.000Z</time></trkpt>
        <trkpt lat="29.195945" lon="104.63862"><ele>395.98837</ele><time>2026-03-07T21:43:59.000Z</time></trkpt>
        <trkpt lat="29.195934" lon="104.638557"><ele>396.3451</ele><time>2026-03-07T21:44:02.000Z</time></trkpt>
        <trkpt lat="29.195918" lon="104.638507"><ele>396.0772</ele><time>2026-03-07T21:44:05.000Z</time></trkpt>
        <trkpt lat="29.195906" lon="104.63844"><ele>395.07083</ele><time>2026-03-07T21:44:11.000Z</time></trkpt>
        <trkpt lat="29.1959" lon="104.638387"><ele>394.5596</ele><time>2026-03-07T21:44:15.000Z</time></trkpt>
        <trkpt lat="29.195874" lon="104.63834"><ele>392.62115</ele><time>2026-03-07T21:44:22.000Z</time></trkpt>
        <trkpt lat="29.195859" lon="104.638284"><ele>391.64407</ele><time>2026-03-07T21:44:28.000Z</time></trkpt>
        <trkpt lat="29.195863" lon="104.638337"><ele>390.7527</ele><time>2026-03-07T21:44:55.000Z</time></trkpt>
        <trkpt lat="29.19582" lon="104.638374"><ele>391.95547</ele><time>2026-03-07T21:45:05.000Z</time></trkpt>
        <trkpt lat="29.195766" lon="104.638391"><ele>391.83777</ele><time>2026-03-07T21:45:09.000Z</time></trkpt>
        <trkpt lat="29.195717" lon="104.638367"><ele>392.03232</ele><time>2026-03-07T21:45:15.000Z</time></trkpt>
        <trkpt lat="29.1957" lon="104.638309"><ele>391.7171</ele><time>2026-03-07T21:45:25.000Z</time></trkpt>
        <trkpt lat="29.195675" lon="104.638263"><ele>390.68262</ele><time>2026-03-07T21:45:30.000Z</time></trkpt>
        <trkpt lat="29.195673" lon="104.638201"><ele>388.5286</ele><time>2026-03-07T21:45:39.000Z</time></trkpt>
        <trkpt lat="29.195674" lon="104.638149"><ele>386.8576</ele><time>2026-03-07T21:45:43.000Z</time></trkpt>
        <trkpt lat="29.195665" lon="104.638082"><ele>385.92636</ele><time>2026-03-07T21:45:48.000Z</time></trkpt>
        <trkpt lat="29.19566" lon="104.63803"><ele>385.22104</ele><time>2026-03-07T21:45:53.000Z</time></trkpt>
        <trkpt lat="29.195658" lon="104.637965"><ele>383.0826</ele><time>2026-03-07T21:46:04.000Z</time></trkpt>
        <trkpt lat="29.195665" lon="104.637906"><ele>382.39163</ele><time>2026-03-07T21:46:12.000Z</time></trkpt>
        <trkpt lat="29.195655" lon="104.637854"><ele>380.82004</ele><time>2026-03-07T21:46:21.000Z</time></trkpt>
        <trkpt lat="29.195643" lon="104.637804"><ele>380.14102</ele><time>2026-03-07T21:46:26.000Z</time></trkpt>
        <trkpt lat="29.195652" lon="104.637751"><ele>378.89288</ele><time>2026-03-07T21:46:31.000Z</time></trkpt>
        <trkpt lat="29.195676" lon="104.637695"><ele>378.3453</ele><time>2026-03-07T21:46:37.000Z</time></trkpt>
        <trkpt lat="29.195704" lon="104.637654"><ele>376.85062</ele><time>2026-03-07T21:46:42.000Z</time></trkpt>
        <trkpt lat="29.19573" lon="104.637608"><ele>376.23114</ele><time>2026-03-07T21:46:46.000Z</time></trkpt>
        <trkpt lat="29.195754" lon="104.637554"><ele>374.92212</ele><time>2026-03-07T21:46:51.000Z</time></trkpt>
        <trkpt lat="29.195758" lon="104.637502"><ele>373.48013</ele><time>2026-03-07T21:46:56.000Z</time></trkpt>
        <trkpt lat="29.195778" lon="104.637446"><ele>372.58194</ele><time>2026-03-07T21:47:01.000Z</time></trkpt>
        <trkpt lat="29.195795" lon="104.637394"><ele>371.18866</ele><time>2026-03-07T21:47:06.000Z</time></trkpt>
        <trkpt lat="29.195812" lon="104.637345"><ele>370.83334</ele><time>2026-03-07T21:47:10.000Z</time></trkpt>
        <trkpt lat="29.19582" lon="104.637287"><ele>370.32135</ele><time>2026-03-07T21:47:16.000Z</time></trkpt>
        <trkpt lat="29.195845" lon="104.637232"><ele>369.64975</ele><time>2026-03-07T21:47:20.000Z</time></trkpt>
        <trkpt lat="29.195855" lon="104.637177"><ele>368.64603</ele><time>2026-03-07T21:47:25.000Z</time></trkpt>
        <trkpt lat="29.195866" lon="104.637119"><ele>369.69254</ele><time>2026-03-07T21:47:36.000Z</time></trkpt>
        <trkpt lat="29.195899" lon="104.63707"><ele>369.49124</ele><time>2026-03-07T21:47:40.000Z</time></trkpt>
        <trkpt lat="29.195934" lon="104.637032"><ele>369.15106</ele><time>2026-03-07T21:47:45.000Z</time></trkpt>
        <trkpt lat="29.195962" lon="104.636991"><ele>369.06656</ele><time>2026-03-07T21:47:49.000Z</time></trkpt>
        <trkpt lat="29.195997" lon="104.63693"><ele>368.73938</ele><time>2026-03-07T21:48:01.000Z</time></trkpt>
        <trkpt lat="29.196021" lon="104.63688"><ele>369.05862</ele><time>2026-03-07T21:48:06.000Z</time></trkpt>
        <trkpt lat="29.196051" lon="104.636839"><ele>367.28564</ele><time>2026-03-07T21:48:13.000Z</time></trkpt>
        <trkpt lat="29.196079" lon="104.636785"><ele>366.32776</ele><time>2026-03-07T21:48:21.000Z</time></trkpt>
        <trkpt lat="29.196117" lon="104.63673"><ele>364.2976</ele><time>2026-03-07T21:48:26.000Z</time></trkpt>
        <trkpt lat="29.196141" lon="104.636682"><ele>362.21417</ele><time>2026-03-07T21:48:31.000Z</time></trkpt>
        <trkpt lat="29.196177" lon="104.63665"><ele>361.89856</ele><time>2026-03-07T21:48:35.000Z</time></trkpt>
        <trkpt lat="29.196204" lon="104.636608"><ele>360.63248</ele><time>2026-03-07T21:48:39.000Z</time></trkpt>
        <trkpt lat="29.196231" lon="104.636566"><ele>359.1071</ele><time>2026-03-07T21:48:44.000Z</time></trkpt>
        <trkpt lat="29.19626" lon="104.636502"><ele>359.8241</ele><time>2026-03-07T21:48:49.000Z</time></trkpt>
        <trkpt lat="29.196279" lon="104.636452"><ele>358.18198</ele><time>2026-03-07T21:48:53.000Z</time></trkpt>
        <trkpt lat="29.196312" lon="104.63641"><ele>357.0006</ele><time>2026-03-07T21:48:59.000Z</time></trkpt>
        <trkpt lat="29.196318" lon="104.636359"><ele>354.682</ele><time>2026-03-07T21:49:04.000Z</time></trkpt>
        <trkpt lat="29.196336" lon="104.636305"><ele>353.1961</ele><time>2026-03-07T21:49:10.000Z</time></trkpt>
        <trkpt lat="29.196338" lon="104.636246"><ele>352.7535</ele><time>2026-03-07T21:49:14.000Z</time></trkpt>
        <trkpt lat="29.196317" lon="104.636191"><ele>351.78113</ele><time>2026-03-07T21:49:19.000Z</time></trkpt>
        <trkpt lat="29.196309" lon="104.636135"><ele>350.12402</ele><time>2026-03-07T21:49:26.000Z</time></trkpt>
        <trkpt lat="29.19628" lon="104.636095"><ele>349.92072</ele><time>2026-03-07T21:49:29.000Z</time></trkpt>
        <trkpt lat="29.196245" lon="104.636054"><ele>350.18356</ele><time>2026-03-07T21:49:33.000Z</time></trkpt>
        <trkpt lat="29.196237" lon="104.636001"><ele>350.27585</ele><time>2026-03-07T21:49:42.000Z</time></trkpt>
        <trkpt lat="29.196192" lon="104.636002"><ele>349.58945</ele><time>2026-03-07T21:50:02.000Z</time></trkpt>
        <trkpt lat="29.196134" lon="104.635998"><ele>350.2266</ele><time>2026-03-07T21:50:08.000Z</time></trkpt>
        <trkpt lat="29.196095" lon="104.635959"><ele>350.70312</ele><time>2026-03-07T21:50:12.000Z</time></trkpt>
        <trkpt lat="29.196051" lon="104.635928"><ele>350.46677</ele><time>2026-03-07T21:50:16.000Z</time></trkpt>
        <trkpt lat="29.196022" lon="104.635881"><ele>348.47815</ele><time>2026-03-07T21:50:26.000Z</time></trkpt>
        <trkpt lat="29.195979" lon="104.635853"><ele>347.39307</ele><time>2026-03-07T21:50:34.000Z</time></trkpt>
        <trkpt lat="29.195928" lon="104.635826"><ele>346.58636</ele><time>2026-03-07T21:50:41.000Z</time></trkpt>
        <trkpt lat="29.19588" lon="104.635809"><ele>345.8521</ele><time>2026-03-07T21:50:48.000Z</time></trkpt>
        <trkpt lat="29.195826" lon="104.635786"><ele>345.58487</ele><time>2026-03-07T21:50:56.000Z</time></trkpt>
        <trkpt lat="29.195783" lon="104.635752"><ele>345.5638</ele><time>2026-03-07T21:51:03.000Z</time></trkpt>
        <trkpt lat="29.195729" lon="104.635751"><ele>345.5553</ele><time>2026-03-07T21:51:07.000Z</time></trkpt>
        <trkpt lat="29.195676" lon="104.635748"><ele>347.48047</ele><time>2026-03-07T21:51:15.000Z</time></trkpt>
        <trkpt lat="29.195623" lon="104.635737"><ele>348.15735</ele><time>2026-03-07T21:51:20.000Z</time></trkpt>
        <trkpt lat="29.195602" lon="104.635689"><ele>349.1804</ele><time>2026-03-07T21:51:24.000Z</time></trkpt>
        <trkpt lat="29.195571" lon="104.635643"><ele>350.7839</ele><time>2026-03-07T21:51:30.000Z</time></trkpt>
        <trkpt lat="29.195541" lon="104.6356"><ele>351.9687</ele><time>2026-03-07T21:51:36.000Z</time></trkpt>
        <trkpt lat="29.195495" lon="104.635572"><ele>353.42065</ele><time>2026-03-07T21:51:43.000Z</time></trkpt>
        <trkpt lat="29.195452" lon="104.635596"><ele>355.53204</ele><time>2026-03-07T21:51:52.000Z</time></trkpt>
        <trkpt lat="29.195411" lon="104.635616"><ele>356.32086</ele><time>2026-03-07T21:51:59.000Z</time></trkpt>
        <trkpt lat="29.195368" lon="104.635595"><ele>358.7031</ele><time>2026-03-07T21:52:18.000Z</time></trkpt>
        <trkpt lat="29.195332" lon="104.635555"><ele>360.91656</ele><time>2026-03-07T21:52:28.000Z</time></trkpt>
        <trkpt lat="29.195288" lon="104.635539"><ele>362.28992</ele><time>2026-03-07T21:52:37.000Z</time></trkpt>
        <trkpt lat="29.195245" lon="104.635523"><ele>364.94418</ele><time>2026-03-07T21:52:49.000Z</time></trkpt>
        <trkpt lat="29.195224" lon="104.635571"><ele>366.00336</ele><time>2026-03-07T21:53:17.000Z</time></trkpt>
        <trkpt lat="29.195217" lon="104.635623"><ele>364.58167</ele><time>2026-03-07T21:53:23.000Z</time></trkpt>
        <trkpt lat="29.195203" lon="104.635673"><ele>364.32156</ele><time>2026-03-07T21:53:27.000Z</time></trkpt>
        <trkpt lat="29.195177" lon="104.635728"><ele>364.8619</ele><time>2026-03-07T21:53:33.000Z</time></trkpt>
        <trkpt lat="29.195141" lon="104.635767"><ele>363.7845</ele><time>2026-03-07T21:53:37.000Z</time></trkpt>
        <trkpt lat="29.195105" lon="104.635803"><ele>364.24606</ele><time>2026-03-07T21:53:42.000Z</time></trkpt>
        <trkpt lat="29.195074" lon="104.635841"><ele>364.07883</ele><time>2026-03-07T21:53:52.000Z</time></trkpt>
        <trkpt lat="29.195035" lon="104.635872"><ele>363.20114</ele><time>2026-03-07T21:53:57.000Z</time></trkpt>
        <trkpt lat="29.194982" lon="104.635906"><ele>362.76474</ele><time>2026-03-07T21:54:03.000Z</time></trkpt>
        <trkpt lat="29.194941" lon="104.635951"><ele>364.34198</ele><time>2026-03-07T21:54:08.000Z</time></trkpt>
        <trkpt lat="29.194884" lon="104.635965"><ele>363.092</ele><time>2026-03-07T21:54:13.000Z</time></trkpt>
        <trkpt lat="29.194831" lon="104.635935"><ele>363.7496</ele><time>2026-03-07T21:54:18.000Z</time></trkpt>
        <trkpt lat="29.194783" lon="104.635902"><ele>364.46786</ele><time>2026-03-07T21:54:21.000Z</time></trkpt>
        <trkpt lat="29.19475" lon="104.635863"><ele>367.59586</ele><time>2026-03-07T21:54:32.000Z</time></trkpt>
        <trkpt lat="29.194715" lon="104.635827"><ele>368.19882</ele><time>2026-03-07T21:54:35.000Z</time></trkpt>
        <trkpt lat="29.194664" lon="104.635815"><ele>369.07745</ele><time>2026-03-07T21:54:40.000Z</time></trkpt>
        <trkpt lat="29.194619" lon="104.635823"><ele>370.70392</ele><time>2026-03-07T21:54:45.000Z</time></trkpt>
        <trkpt lat="29.194584" lon="104.635873"><ele>371.42535</ele><time>2026-03-07T21:54:50.000Z</time></trkpt>
        <trkpt lat="29.194566" lon="104.635925"><ele>371.9227</ele><time>2026-03-07T21:54:55.000Z</time></trkpt>
        <trkpt lat="29.194527" lon="104.635894"><ele>372.27966</ele><time>2026-03-07T21:54:59.000Z</time></trkpt>
        <trkpt lat="29.194481" lon="104.635876"><ele>373.27838</ele><time>2026-03-07T21:55:03.000Z</time></trkpt>
        <trkpt lat="29.194439" lon="104.635845"><ele>373.76758</ele><time>2026-03-07T21:55:08.000Z</time></trkpt>
        <trkpt lat="29.194397" lon="104.635799"><ele>374.64072</ele><time>2026-03-07T21:55:12.000Z</time></trkpt>
        <trkpt lat="29.194349" lon="104.635774"><ele>375.12366</ele><time>2026-03-07T21:55:17.000Z</time></trkpt>
        <trkpt lat="29.194299" lon="104.635746"><ele>375.34412</ele><time>2026-03-07T21:55:29.000Z</time></trkpt>
        <trkpt lat="29.194258" lon="104.635704"><ele>375.1877</ele><time>2026-03-07T21:55:34.000Z</time></trkpt>
        <trkpt lat="29.194213" lon="104.635678"><ele>374.8619</ele><time>2026-03-07T21:55:38.000Z</time></trkpt>
        <trkpt lat="29.194165" lon="104.63568"><ele>374.75876</ele><time>2026-03-07T21:55:44.000Z</time></trkpt>
        <trkpt lat="29.19413" lon="104.635718"><ele>375.5619</ele><time>2026-03-07T21:55:48.000Z</time></trkpt>
        <trkpt lat="29.194087" lon="104.635741"><ele>375.66534</ele><time>2026-03-07T21:56:02.000Z</time></trkpt>
        <trkpt lat="29.194038" lon="104.635715"><ele>375.1732</ele><time>2026-03-07T21:56:07.000Z</time></trkpt>
        <trkpt lat="29.193993" lon="104.635719"><ele>374.4771</ele><time>2026-03-07T21:56:12.000Z</time></trkpt>
        <trkpt lat="29.193947" lon="104.635727"><ele>373.81937</ele><time>2026-03-07T21:56:19.000Z</time></trkpt>
        <trkpt lat="29.193917" lon="104.635767"><ele>373.32745</ele><time>2026-03-07T21:56:25.000Z</time></trkpt>
        <trkpt lat="29.193864" lon="104.635786"><ele>371.8379</ele><time>2026-03-07T21:56:31.000Z</time></trkpt>
        <trkpt lat="29.193814" lon="104.635775"><ele>370.8601</ele><time>2026-03-07T21:56:36.000Z</time></trkpt>
        <trkpt lat="29.193768" lon="104.635765"><ele>370.59872</ele><time>2026-03-07T21:56:40.000Z</time></trkpt>
        <trkpt lat="29.193726" lon="104.63574"><ele>369.7812</ele><time>2026-03-07T21:56:45.000Z</time></trkpt>
        <trkpt lat="29.193684" lon="104.635708"><ele>368.58243</ele><time>2026-03-07T21:56:52.000Z</time></trkpt>
        <trkpt lat="29.193639" lon="104.635668"><ele>367.6112</ele><time>2026-03-07T21:56:56.000Z</time></trkpt>
        <trkpt lat="29.193596" lon="104.635635"><ele>366.42493</ele><time>2026-03-07T21:57:01.000Z</time></trkpt>
        <trkpt lat="29.193562" lon="104.635595"><ele>366.369</ele><time>2026-03-07T21:57:05.000Z</time></trkpt>
        <trkpt lat="29.193529" lon="104.635551"><ele>366.8483</ele><time>2026-03-07T21:57:09.000Z</time></trkpt>
        <trkpt lat="29.193496" lon="104.635506"><ele>367.1601</ele><time>2026-03-07T21:57:13.000Z</time></trkpt>
        <trkpt lat="29.193469" lon="104.635463"><ele>368.46878</ele><time>2026-03-07T21:57:17.000Z</time></trkpt>
        <trkpt lat="29.193437" lon="104.635412"><ele>370.17047</ele><time>2026-03-07T21:57:21.000Z</time></trkpt>
        <trkpt lat="29.193405" lon="104.635367"><ele>371.95905</ele><time>2026-03-07T21:57:25.000Z</time></trkpt>
        <trkpt lat="29.193419" lon="104.635287"><ele>375.29092</ele><time>2026-03-07T21:57:57.000Z</time></trkpt>
        <trkpt lat="29.193448" lon="104.635337"><ele>373.53342</ele><time>2026-03-07T21:58:28.000Z</time></trkpt>
        <trkpt lat="29.193469" lon="104.635395"><ele>373.0329</ele><time>2026-03-07T21:58:32.000Z</time></trkpt>
        <trkpt lat="29.193498" lon="104.635438"><ele>371.2967</ele><time>2026-03-07T21:58:39.000Z</time></trkpt>
        <trkpt lat="29.193541" lon="104.635465"><ele>370.0154</ele><time>2026-03-07T21:58:54.000Z</time></trkpt>
        <trkpt lat="29.193561" lon="104.635517"><ele>368.44916</ele><time>2026-03-07T21:59:38.000Z</time></trkpt>
        <trkpt lat="29.193581" lon="104.635565"><ele>366.63416</ele><time>2026-03-07T21:59:47.000Z</time></trkpt>
        <trkpt lat="29.193617" lon="104.635603"><ele>366.08176</ele><time>2026-03-07T21:59:52.000Z</time></trkpt>
        <trkpt lat="29.193616" lon="104.635657"><ele>366.8193</ele><time>2026-03-07T22:00:22.000Z</time></trkpt>
        <trkpt lat="29.193583" lon="104.635694"><ele>367.59784</ele><time>2026-03-07T22:01:32.000Z</time></trkpt>
        <trkpt lat="29.193611" lon="104.635735"><ele>368.44012</ele><time>2026-03-07T22:01:41.000Z</time></trkpt>
        <trkpt lat="29.193637" lon="104.635779"><ele>369.21484</ele><time>2026-03-07T22:01:48.000Z</time></trkpt>
        <trkpt lat="29.19361" lon="104.63582"><ele>369.03915</ele><time>2026-03-07T22:02:07.000Z</time></trkpt>
        <trkpt lat="29.19364" lon="104.635865"><ele>369.38568</ele><time>2026-03-07T22:02:17.000Z</time></trkpt>
        <trkpt lat="29.193689" lon="104.635891"><ele>370.0994</ele><time>2026-03-07T22:02:21.000Z</time></trkpt>
        <trkpt lat="29.193737" lon="104.635911"><ele>370.98724</ele><time>2026-03-07T22:02:25.000Z</time></trkpt>
        <trkpt lat="29.193771" lon="104.635951"><ele>372.33093</ele><time>2026-03-07T22:02:31.000Z</time></trkpt>
        <trkpt lat="29.193746" lon="104.636002"><ele>374.9089</ele><time>2026-03-07T22:02:38.000Z</time></trkpt>
        <trkpt lat="29.193749" lon="104.636057"><ele>376.31973</ele><time>2026-03-07T22:02:44.000Z</time></trkpt>
        <trkpt lat="29.193704" lon="104.636085"><ele>378.12552</ele><time>2026-03-07T22:02:52.000Z</time></trkpt>
        <trkpt lat="29.193748" lon="104.63611"><ele>378.54526</ele><time>2026-03-07T22:03:03.000Z</time></trkpt>
        <trkpt lat="29.193799" lon="104.636132"><ele>378.38702</ele><time>2026-03-07T22:03:07.000Z</time></trkpt>
        <trkpt lat="29.193841" lon="104.63615"><ele>378.91953</ele><time>2026-03-07T22:03:11.000Z</time></trkpt>
        <trkpt lat="29.193852" lon="104.636201"><ele>379.4978</ele><time>2026-03-07T22:03:19.000Z</time></trkpt>
        <trkpt lat="29.193851" lon="104.636252"><ele>380.47263</ele><time>2026-03-07T22:03:27.000Z</time></trkpt>
        <trkpt lat="29.193838" lon="104.636303"><ele>381.7645</ele><time>2026-03-07T22:03:52.000Z</time></trkpt>
        <trkpt lat="29.193886" lon="104.63629"><ele>381.7436</ele><time>2026-03-07T22:03:57.000Z</time></trkpt>
        <trkpt lat="29.193934" lon="104.636258"><ele>381.79144</ele><time>2026-03-07T22:04:01.000Z</time></trkpt>
        <trkpt lat="29.193977" lon="104.63624"><ele>382.0635</ele><time>2026-03-07T22:04:06.000Z</time></trkpt>
        <trkpt lat="29.194002" lon="104.636296"><ele>381.96533</ele><time>2026-03-07T22:04:12.000Z</time></trkpt>
        <trkpt lat="29.194018" lon="104.636349"><ele>382.30933</ele><time>2026-03-07T22:04:16.000Z</time></trkpt>
        <trkpt lat="29.194044" lon="104.636392"><ele>382.5099</ele><time>2026-03-07T22:04:19.000Z</time></trkpt>
        <trkpt lat="29.194096" lon="104.636421"><ele>383.07993</ele><time>2026-03-07T22:04:24.000Z</time></trkpt>
        <trkpt lat="29.194145" lon="104.636454"><ele>384.02832</ele><time>2026-03-07T22:04:29.000Z</time></trkpt>
        <trkpt lat="29.194193" lon="104.636486"><ele>384.34113</ele><time>2026-03-07T22:04:33.000Z</time></trkpt>
        <trkpt lat="29.194237" lon="104.636504"><ele>384.3413</ele><time>2026-03-07T22:04:37.000Z</time></trkpt>
        <trkpt lat="29.194284" lon="104.636527"><ele>383.91626</ele><time>2026-03-07T22:04:41.000Z</time></trkpt>
        <trkpt lat="29.194327" lon="104.636548"><ele>383.43427</ele><time>2026-03-07T22:04:45.000Z</time></trkpt>
        <trkpt lat="29.19434" lon="104.636601"><ele>383.69427</ele><time>2026-03-07T22:04:49.000Z</time></trkpt>
        <trkpt lat="29.19434" lon="104.636663"><ele>385.6913</ele><time>2026-03-07T22:04:54.000Z</time></trkpt>
        <trkpt lat="29.19436" lon="104.636716"><ele>384.32404</ele><time>2026-03-07T22:05:00.000Z</time></trkpt>
        <trkpt lat="29.194356" lon="104.636772"><ele>383.15167</ele><time>2026-03-07T22:05:05.000Z</time></trkpt>
        <trkpt lat="29.194363" lon="104.636826"><ele>382.72147</ele><time>2026-03-07T22:05:19.000Z</time></trkpt>
        <trkpt lat="29.194351" lon="104.636879"><ele>382.84006</ele><time>2026-03-07T22:05:25.000Z</time></trkpt>
        <trkpt lat="29.194332" lon="104.636933"><ele>381.64014</ele><time>2026-03-07T22:05:34.000Z</time></trkpt>
        <trkpt lat="29.194318" lon="104.636983"><ele>382.20395</ele><time>2026-03-07T22:06:02.000Z</time></trkpt>
        <trkpt lat="29.194279" lon="104.63702"><ele>382.30133</ele><time>2026-03-07T22:06:06.000Z</time></trkpt>
        <trkpt lat="29.194232" lon="104.637041"><ele>381.91977</ele><time>2026-03-07T22:06:11.000Z</time></trkpt>
        <trkpt lat="29.194192" lon="104.637067"><ele>381.79047</ele><time>2026-03-07T22:06:15.000Z</time></trkpt>
        <trkpt lat="29.194156" lon="104.637101"><ele>382.06876</ele><time>2026-03-07T22:06:19.000Z</time></trkpt>
        <trkpt lat="29.194102" lon="104.637109"><ele>381.85843</ele><time>2026-03-07T22:06:24.000Z</time></trkpt>
        <trkpt lat="29.19405" lon="104.637095"><ele>382.58978</ele><time>2026-03-07T22:06:28.000Z</time></trkpt>
        <trkpt lat="29.194003" lon="104.637105"><ele>383.51715</ele><time>2026-03-07T22:06:32.000Z</time></trkpt>
        <trkpt lat="29.193956" lon="104.637105"><ele>384.25443</ele><time>2026-03-07T22:06:40.000Z</time></trkpt>
        <trkpt lat="29.19391" lon="104.637101"><ele>385.18756</ele><time>2026-03-07T22:06:44.000Z</time></trkpt>
        <trkpt lat="29.193863" lon="104.637094"><ele>386.19226</ele><time>2026-03-07T22:06:48.000Z</time></trkpt>
        <trkpt lat="29.193817" lon="104.637098"><ele>386.33368</ele><time>2026-03-07T22:06:52.000Z</time></trkpt>
        <trkpt lat="29.193769" lon="104.637103"><ele>386.14752</ele><time>2026-03-07T22:06:57.000Z</time></trkpt>
        <trkpt lat="29.193718" lon="104.637107"><ele>386.16016</ele><time>2026-03-07T22:07:01.000Z</time></trkpt>
        <trkpt lat="29.193665" lon="104.637087"><ele>386.2621</ele><time>2026-03-07T22:07:06.000Z</time></trkpt>
        <trkpt lat="29.193615" lon="104.637075"><ele>387.02505</ele><time>2026-03-07T22:07:10.000Z</time></trkpt>
        <trkpt lat="29.193569" lon="104.637052"><ele>387.27063</ele><time>2026-03-07T22:07:15.000Z</time></trkpt>
        <trkpt lat="29.193525" lon="104.637027"><ele>387.44934</ele><time>2026-03-07T22:07:19.000Z</time></trkpt>
        <trkpt lat="29.193479" lon="104.636987"><ele>388.6146</ele><time>2026-03-07T22:07:23.000Z</time></trkpt>
        <trkpt lat="29.193433" lon="104.636968"><ele>388.98486</ele><time>2026-03-07T22:07:27.000Z</time></trkpt>
        <trkpt lat="29.193389" lon="104.636931"><ele>388.5889</ele><time>2026-03-07T22:07:31.000Z</time></trkpt>
        <trkpt lat="29.19334" lon="104.636914"><ele>388.73834</ele><time>2026-03-07T22:09:00.000Z</time></trkpt>
        <trkpt lat="29.193292" lon="104.636894"><ele>388.3564</ele><time>2026-03-07T22:09:06.000Z</time></trkpt>
        <trkpt lat="29.19325" lon="104.636866"><ele>388.46713</ele><time>2026-03-07T22:09:11.000Z</time></trkpt>
        <trkpt lat="29.193206" lon="104.636833"><ele>389.18237</ele><time>2026-03-07T22:09:17.000Z</time></trkpt>
        <trkpt lat="29.19317" lon="104.636792"><ele>390.00043</ele><time>2026-03-07T22:09:24.000Z</time></trkpt>
        <trkpt lat="29.193137" lon="104.63675"><ele>390.6904</ele><time>2026-03-07T22:09:32.000Z</time></trkpt>
        <trkpt lat="29.193118" lon="104.636673"><ele>391.13788</ele><time>2026-03-07T22:09:49.000Z</time></trkpt>
        <trkpt lat="29.193123" lon="104.636615"><ele>392.54315</ele><time>2026-03-07T22:10:23.000Z</time></trkpt>
        <trkpt lat="29.193142" lon="104.636568"><ele>392.32175</ele><time>2026-03-07T22:10:27.000Z</time></trkpt>
        <trkpt lat="29.19316" lon="104.636517"><ele>392.89523</ele><time>2026-03-07T22:10:31.000Z</time></trkpt>
        <trkpt lat="29.193178" lon="104.636464"><ele>392.29333</ele><time>2026-03-07T22:10:37.000Z</time></trkpt>
        <trkpt lat="29.193224" lon="104.636452"><ele>391.6337</ele><time>2026-03-07T22:11:07.000Z</time></trkpt>
        <trkpt lat="29.193258" lon="104.63641"><ele>391.08948</ele><time>2026-03-07T22:11:12.000Z</time></trkpt>
        <trkpt lat="29.193241" lon="104.636362"><ele>390.3766</ele><time>2026-03-07T22:11:24.000Z</time></trkpt>
        <trkpt lat="29.193214" lon="104.636316"><ele>389.54596</ele><time>2026-03-07T22:11:31.000Z</time></trkpt>
        <trkpt lat="29.193169" lon="104.636305"><ele>388.4706</ele><time>2026-03-07T22:11:39.000Z</time></trkpt>
        <trkpt lat="29.193123" lon="104.636281"><ele>387.51538</ele><time>2026-03-07T22:11:44.000Z</time></trkpt>
        <trkpt lat="29.193073" lon="104.636276"><ele>389.9195</ele><time>2026-03-07T22:12:11.000Z</time></trkpt>
        <trkpt lat="29.193027" lon="104.636287"><ele>390.3399</ele><time>2026-03-07T22:12:19.000Z</time></trkpt>
        <trkpt lat="29.192978" lon="104.636275"><ele>390.5003</ele><time>2026-03-07T22:12:27.000Z</time></trkpt>
        <trkpt lat="29.192955" lon="104.636223"><ele>391.90314</ele><time>2026-03-07T22:12:35.000Z</time></trkpt>
        <trkpt lat="29.192967" lon="104.636168"><ele>391.96533</ele><time>2026-03-07T22:12:40.000Z</time></trkpt>
        <trkpt lat="29.193009" lon="104.636126"><ele>392.89868</ele><time>2026-03-07T22:12:45.000Z</time></trkpt>
        <trkpt lat="29.193033" lon="104.63608"><ele>393.26538</ele><time>2026-03-07T22:12:49.000Z</time></trkpt>
        <trkpt lat="29.193017" lon="104.636031"><ele>394.0428</ele><time>2026-03-07T22:12:58.000Z</time></trkpt>
        <trkpt lat="29.192992" lon="104.635969"><ele>394.97498</ele><time>2026-03-07T22:13:16.000Z</time></trkpt>
        <trkpt lat="29.192997" lon="104.635913"><ele>395.49203</ele><time>2026-03-07T22:13:32.000Z</time></trkpt>
        <trkpt lat="29.192951" lon="104.635914"><ele>396.42148</ele><time>2026-03-07T22:13:47.000Z</time></trkpt>
        <trkpt lat="29.192906" lon="104.635916"><ele>397.0657</ele><time>2026-03-07T22:13:56.000Z</time></trkpt>
        <trkpt lat="29.192858" lon="104.63593"><ele>397.84216</ele><time>2026-03-07T22:14:37.000Z</time></trkpt>
        <trkpt lat="29.192807" lon="104.635939"><ele>397.09912</ele><time>2026-03-07T22:14:42.000Z</time></trkpt>
        <trkpt lat="29.192767" lon="104.635913"><ele>402.37686</ele><time>2026-03-07T22:15:12.000Z</time></trkpt>
        <trkpt lat="29.192716" lon="104.635904"><ele>403.1386</ele><time>2026-03-07T22:15:31.000Z</time></trkpt>
        <trkpt lat="29.192678" lon="104.635875"><ele>402.4114</ele><time>2026-03-07T22:15:56.000Z</time></trkpt>
        <trkpt lat="29.192733" lon="104.635894"><ele>403.32968</ele><time>2026-03-07T22:16:21.000Z</time></trkpt>
        <trkpt lat="29.192691" lon="104.635921"><ele>403.51395</ele><time>2026-03-07T22:16:31.000Z</time></trkpt>
        <trkpt lat="29.192646" lon="104.635954"><ele>403.09235</ele><time>2026-03-07T22:17:06.000Z</time></trkpt>
        <trkpt lat="29.192618" lon="104.636005"><ele>403.25342</ele><time>2026-03-07T22:17:19.000Z</time></trkpt>
        <trkpt lat="29.192626" lon="104.635954"><ele>405.25146</ele><time>2026-03-07T22:17:24.000Z</time></trkpt>
        <trkpt lat="29.192582" lon="104.635974"><ele>409.1351</ele><time>2026-03-07T22:18:51.000Z</time></trkpt>
        <trkpt lat="29.19254" lon="104.635993"><ele>409.62366</ele><time>2026-03-07T22:19:00.000Z</time></trkpt>
        <trkpt lat="29.192489" lon="104.635985"><ele>409.60336</ele><time>2026-03-07T22:19:07.000Z</time></trkpt>
        <trkpt lat="29.192445" lon="104.636002"><ele>413.0199</ele><time>2026-03-07T22:19:16.000Z</time></trkpt>
        <trkpt lat="29.19241" lon="104.636053"><ele>422.04507</ele><time>2026-03-07T22:19:26.000Z</time></trkpt>
        <trkpt lat="29.192391" lon="104.636117"><ele>434.5605</ele><time>2026-03-07T22:19:36.000Z</time></trkpt>
        <trkpt lat="29.192353" lon="104.636153"><ele>441.34406</ele><time>2026-03-07T22:19:43.000Z</time></trkpt>
        <trkpt lat="29.192327" lon="104.636206"><ele>445.60938</ele><time>2026-03-07T22:19:49.000Z</time></trkpt>
        <trkpt lat="29.192297" lon="104.636244"><ele>446.97046</ele><time>2026-03-07T22:19:54.000Z</time></trkpt>
        <trkpt lat="29.192317" lon="104.63619"><ele>447.96368</ele><time>2026-03-07T22:21:02.000Z</time></trkpt>
        <trkpt lat="29.192305" lon="104.636241"><ele>453.59995</ele><time>2026-03-07T22:23:01.000Z</time></trkpt>
        <trkpt lat="29.192341" lon="104.636195"><ele>450.15045</ele><time>2026-03-07T22:23:19.000Z</time></trkpt>
        <trkpt lat="29.192371" lon="104.636145"><ele>449.56354</ele><time>2026-03-07T22:23:28.000Z</time></trkpt>
        <trkpt lat="29.192406" lon="104.636107"><ele>448.532</ele><time>2026-03-07T22:23:33.000Z</time></trkpt>
        <trkpt lat="29.192372" lon="104.636141"><ele>449.0233</ele><time>2026-03-07T22:23:55.000Z</time></trkpt>
        <trkpt lat="29.192332" lon="104.636183"><ele>449.8679</ele><time>2026-03-07T22:24:00.000Z</time></trkpt>
        <trkpt lat="29.19229" lon="104.636206"><ele>449.73114</ele><time>2026-03-07T22:24:07.000Z</time></trkpt>
        <trkpt lat="29.192245" lon="104.636231"><ele>447.22525</ele><time>2026-03-07T22:24:22.000Z</time></trkpt>
        <trkpt lat="29.192196" lon="104.636243"><ele>447.07162</ele><time>2026-03-07T22:24:29.000Z</time></trkpt>
        <trkpt lat="29.192158" lon="104.636288"><ele>447.23523</ele><time>2026-03-07T22:24:35.000Z</time></trkpt>
        <trkpt lat="29.192115" lon="104.636324"><ele>445.4775</ele><time>2026-03-07T22:24:43.000Z</time></trkpt>
        <trkpt lat="29.192076" lon="104.636351"><ele>443.57974</ele><time>2026-03-07T22:24:48.000Z</time></trkpt>
        <trkpt lat="29.19204" lon="104.636388"><ele>443.4464</ele><time>2026-03-07T22:24:53.000Z</time></trkpt>
        <trkpt lat="29.192024" lon="104.636338"><ele>445.80237</ele><time>2026-03-07T22:25:10.000Z</time></trkpt>
        <trkpt lat="29.191983" lon="104.636368"><ele>445.64224</ele><time>2026-03-07T22:25:20.000Z</time></trkpt>
        <trkpt lat="29.191982" lon="104.636314"><ele>444.77148</ele><time>2026-03-07T22:28:13.000Z</time></trkpt>
        <trkpt lat="29.191978" lon="104.636372"><ele>448.88593</ele><time>2026-03-07T22:28:39.000Z</time></trkpt>
        <trkpt lat="29.191933" lon="104.636376"><ele>446.49792</ele><time>2026-03-07T22:29:10.000Z</time></trkpt>
        <trkpt lat="29.191891" lon="104.636401"><ele>443.5016</ele><time>2026-03-07T22:29:19.000Z</time></trkpt>
        <trkpt lat="29.191853" lon="104.636436"><ele>439.86133</ele><time>2026-03-07T22:29:28.000Z</time></trkpt>
        <trkpt lat="29.191863" lon="104.636383"><ele>438.3631</ele><time>2026-03-07T22:29:41.000Z</time></trkpt>
        <trkpt lat="29.191825" lon="104.636413"><ele>436.0316</ele><time>2026-03-07T22:29:48.000Z</time></trkpt>
        <trkpt lat="29.191769" lon="104.636437"><ele>434.12665</ele><time>2026-03-07T22:29:56.000Z</time></trkpt>
        <trkpt lat="29.191713" lon="104.636455"><ele>433.58112</ele><time>2026-03-07T22:30:02.000Z</time></trkpt>
        <trkpt lat="29.191664" lon="104.636463"><ele>433.66977</ele><time>2026-03-07T22:30:06.000Z</time></trkpt>
        <trkpt lat="29.191618" lon="104.636476"><ele>434.02878</ele><time>2026-03-07T22:30:10.000Z</time></trkpt>
        <trkpt lat="29.191584" lon="104.63644"><ele>430.3735</ele><time>2026-03-07T22:30:29.000Z</time></trkpt>
        <trkpt lat="29.19155" lon="104.63648"><ele>428.69925</ele><time>2026-03-07T22:30:53.000Z</time></trkpt>
        <trkpt lat="29.191496" lon="104.636477"><ele>429.35498</ele><time>2026-03-07T22:31:04.000Z</time></trkpt>
        <trkpt lat="29.191446" lon="104.636495"><ele>429.52817</ele><time>2026-03-07T22:31:10.000Z</time></trkpt>
        <trkpt lat="29.191406" lon="104.636524"><ele>432.9829</ele><time>2026-03-07T22:31:19.000Z</time></trkpt>
        <trkpt lat="29.191361" lon="104.63653"><ele>435.02933</ele><time>2026-03-07T22:31:27.000Z</time></trkpt>
        <trkpt lat="29.191308" lon="104.636531"><ele>437.68463</ele><time>2026-03-07T22:31:35.000Z</time></trkpt>
        <trkpt lat="29.191279" lon="104.636485"><ele>435.6221</ele><time>2026-03-07T22:31:49.000Z</time></trkpt>
        <trkpt lat="29.191236" lon="104.636501"><ele>440.55225</ele><time>2026-03-07T22:32:35.000Z</time></trkpt>
        <trkpt lat="29.19119" lon="104.636515"><ele>443.96225</ele><time>2026-03-07T22:32:45.000Z</time></trkpt>
        <trkpt lat="29.191146" lon="104.63654"><ele>449.2068</ele><time>2026-03-07T22:32:57.000Z</time></trkpt>
        <trkpt lat="29.191102" lon="104.636524"><ele>448.7098</ele><time>2026-03-07T22:33:06.000Z</time></trkpt>
        <trkpt lat="29.191055" lon="104.636499"><ele>458.7426</ele><time>2026-03-07T22:33:36.000Z</time></trkpt>
        <trkpt lat="29.191009" lon="104.636502"><ele>459.3165</ele><time>2026-03-07T22:33:43.000Z</time></trkpt>
        <trkpt lat="29.190956" lon="104.636477"><ele>460.259</ele><time>2026-03-07T22:33:48.000Z</time></trkpt>
        <trkpt lat="29.19091" lon="104.636481"><ele>462.0392</ele><time>2026-03-07T22:33:55.000Z</time></trkpt>
        <trkpt lat="29.190873" lon="104.63645"><ele>465.9545</ele><time>2026-03-07T22:34:39.000Z</time></trkpt>
        <trkpt lat="29.190851" lon="104.636404"><ele>462.9289</ele><time>2026-03-07T22:35:18.000Z</time></trkpt>
        <trkpt lat="29.190834" lon="104.636352"><ele>462.97574</ele><time>2026-03-07T22:35:29.000Z</time></trkpt>
        <trkpt lat="29.190789" lon="104.636339"><ele>450.3024</ele><time>2026-03-07T22:36:40.000Z</time></trkpt>
        <trkpt lat="29.190777" lon="104.636289"><ele>449.8711</ele><time>2026-03-07T22:36:51.000Z</time></trkpt>
        <trkpt lat="29.190735" lon="104.636268"><ele>449.13428</ele><time>2026-03-07T22:36:58.000Z</time></trkpt>
        <trkpt lat="29.19069" lon="104.636286"><ele>451.868</ele><time>2026-03-07T22:37:11.000Z</time></trkpt>
        <trkpt lat="29.190662" lon="104.636233"><ele>449.93195</ele><time>2026-03-07T22:37:51.000Z</time></trkpt>
        <trkpt lat="29.190625" lon="104.636188"><ele>449.49335</ele><time>2026-03-07T22:38:00.000Z</time></trkpt>
        <trkpt lat="29.190586" lon="104.636152"><ele>449.40305</ele><time>2026-03-07T22:38:07.000Z</time></trkpt>
        <trkpt lat="29.19054" lon="104.63612"><ele>445.57632</ele><time>2026-03-07T22:38:21.000Z</time></trkpt>
        <trkpt lat="29.1905" lon="104.636078"><ele>445.74872</ele><time>2026-03-07T22:38:26.000Z</time></trkpt>
        <trkpt lat="29.190457" lon="104.636048"><ele>446.43863</ele><time>2026-03-07T22:38:30.000Z</time></trkpt>
        <trkpt lat="29.190417" lon="104.636015"><ele>446.50797</ele><time>2026-03-07T22:38:34.000Z</time></trkpt>
        <trkpt lat="29.190374" lon="104.635988"><ele>445.78925</ele><time>2026-03-07T22:38:38.000Z</time></trkpt>
        <trkpt lat="29.190323" lon="104.635978"><ele>445.76608</ele><time>2026-03-07T22:38:42.000Z</time></trkpt>
        <trkpt lat="29.190276" lon="104.635976"><ele>444.5414</ele><time>2026-03-07T22:38:46.000Z</time></trkpt>
        <trkpt lat="29.190234" lon="104.635996"><ele>442.6046</ele><time>2026-03-07T22:38:50.000Z</time></trkpt>
        <trkpt lat="29.190199" lon="104.636028"><ele>441.79898</ele><time>2026-03-07T22:38:54.000Z</time></trkpt>
        <trkpt lat="29.190146" lon="104.636021"><ele>440.62518</ele><time>2026-03-07T22:39:00.000Z</time></trkpt>
        <trkpt lat="29.1901" lon="104.636024"><ele>439.89514</ele><time>2026-03-07T22:39:05.000Z</time></trkpt>
        <trkpt lat="29.190055" lon="104.636"><ele>439.42865</ele><time>2026-03-07T22:39:11.000Z</time></trkpt>
        <trkpt lat="29.19001" lon="104.636034"><ele>438.11954</ele><time>2026-03-07T22:39:16.000Z</time></trkpt>
        <trkpt lat="29.189974" lon="104.636069"><ele>432.56427</ele><time>2026-03-07T22:39:30.000Z</time></trkpt>
        <trkpt lat="29.189946" lon="104.636112"><ele>432.28427</ele><time>2026-03-07T22:39:38.000Z</time></trkpt>
        <trkpt lat="29.18989" lon="104.636129"><ele>432.57303</ele><time>2026-03-07T22:39:43.000Z</time></trkpt>
        <trkpt lat="29.189834" lon="104.636116"><ele>432.12674</ele><time>2026-03-07T22:39:48.000Z</time></trkpt>
        <trkpt lat="29.189781" lon="104.636137"><ele>433.93488</ele><time>2026-03-07T22:39:53.000Z</time></trkpt>
        <trkpt lat="29.189741" lon="104.636103"><ele>435.1651</ele><time>2026-03-07T22:40:10.000Z</time></trkpt>
        <trkpt lat="29.189707" lon="104.63614"><ele>435.5997</ele><time>2026-03-07T22:40:17.000Z</time></trkpt>
        <trkpt lat="29.189656" lon="104.63617"><ele>437.20297</ele><time>2026-03-07T22:40:22.000Z</time></trkpt>
        <trkpt lat="29.189633" lon="104.636219"><ele>436.42682</ele><time>2026-03-07T22:40:26.000Z</time></trkpt>
        <trkpt lat="29.1896" lon="104.63627"><ele>435.96667</ele><time>2026-03-07T22:40:30.000Z</time></trkpt>
        <trkpt lat="29.189579" lon="104.636317"><ele>436.19897</ele><time>2026-03-07T22:40:37.000Z</time></trkpt>
        <trkpt lat="29.189548" lon="104.636357"><ele>433.89957</ele><time>2026-03-07T22:40:50.000Z</time></trkpt>
        <trkpt lat="29.189497" lon="104.636368"><ele>432.9339</ele><time>2026-03-07T22:40:55.000Z</time></trkpt>
        <trkpt lat="29.189452" lon="104.636392"><ele>433.24243</ele><time>2026-03-07T22:41:00.000Z</time></trkpt>
        <trkpt lat="29.189413" lon="104.636431"><ele>433.76807</ele><time>2026-03-07T22:41:04.000Z</time></trkpt>
        <trkpt lat="29.189379" lon="104.636471"><ele>433.92017</ele><time>2026-03-07T22:41:08.000Z</time></trkpt>
        <trkpt lat="29.189325" lon="104.636461"><ele>433.92102</ele><time>2026-03-07T22:41:13.000Z</time></trkpt>
        <trkpt lat="29.189277" lon="104.636466"><ele>434.8277</ele><time>2026-03-07T22:41:17.000Z</time></trkpt>
        <trkpt lat="29.189229" lon="104.636464"><ele>435.29477</ele><time>2026-03-07T22:41:21.000Z</time></trkpt>
        <trkpt lat="29.189176" lon="104.636483"><ele>433.88312</ele><time>2026-03-07T22:41:26.000Z</time></trkpt>
        <trkpt lat="29.189137" lon="104.636519"><ele>434.43942</ele><time>2026-03-07T22:41:30.000Z</time></trkpt>
        <trkpt lat="29.189092" lon="104.636545"><ele>434.69543</ele><time>2026-03-07T22:41:34.000Z</time></trkpt>
        <trkpt lat="29.189041" lon="104.636542"><ele>434.87234</ele><time>2026-03-07T22:41:39.000Z</time></trkpt>
        <trkpt lat="29.189012" lon="104.636499"><ele>435.80408</ele><time>2026-03-07T22:41:44.000Z</time></trkpt>
        <trkpt lat="29.18897" lon="104.636474"><ele>437.4802</ele><time>2026-03-07T22:41:48.000Z</time></trkpt>
        <trkpt lat="29.188915" lon="104.636448"><ele>437.39783</ele><time>2026-03-07T22:41:52.000Z</time></trkpt>
        <trkpt lat="29.188868" lon="104.636462"><ele>437.9648</ele><time>2026-03-07T22:41:56.000Z</time></trkpt>
        <trkpt lat="29.188813" lon="104.636493"><ele>437.93347</ele><time>2026-03-07T22:42:00.000Z</time></trkpt>
        <trkpt lat="29.188772" lon="104.636517"><ele>438.56958</ele><time>2026-03-07T22:42:03.000Z</time></trkpt>
        <trkpt lat="29.188719" lon="104.636502"><ele>438.66022</ele><time>2026-03-07T22:42:07.000Z</time></trkpt>
        <trkpt lat="29.188686" lon="104.636465"><ele>436.67307</ele><time>2026-03-07T22:42:10.000Z</time></trkpt>
        <trkpt lat="29.188656" lon="104.636427"><ele>436.65585</ele><time>2026-03-07T22:42:13.000Z</time></trkpt>
        <trkpt lat="29.188612" lon="104.636398"><ele>435.18512</ele><time>2026-03-07T22:42:17.000Z</time></trkpt>
        <trkpt lat="29.188557" lon="104.636391"><ele>437.20087</ele><time>2026-03-07T22:42:21.000Z</time></trkpt>
        <trkpt lat="29.188508" lon="104.636377"><ele>437.65015</ele><time>2026-03-07T22:42:25.000Z</time></trkpt>
        <trkpt lat="29.188463" lon="104.636354"><ele>438.08823</ele><time>2026-03-07T22:42:30.000Z</time></trkpt>
        <trkpt lat="29.188416" lon="104.636352"><ele>437.90805</ele><time>2026-03-07T22:42:34.000Z</time></trkpt>
        <trkpt lat="29.188362" lon="104.63636"><ele>435.44485</ele><time>2026-03-07T22:42:40.000Z</time></trkpt>
        <trkpt lat="29.188332" lon="104.636404"><ele>436.18918</ele><time>2026-03-07T22:43:10.000Z</time></trkpt>
        <trkpt lat="29.188287" lon="104.636373"><ele>433.232</ele><time>2026-03-07T22:43:16.000Z</time></trkpt>
        <trkpt lat="29.188239" lon="104.636347"><ele>432.28476</ele><time>2026-03-07T22:43:21.000Z</time></trkpt>
        <trkpt lat="29.188192" lon="104.636328"><ele>432.65125</ele><time>2026-03-07T22:43:26.000Z</time></trkpt>
        <trkpt lat="29.188139" lon="104.636316"><ele>432.54028</ele><time>2026-03-07T22:43:31.000Z</time></trkpt>
        <trkpt lat="29.18809" lon="104.636285"><ele>431.0415</ele><time>2026-03-07T22:43:36.000Z</time></trkpt>
        <trkpt lat="29.188043" lon="104.636258"><ele>430.56735</ele><time>2026-03-07T22:43:40.000Z</time></trkpt>
        <trkpt lat="29.188018" lon="104.636205"><ele>431.0104</ele><time>2026-03-07T22:43:43.000Z</time></trkpt>
        <trkpt lat="29.187981" lon="104.636159"><ele>431.7357</ele><time>2026-03-07T22:43:46.000Z</time></trkpt>
        <trkpt lat="29.187946" lon="104.636124"><ele>432.90625</ele><time>2026-03-07T22:43:49.000Z</time></trkpt>
        <trkpt lat="29.187901" lon="104.636083"><ele>435.1099</ele><time>2026-03-07T22:43:53.000Z</time></trkpt>
        <trkpt lat="29.187865" lon="104.636053"><ele>435.00778</ele><time>2026-03-07T22:43:58.000Z</time></trkpt>
        <trkpt lat="29.187849" lon="104.635991"><ele>433.23883</ele><time>2026-03-07T22:44:04.000Z</time></trkpt>
        <trkpt lat="29.187859" lon="104.636062"><ele>433.5506</ele><time>2026-03-07T22:44:13.000Z</time></trkpt>
        <trkpt lat="29.187832" lon="104.636108"><ele>433.9107</ele><time>2026-03-07T22:44:17.000Z</time></trkpt>
        <trkpt lat="29.18779" lon="104.636136"><ele>435.12558</ele><time>2026-03-07T22:44:21.000Z</time></trkpt>
        <trkpt lat="29.187756" lon="104.636171"><ele>435.9416</ele><time>2026-03-07T22:44:24.000Z</time></trkpt>
        <trkpt lat="29.187719" lon="104.636208"><ele>432.8909</ele><time>2026-03-07T22:44:28.000Z</time></trkpt>
        <trkpt lat="29.187685" lon="104.636246"><ele>430.6608</ele><time>2026-03-07T22:44:33.000Z</time></trkpt>
        <trkpt lat="29.187645" lon="104.636287"><ele>430.42065</ele><time>2026-03-07T22:44:37.000Z</time></trkpt>
        <trkpt lat="29.187612" lon="104.63634"><ele>430.4338</ele><time>2026-03-07T22:44:41.000Z</time></trkpt>
        <trkpt lat="29.187564" lon="104.63636"><ele>429.35587</ele><time>2026-03-07T22:44:45.000Z</time></trkpt>
        <trkpt lat="29.187522" lon="104.636385"><ele>431.04</ele><time>2026-03-07T22:44:49.000Z</time></trkpt>
        <trkpt lat="29.187495" lon="104.636435"><ele>432.67596</ele><time>2026-03-07T22:44:53.000Z</time></trkpt>
        <trkpt lat="29.187474" lon="104.636488"><ele>432.56226</ele><time>2026-03-07T22:44:57.000Z</time></trkpt>
        <trkpt lat="29.18743" lon="104.636519"><ele>432.6847</ele><time>2026-03-07T22:45:02.000Z</time></trkpt>
        <trkpt lat="29.187393" lon="104.636555"><ele>435.1645</ele><time>2026-03-07T22:45:09.000Z</time></trkpt>
        <trkpt lat="29.187344" lon="104.636573"><ele>436.42386</ele><time>2026-03-07T22:45:13.000Z</time></trkpt>
        <trkpt lat="29.187292" lon="104.636571"><ele>437.7161</ele><time>2026-03-07T22:45:17.000Z</time></trkpt>
        <trkpt lat="29.187245" lon="104.636559"><ele>438.66736</ele><time>2026-03-07T22:45:20.000Z</time></trkpt>
        <trkpt lat="29.187198" lon="104.636553"><ele>437.5628</ele><time>2026-03-07T22:45:24.000Z</time></trkpt>
        <trkpt lat="29.187142" lon="104.636549"><ele>436.89905</ele><time>2026-03-07T22:45:29.000Z</time></trkpt>
        <trkpt lat="29.18708" lon="104.636571"><ele>437.45828</ele><time>2026-03-07T22:45:34.000Z</time></trkpt>
        <trkpt lat="29.18704" lon="104.636597"><ele>438.36252</ele><time>2026-03-07T22:45:38.000Z</time></trkpt>
        <trkpt lat="29.186996" lon="104.636622"><ele>438.54205</ele><time>2026-03-07T22:45:43.000Z</time></trkpt>
        <trkpt lat="29.186974" lon="104.63667"><ele>437.7253</ele><time>2026-03-07T22:45:47.000Z</time></trkpt>
        <trkpt lat="29.186985" lon="104.636722"><ele>434.14667</ele><time>2026-03-07T22:45:51.000Z</time></trkpt>
        <trkpt lat="29.186989" lon="104.636775"><ele>430.68842</ele><time>2026-03-07T22:45:55.000Z</time></trkpt>
        <trkpt lat="29.186998" lon="104.636834"><ele>428.4898</ele><time>2026-03-07T22:46:00.000Z</time></trkpt>
        <trkpt lat="29.186995" lon="104.636885"><ele>427.86096</ele><time>2026-03-07T22:46:04.000Z</time></trkpt>
        <trkpt lat="29.186988" lon="104.636938"><ele>427.70352</ele><time>2026-03-07T22:46:08.000Z</time></trkpt>
        <trkpt lat="29.186998" lon="104.636998"><ele>426.56927</ele><time>2026-03-07T22:46:14.000Z</time></trkpt>
        <trkpt lat="29.187008" lon="104.637049"><ele>425.1958</ele><time>2026-03-07T22:46:21.000Z</time></trkpt>
        <trkpt lat="29.187014" lon="104.637108"><ele>422.33914</ele><time>2026-03-07T22:46:36.000Z</time></trkpt>
        <trkpt lat="29.187027" lon="104.637164"><ele>421.9175</ele><time>2026-03-07T22:46:42.000Z</time></trkpt>
        <trkpt lat="29.187022" lon="104.63722"><ele>412.56216</ele><time>2026-03-07T22:46:49.000Z</time></trkpt>
        <trkpt lat="29.187029" lon="104.637272"><ele>411.80383</ele><time>2026-03-07T22:46:59.000Z</time></trkpt>
        <trkpt lat="29.187048" lon="104.637324"><ele>411.9579</ele><time>2026-03-07T22:47:08.000Z</time></trkpt>
        <trkpt lat="29.187048" lon="104.637381"><ele>412.0681</ele><time>2026-03-07T22:47:13.000Z</time></trkpt>
        <trkpt lat="29.187052" lon="104.637437"><ele>412.78217</ele><time>2026-03-07T22:47:18.000Z</time></trkpt>
        <trkpt lat="29.187047" lon="104.637501"><ele>413.11038</ele><time>2026-03-07T22:47:25.000Z</time></trkpt>
        <trkpt lat="29.187045" lon="104.637556"><ele>412.5898</ele><time>2026-03-07T22:47:31.000Z</time></trkpt>
        <trkpt lat="29.187026" lon="104.637603"><ele>413.1714</ele><time>2026-03-07T22:47:36.000Z</time></trkpt>
        <trkpt lat="29.187026" lon="104.637661"><ele>412.7321</ele><time>2026-03-07T22:47:42.000Z</time></trkpt>
        <trkpt lat="29.187037" lon="104.637719"><ele>412.56418</ele><time>2026-03-07T22:47:48.000Z</time></trkpt>
        <trkpt lat="29.187028" lon="104.637772"><ele>412.92807</ele><time>2026-03-07T22:47:54.000Z</time></trkpt>
        <trkpt lat="29.187013" lon="104.637827"><ele>412.62006</ele><time>2026-03-07T22:48:03.000Z</time></trkpt>
        <trkpt lat="29.187009" lon="104.637878"><ele>414.14</ele><time>2026-03-07T22:48:08.000Z</time></trkpt>
        <trkpt lat="29.186992" lon="104.637926"><ele>414.94867</ele><time>2026-03-07T22:48:14.000Z</time></trkpt>
        <trkpt lat="29.186964" lon="104.637972"><ele>415.30685</ele><time>2026-03-07T22:48:19.000Z</time></trkpt>
        <trkpt lat="29.186939" lon="104.638022"><ele>416.4828</ele><time>2026-03-07T22:48:24.000Z</time></trkpt>
        <trkpt lat="29.186908" lon="104.638081"><ele>417.20547</ele><time>2026-03-07T22:48:30.000Z</time></trkpt>
        <trkpt lat="29.186867" lon="104.638114"><ele>418.62442</ele><time>2026-03-07T22:48:35.000Z</time></trkpt>
        <trkpt lat="29.186826" lon="104.638147"><ele>418.95477</ele><time>2026-03-07T22:48:39.000Z</time></trkpt>
        <trkpt lat="29.186786" lon="104.63818"><ele>420.07602</ele><time>2026-03-07T22:48:47.000Z</time></trkpt>
        <trkpt lat="29.186738" lon="104.638191"><ele>421.62634</ele><time>2026-03-07T22:48:54.000Z</time></trkpt>
        <trkpt lat="29.186709" lon="104.638233"><ele>422.32062</ele><time>2026-03-07T22:49:00.000Z</time></trkpt>
        <trkpt lat="29.186674" lon="104.638269"><ele>423.1279</ele><time>2026-03-07T22:49:05.000Z</time></trkpt>
        <trkpt lat="29.186657" lon="104.63832"><ele>422.89572</ele><time>2026-03-07T22:49:10.000Z</time></trkpt>
        <trkpt lat="29.186655" lon="104.63838"><ele>422.65558</ele><time>2026-03-07T22:49:17.000Z</time></trkpt>
        <trkpt lat="29.186649" lon="104.638436"><ele>423.05942</ele><time>2026-03-07T22:49:22.000Z</time></trkpt>
        <trkpt lat="29.186664" lon="104.638484"><ele>423.4804</ele><time>2026-03-07T22:49:29.000Z</time></trkpt>
        <trkpt lat="29.186678" lon="104.638542"><ele>423.47092</ele><time>2026-03-07T22:49:35.000Z</time></trkpt>
        <trkpt lat="29.186669" lon="104.638602"><ele>424.28647</ele><time>2026-03-07T22:49:40.000Z</time></trkpt>
        <trkpt lat="29.186681" lon="104.638657"><ele>425.48102</ele><time>2026-03-07T22:49:46.000Z</time></trkpt>
        <trkpt lat="29.186669" lon="104.638708"><ele>426.0681</ele><time>2026-03-07T22:49:53.000Z</time></trkpt>
        <trkpt lat="29.186651" lon="104.638757"><ele>427.19708</ele><time>2026-03-07T22:49:58.000Z</time></trkpt>
        <trkpt lat="29.186631" lon="104.638804"><ele>428.66364</ele><time>2026-03-07T22:50:04.000Z</time></trkpt>
        <trkpt lat="29.186604" lon="104.63885"><ele>428.27554</ele><time>2026-03-07T22:50:10.000Z</time></trkpt>
        <trkpt lat="29.186583" lon="104.638901"><ele>429.72098</ele><time>2026-03-07T22:50:17.000Z</time></trkpt>
        <trkpt lat="29.186557" lon="104.63895"><ele>429.8947</ele><time>2026-03-07T22:50:24.000Z</time></trkpt>
        <trkpt lat="29.186528" lon="104.638992"><ele>429.89322</ele><time>2026-03-07T22:50:29.000Z</time></trkpt>
        <trkpt lat="29.186502" lon="104.639044"><ele>430.20728</ele><time>2026-03-07T22:50:36.000Z</time></trkpt>
        <trkpt lat="29.18649" lon="104.639094"><ele>431.1086</ele><time>2026-03-07T22:50:42.000Z</time></trkpt>
        <trkpt lat="29.186464" lon="104.639137"><ele>430.81207</ele><time>2026-03-07T22:50:47.000Z</time></trkpt>
        <trkpt lat="29.18644" lon="104.639181"><ele>430.16687</ele><time>2026-03-07T22:50:53.000Z</time></trkpt>
        <trkpt lat="29.18641" lon="104.639234"><ele>431.5002</ele><time>2026-03-07T22:50:59.000Z</time></trkpt>
        <trkpt lat="29.186383" lon="104.639281"><ele>431.59424</ele><time>2026-03-07T22:51:05.000Z</time></trkpt>
        <trkpt lat="29.186409" lon="104.639226"><ele>430.07532</ele><time>2026-03-07T22:51:28.000Z</time></trkpt>
        <trkpt lat="29.186435" lon="104.639177"><ele>429.9889</ele><time>2026-03-07T22:51:32.000Z</time></trkpt>
        <trkpt lat="29.186452" lon="104.639129"><ele>429.49692</ele><time>2026-03-07T22:51:37.000Z</time></trkpt>
        <trkpt lat="29.186484" lon="104.639077"><ele>430.1271</ele><time>2026-03-07T22:51:42.000Z</time></trkpt>
        <trkpt lat="29.186513" lon="104.639026"><ele>429.76877</ele><time>2026-03-07T22:51:46.000Z</time></trkpt>
        <trkpt lat="29.186536" lon="104.638976"><ele>429.1723</ele><time>2026-03-07T22:51:50.000Z</time></trkpt>
        <trkpt lat="29.186558" lon="104.638925"><ele>428.2636</ele><time>2026-03-07T22:51:55.000Z</time></trkpt>
        <trkpt lat="29.186582" lon="104.638877"><ele>427.853</ele><time>2026-03-07T22:51:59.000Z</time></trkpt>
        <trkpt lat="29.186611" lon="104.638837"><ele>427.6672</ele><time>2026-03-07T22:52:03.000Z</time></trkpt>
        <trkpt lat="29.186641" lon="104.638786"><ele>427.34198</ele><time>2026-03-07T22:52:07.000Z</time></trkpt>
        <trkpt lat="29.186661" lon="104.638739"><ele>427.2784</ele><time>2026-03-07T22:52:12.000Z</time></trkpt>
        <trkpt lat="29.186681" lon="104.638689"><ele>426.6835</ele><time>2026-03-07T22:52:16.000Z</time></trkpt>
        <trkpt lat="29.18669" lon="104.638639"><ele>426.28412</ele><time>2026-03-07T22:52:20.000Z</time></trkpt>
        <trkpt lat="29.186686" lon="104.638583"><ele>425.83426</ele><time>2026-03-07T22:52:24.000Z</time></trkpt>
        <trkpt lat="29.186675" lon="104.638529"><ele>425.99524</ele><time>2026-03-07T22:52:28.000Z</time></trkpt>
        <trkpt lat="29.186666" lon="104.638471"><ele>425.4169</ele><time>2026-03-07T22:52:33.000Z</time></trkpt>
        <trkpt lat="29.186656" lon="104.638413"><ele>424.7226</ele><time>2026-03-07T22:52:38.000Z</time></trkpt>
        <trkpt lat="29.186655" lon="104.638361"><ele>424.19168</ele><time>2026-03-07T22:52:41.000Z</time></trkpt>
        <trkpt lat="29.186646" lon="104.638306"><ele>423.85657</ele><time>2026-03-07T22:52:45.000Z</time></trkpt>
        <trkpt lat="29.186625" lon="104.63826"><ele>424.20532</ele><time>2026-03-07T22:52:49.000Z</time></trkpt>
        <trkpt lat="29.186581" lon="104.63823"><ele>424.31155</ele><time>2026-03-07T22:52:53.000Z</time></trkpt>
        <trkpt lat="29.186535" lon="104.638227"><ele>424.95944</ele><time>2026-03-07T22:52:57.000Z</time></trkpt>
        <trkpt lat="29.186484" lon="104.638243"><ele>425.40475</ele><time>2026-03-07T22:53:01.000Z</time></trkpt>
        <trkpt lat="29.186432" lon="104.638245"><ele>425.79123</ele><time>2026-03-07T22:53:06.000Z</time></trkpt>
        <trkpt lat="29.18638" lon="104.638239"><ele>425.70914</ele><time>2026-03-07T22:53:11.000Z</time></trkpt>
        <trkpt lat="29.186333" lon="104.638248"><ele>426.901</ele><time>2026-03-07T22:53:29.000Z</time></trkpt>
        <trkpt lat="29.186275" lon="104.638236"><ele>426.34506</ele><time>2026-03-07T22:53:35.000Z</time></trkpt>
        <trkpt lat="29.186224" lon="104.638229"><ele>426.9632</ele><time>2026-03-07T22:53:43.000Z</time></trkpt>
        <trkpt lat="29.186177" lon="104.638221"><ele>426.6497</ele><time>2026-03-07T22:53:48.000Z</time></trkpt>
        <trkpt lat="29.186131" lon="104.638223"><ele>426.9473</ele><time>2026-03-07T22:53:53.000Z</time></trkpt>
        <trkpt lat="29.18608" lon="104.638215"><ele>427.51865</ele><time>2026-03-07T22:53:59.000Z</time></trkpt>
        <trkpt lat="29.186032" lon="104.638204"><ele>427.91592</ele><time>2026-03-07T22:54:04.000Z</time></trkpt>
        <trkpt lat="29.185979" lon="104.638199"><ele>428.24487</ele><time>2026-03-07T22:54:09.000Z</time></trkpt>
        <trkpt lat="29.185931" lon="104.638184"><ele>428.7591</ele><time>2026-03-07T22:54:14.000Z</time></trkpt>
        <trkpt lat="29.185876" lon="104.638164"><ele>429.03055</ele><time>2026-03-07T22:54:20.000Z</time></trkpt>
        <trkpt lat="29.185834" lon="104.63814"><ele>428.34595</ele><time>2026-03-07T22:54:25.000Z</time></trkpt>
        <trkpt lat="29.185795" lon="104.638099"><ele>427.81348</ele><time>2026-03-07T22:54:31.000Z</time></trkpt>
        <trkpt lat="29.185767" lon="104.638053"><ele>426.9592</ele><time>2026-03-07T22:54:36.000Z</time></trkpt>
        <trkpt lat="29.185756" lon="104.637999"><ele>426.2357</ele><time>2026-03-07T22:54:40.000Z</time></trkpt>
        <trkpt lat="29.185757" lon="104.63794"><ele>425.9856</ele><time>2026-03-07T22:54:45.000Z</time></trkpt>
        <trkpt lat="29.185714" lon="104.637922"><ele>425.41388</ele><time>2026-03-07T22:55:02.000Z</time></trkpt>
        <trkpt lat="29.185662" lon="104.637916"><ele>425.21515</ele><time>2026-03-07T22:55:07.000Z</time></trkpt>
        <trkpt lat="29.185603" lon="104.637915"><ele>426.02173</ele><time>2026-03-07T22:55:12.000Z</time></trkpt>
        <trkpt lat="29.185556" lon="104.637909"><ele>423.62607</ele><time>2026-03-07T22:55:23.000Z</time></trkpt>
        <trkpt lat="29.185512" lon="104.637892"><ele>422.33353</ele><time>2026-03-07T22:55:27.000Z</time></trkpt>
        <trkpt lat="29.185458" lon="104.637878"><ele>422.91473</ele><time>2026-03-07T22:55:32.000Z</time></trkpt>
        <trkpt lat="29.185414" lon="104.637864"><ele>422.43356</ele><time>2026-03-07T22:55:36.000Z</time></trkpt>
        <trkpt lat="29.185362" lon="104.637845"><ele>423.32495</ele><time>2026-03-07T22:55:41.000Z</time></trkpt>
        <trkpt lat="29.185312" lon="104.637829"><ele>423.57007</ele><time>2026-03-07T22:55:46.000Z</time></trkpt>
        <trkpt lat="29.18528" lon="104.637786"><ele>424.12146</ele><time>2026-03-07T22:55:51.000Z</time></trkpt>
        <trkpt lat="29.185256" lon="104.637734"><ele>423.27313</ele><time>2026-03-07T22:55:56.000Z</time></trkpt>
        <trkpt lat="29.185214" lon="104.637707"><ele>423.54276</ele><time>2026-03-07T22:56:01.000Z</time></trkpt>
        <trkpt lat="29.185213" lon="104.637654"><ele>423.3827</ele><time>2026-03-07T22:56:06.000Z</time></trkpt>
        <trkpt lat="29.18522" lon="104.637591"><ele>422.8941</ele><time>2026-03-07T22:56:11.000Z</time></trkpt>
        <trkpt lat="29.185215" lon="104.637537"><ele>422.59064</ele><time>2026-03-07T22:56:15.000Z</time></trkpt>
        <trkpt lat="29.1852" lon="104.637482"><ele>422.7343</ele><time>2026-03-07T22:56:19.000Z</time></trkpt>
        <trkpt lat="29.185189" lon="104.637429"><ele>422.50806</ele><time>2026-03-07T22:56:24.000Z</time></trkpt>
        <trkpt lat="29.185171" lon="104.637372"><ele>423.15625</ele><time>2026-03-07T22:56:29.000Z</time></trkpt>
        <trkpt lat="29.185158" lon="104.637318"><ele>423.24588</ele><time>2026-03-07T22:56:33.000Z</time></trkpt>
        <trkpt lat="29.185135" lon="104.637261"><ele>423.60272</ele><time>2026-03-07T22:56:38.000Z</time></trkpt>
        <trkpt lat="29.185119" lon="104.637207"><ele>423.6024</ele><time>2026-03-07T22:56:41.000Z</time></trkpt>
        <trkpt lat="29.185126" lon="104.637145"><ele>423.49774</ele><time>2026-03-07T22:56:47.000Z</time></trkpt>
        <trkpt lat="29.185121" lon="104.637078"><ele>422.41263</ele><time>2026-03-07T22:56:53.000Z</time></trkpt>
        <trkpt lat="29.185103" lon="104.637025"><ele>421.40366</ele><time>2026-03-07T22:56:58.000Z</time></trkpt>
        <trkpt lat="29.185104" lon="104.636971"><ele>420.81622</ele><time>2026-03-07T22:57:02.000Z</time></trkpt>
        <trkpt lat="29.185087" lon="104.63691"><ele>419.3483</ele><time>2026-03-07T22:57:09.000Z</time></trkpt>
        <trkpt lat="29.185058" lon="104.636859"><ele>419.3143</ele><time>2026-03-07T22:57:15.000Z</time></trkpt>
        <trkpt lat="29.185029" lon="104.636819"><ele>416.91357</ele><time>2026-03-07T22:57:45.000Z</time></trkpt>
        <trkpt lat="29.184977" lon="104.636856"><ele>416.79044</ele><time>2026-03-07T22:58:18.000Z</time></trkpt>
        <trkpt lat="29.184926" lon="104.636825"><ele>417.52652</ele><time>2026-03-07T22:58:26.000Z</time></trkpt>
        <trkpt lat="29.184879" lon="104.636819"><ele>418.38483</ele><time>2026-03-07T22:58:34.000Z</time></trkpt>
        <trkpt lat="29.184832" lon="104.636797"><ele>417.2677</ele><time>2026-03-07T22:58:39.000Z</time></trkpt>
        <trkpt lat="29.184788" lon="104.636781"><ele>415.42023</ele><time>2026-03-07T22:58:47.000Z</time></trkpt>
        <trkpt lat="29.18475" lon="104.636744"><ele>415.36008</ele><time>2026-03-07T22:58:53.000Z</time></trkpt>
        <trkpt lat="29.184701" lon="104.636715"><ele>415.99048</ele><time>2026-03-07T22:58:58.000Z</time></trkpt>
        <trkpt lat="29.184653" lon="104.636702"><ele>415.4887</ele><time>2026-03-07T22:59:09.000Z</time></trkpt>
        <trkpt lat="29.184596" lon="104.636714"><ele>414.4651</ele><time>2026-03-07T22:59:14.000Z</time></trkpt>
        <trkpt lat="29.184549" lon="104.636736"><ele>413.44006</ele><time>2026-03-07T22:59:24.000Z</time></trkpt>
        <trkpt lat="29.184518" lon="104.636695"><ele>411.4969</ele><time>2026-03-07T22:59:51.000Z</time></trkpt>
        <trkpt lat="29.184479" lon="104.636666"><ele>410.58603</ele><time>2026-03-07T23:00:00.000Z</time></trkpt>
        <trkpt lat="29.184483" lon="104.63672"><ele>410.61087</ele><time>2026-03-07T23:00:47.000Z</time></trkpt>
        <trkpt lat="29.184499" lon="104.636771"><ele>410.71573</ele><time>2026-03-07T23:00:51.000Z</time></trkpt>
        <trkpt lat="29.184499" lon="104.63683"><ele>411.02176</ele><time>2026-03-07T23:00:54.000Z</time></trkpt>
        <trkpt lat="29.184496" lon="104.636889"><ele>410.92676</ele><time>2026-03-07T23:00:58.000Z</time></trkpt>
        <trkpt lat="29.184497" lon="104.63695"><ele>408.96918</ele><time>2026-03-07T23:01:06.000Z</time></trkpt>
        <trkpt lat="29.184499" lon="104.637001"><ele>409.25052</ele><time>2026-03-07T23:01:10.000Z</time></trkpt>
        <trkpt lat="29.184486" lon="104.637057"><ele>409.88065</ele><time>2026-03-07T23:01:15.000Z</time></trkpt>
        <trkpt lat="29.184472" lon="104.637107"><ele>410.64154</ele><time>2026-03-07T23:01:21.000Z</time></trkpt>
        <trkpt lat="29.184461" lon="104.637162"><ele>410.24673</ele><time>2026-03-07T23:01:26.000Z</time></trkpt>
        <trkpt lat="29.184428" lon="104.63721"><ele>410.01724</ele><time>2026-03-07T23:01:30.000Z</time></trkpt>
        <trkpt lat="29.184389" lon="104.637238"><ele>410.24512</ele><time>2026-03-07T23:01:35.000Z</time></trkpt>
        <trkpt lat="29.184363" lon="104.637282"><ele>410.54614</ele><time>2026-03-07T23:01:40.000Z</time></trkpt>
        <trkpt lat="29.184333" lon="104.637328"><ele>410.9101</ele><time>2026-03-07T23:01:44.000Z</time></trkpt>
        <trkpt lat="29.184313" lon="104.637382"><ele>411.41135</ele><time>2026-03-07T23:01:50.000Z</time></trkpt>
        <trkpt lat="29.184266" lon="104.637354"><ele>411.4481</ele><time>2026-03-07T23:02:04.000Z</time></trkpt>
        <trkpt lat="29.184212" lon="104.637355"><ele>410.86917</ele><time>2026-03-07T23:02:08.000Z</time></trkpt>
        <trkpt lat="29.184165" lon="104.637351"><ele>410.5133</ele><time>2026-03-07T23:02:12.000Z</time></trkpt>
        <trkpt lat="29.184124" lon="104.637327"><ele>409.71408</ele><time>2026-03-07T23:02:17.000Z</time></trkpt>
        <trkpt lat="29.184108" lon="104.637273"><ele>408.79526</ele><time>2026-03-07T23:02:23.000Z</time></trkpt>
        <trkpt lat="29.18411" lon="104.637212"><ele>408.40073</ele><time>2026-03-07T23:02:30.000Z</time></trkpt>
        <trkpt lat="29.184124" lon="104.63716"><ele>407.57443</ele><time>2026-03-07T23:02:35.000Z</time></trkpt>
        <trkpt lat="29.184128" lon="104.637099"><ele>407.17148</ele><time>2026-03-07T23:02:39.000Z</time></trkpt>
        <trkpt lat="29.184121" lon="104.637045"><ele>407.20084</ele><time>2026-03-07T23:02:44.000Z</time></trkpt>
        <trkpt lat="29.184087" lon="104.637005"><ele>408.25018</ele><time>2026-03-07T23:02:52.000Z</time></trkpt>
        <trkpt lat="29.184058" lon="104.636956"><ele>408.28745</ele><time>2026-03-07T23:02:58.000Z</time></trkpt>
        <trkpt lat="29.184021" lon="104.636999"><ele>409.53726</ele><time>2026-03-07T23:03:09.000Z</time></trkpt>
        <trkpt lat="29.183984" lon="104.637032"><ele>410.44656</ele><time>2026-03-07T23:03:16.000Z</time></trkpt>
        <trkpt lat="29.183956" lon="104.637083"><ele>411.15323</ele><time>2026-03-07T23:03:24.000Z</time></trkpt>
        <trkpt lat="29.183936" lon="104.637143"><ele>412.74466</ele><time>2026-03-07T23:03:32.000Z</time></trkpt>
        <trkpt lat="29.18389" lon="104.637153"><ele>415.13583</ele><time>2026-03-07T23:03:40.000Z</time></trkpt>
        <trkpt lat="29.183835" lon="104.637155"><ele>415.07602</ele><time>2026-03-07T23:03:47.000Z</time></trkpt>
        <trkpt lat="29.183787" lon="104.637164"><ele>418.18134</ele><time>2026-03-07T23:04:07.000Z</time></trkpt>
        <trkpt lat="29.183735" lon="104.637163"><ele>419.97556</ele><time>2026-03-07T23:04:16.000Z</time></trkpt>
        <trkpt lat="29.183693" lon="104.63719"><ele>420.5476</ele><time>2026-03-07T23:04:20.000Z</time></trkpt>
        <trkpt lat="29.183696" lon="104.637244"><ele>421.04932</ele><time>2026-03-07T23:04:27.000Z</time></trkpt>
        <trkpt lat="29.183713" lon="104.637293"><ele>421.3831</ele><time>2026-03-07T23:04:31.000Z</time></trkpt>
        <trkpt lat="29.183738" lon="104.637347"><ele>421.31992</ele><time>2026-03-07T23:04:36.000Z</time></trkpt>
        <trkpt lat="29.183742" lon="104.6374"><ele>420.44943</ele><time>2026-03-07T23:04:41.000Z</time></trkpt>
        <trkpt lat="29.183755" lon="104.637455"><ele>419.6664</ele><time>2026-03-07T23:04:46.000Z</time></trkpt>
        <trkpt lat="29.183742" lon="104.637516"><ele>420.43896</ele><time>2026-03-07T23:04:51.000Z</time></trkpt>
        <trkpt lat="29.183719" lon="104.637571"><ele>421.6753</ele><time>2026-03-07T23:04:56.000Z</time></trkpt>
        <trkpt lat="29.183699" lon="104.637628"><ele>422.05243</ele><time>2026-03-07T23:05:02.000Z</time></trkpt>
        <trkpt lat="29.18368" lon="104.637679"><ele>423.4136</ele><time>2026-03-07T23:05:06.000Z</time></trkpt>
        <trkpt lat="29.183649" lon="104.637722"><ele>423.3433</ele><time>2026-03-07T23:05:09.000Z</time></trkpt>
        <trkpt lat="29.183628" lon="104.637769"><ele>424.20746</ele><time>2026-03-07T23:05:14.000Z</time></trkpt>
        <trkpt lat="29.183621" lon="104.637831"><ele>424.7981</ele><time>2026-03-07T23:05:19.000Z</time></trkpt>
        <trkpt lat="29.183616" lon="104.637886"><ele>424.86057</ele><time>2026-03-07T23:05:23.000Z</time></trkpt>
        <trkpt lat="29.183605" lon="104.637938"><ele>424.84076</ele><time>2026-03-07T23:05:27.000Z</time></trkpt>
        <trkpt lat="29.183608" lon="104.637992"><ele>425.03342</ele><time>2026-03-07T23:05:31.000Z</time></trkpt>
        <trkpt lat="29.183604" lon="104.638048"><ele>425.75415</ele><time>2026-03-07T23:05:35.000Z</time></trkpt>
        <trkpt lat="29.183589" lon="104.638104"><ele>426.3685</ele><time>2026-03-07T23:05:40.000Z</time></trkpt>
        <trkpt lat="29.183579" lon="104.638166"><ele>427.81412</ele><time>2026-03-07T23:05:45.000Z</time></trkpt>
        <trkpt lat="29.183572" lon="104.638227"><ele>427.76672</ele><time>2026-03-07T23:05:50.000Z</time></trkpt>
        <trkpt lat="29.183569" lon="104.638282"><ele>427.8969</ele><time>2026-03-07T23:05:57.000Z</time></trkpt>
        <trkpt lat="29.183561" lon="104.638344"><ele>428.735</ele><time>2026-03-07T23:06:03.000Z</time></trkpt>
        <trkpt lat="29.183559" lon="104.638395"><ele>429.51443</ele><time>2026-03-07T23:06:08.000Z</time></trkpt>
        <trkpt lat="29.183561" lon="104.638448"><ele>430.3423</ele><time>2026-03-07T23:06:12.000Z</time></trkpt>
        <trkpt lat="29.183549" lon="104.638507"><ele>431.18027</ele><time>2026-03-07T23:06:17.000Z</time></trkpt>
        <trkpt lat="29.183534" lon="104.638557"><ele>431.92944</ele><time>2026-03-07T23:06:22.000Z</time></trkpt>
        <trkpt lat="29.183517" lon="104.638611"><ele>432.60938</ele><time>2026-03-07T23:06:27.000Z</time></trkpt>
        <trkpt lat="29.183491" lon="104.638655"><ele>433.55945</ele><time>2026-03-07T23:06:32.000Z</time></trkpt>
        <trkpt lat="29.183451" lon="104.638694"><ele>434.33298</ele><time>2026-03-07T23:06:37.000Z</time></trkpt>
        <trkpt lat="29.183433" lon="104.638748"><ele>436.46738</ele><time>2026-03-07T23:06:42.000Z</time></trkpt>
        <trkpt lat="29.183415" lon="104.638802"><ele>437.3352</ele><time>2026-03-07T23:06:53.000Z</time></trkpt>
        <trkpt lat="29.183399" lon="104.638859"><ele>437.86246</ele><time>2026-03-07T23:06:58.000Z</time></trkpt>
        <trkpt lat="29.183386" lon="104.63891"><ele>438.15207</ele><time>2026-03-07T23:07:02.000Z</time></trkpt>
        <trkpt lat="29.183385" lon="104.638974"><ele>438.47754</ele><time>2026-03-07T23:07:07.000Z</time></trkpt>
        <trkpt lat="29.183376" lon="104.639035"><ele>439.14343</ele><time>2026-03-07T23:07:12.000Z</time></trkpt>
        <trkpt lat="29.18337" lon="104.639099"><ele>439.74496</ele><time>2026-03-07T23:07:16.000Z</time></trkpt>
        <trkpt lat="29.183395" lon="104.639143"><ele>439.87433</ele><time>2026-03-07T23:07:23.000Z</time></trkpt>
        <trkpt lat="29.183384" lon="104.639196"><ele>440.19193</ele><time>2026-03-07T23:07:27.000Z</time></trkpt>
        <trkpt lat="29.1834" lon="104.639252"><ele>440.89786</ele><time>2026-03-07T23:07:32.000Z</time></trkpt>
        <trkpt lat="29.18344" lon="104.639282"><ele>440.80658</ele><time>2026-03-07T23:07:36.000Z</time></trkpt>
        <trkpt lat="29.183464" lon="104.639331"><ele>440.83755</ele><time>2026-03-07T23:07:41.000Z</time></trkpt>
        <trkpt lat="29.183481" lon="104.639385"><ele>441.04807</ele><time>2026-03-07T23:07:48.000Z</time></trkpt>
        <trkpt lat="29.183498" lon="104.639445"><ele>441.6982</ele><time>2026-03-07T23:07:53.000Z</time></trkpt>
        <trkpt lat="29.183496" lon="104.639498"><ele>442.18616</ele><time>2026-03-07T23:07:58.000Z</time></trkpt>
        <trkpt lat="29.183492" lon="104.63955"><ele>442.62933</ele><time>2026-03-07T23:08:03.000Z</time></trkpt>
        <trkpt lat="29.183473" lon="104.6396"><ele>443.55792</ele><time>2026-03-07T23:08:09.000Z</time></trkpt>
        <trkpt lat="29.183454" lon="104.639647"><ele>444.8013</ele><time>2026-03-07T23:08:15.000Z</time></trkpt>
        <trkpt lat="29.183428" lon="104.63969"><ele>444.7316</ele><time>2026-03-07T23:08:23.000Z</time></trkpt>
        <trkpt lat="29.183382" lon="104.639719"><ele>445.5033</ele><time>2026-03-07T23:08:28.000Z</time></trkpt>
        <trkpt lat="29.183336" lon="104.639745"><ele>446.8872</ele><time>2026-03-07T23:08:34.000Z</time></trkpt>
        <trkpt lat="29.183286" lon="104.639767"><ele>448.6118</ele><time>2026-03-07T23:08:39.000Z</time></trkpt>
        <trkpt lat="29.183237" lon="104.639779"><ele>449.9391</ele><time>2026-03-07T23:08:45.000Z</time></trkpt>
        <trkpt lat="29.183191" lon="104.639776"><ele>450.74908</ele><time>2026-03-07T23:08:52.000Z</time></trkpt>
        <trkpt lat="29.183144" lon="104.639774"><ele>452.57584</ele><time>2026-03-07T23:09:10.000Z</time></trkpt>
        <trkpt lat="29.183116" lon="104.639819"><ele>453.2968</ele><time>2026-03-07T23:09:17.000Z</time></trkpt>
        <trkpt lat="29.183084" lon="104.639869"><ele>455.2081</ele><time>2026-03-07T23:09:22.000Z</time></trkpt>
        <trkpt lat="29.183045" lon="104.639895"><ele>456.2606</ele><time>2026-03-07T23:09:27.000Z</time></trkpt>
        <trkpt lat="29.183001" lon="104.639919"><ele>457.25952</ele><time>2026-03-07T23:09:32.000Z</time></trkpt>
        <trkpt lat="29.182955" lon="104.639936"><ele>458.44333</ele><time>2026-03-07T23:09:37.000Z</time></trkpt>
        <trkpt lat="29.182909" lon="104.639929"><ele>459.5454</ele><time>2026-03-07T23:09:42.000Z</time></trkpt>
        <trkpt lat="29.182858" lon="104.639931"><ele>459.8384</ele><time>2026-03-07T23:09:48.000Z</time></trkpt>
        <trkpt lat="29.182802" lon="104.639935"><ele>459.31464</ele><time>2026-03-07T23:09:57.000Z</time></trkpt>
        <trkpt lat="29.182751" lon="104.639925"><ele>459.65088</ele><time>2026-03-07T23:10:02.000Z</time></trkpt>
        <trkpt lat="29.182705" lon="104.63991"><ele>460.1125</ele><time>2026-03-07T23:10:06.000Z</time></trkpt>
        <trkpt lat="29.182659" lon="104.63989"><ele>460.5323</ele><time>2026-03-07T23:10:10.000Z</time></trkpt>
        <trkpt lat="29.182613" lon="104.639882"><ele>460.23062</ele><time>2026-03-07T23:10:15.000Z</time></trkpt>
        <trkpt lat="29.182562" lon="104.63986"><ele>459.8369</ele><time>2026-03-07T23:10:20.000Z</time></trkpt>
        <trkpt lat="29.182526" lon="104.639829"><ele>459.74713</ele><time>2026-03-07T23:10:24.000Z</time></trkpt>
        <trkpt lat="29.182477" lon="104.639813"><ele>458.9373</ele><time>2026-03-07T23:10:29.000Z</time></trkpt>
        <trkpt lat="29.182429" lon="104.639826"><ele>459.3367</ele><time>2026-03-07T23:10:33.000Z</time></trkpt>
        <trkpt lat="29.182383" lon="104.639817"><ele>458.46362</ele><time>2026-03-07T23:10:37.000Z</time></trkpt>
        <trkpt lat="29.182334" lon="104.639826"><ele>458.7182</ele><time>2026-03-07T23:10:41.000Z</time></trkpt>
        <trkpt lat="29.182282" lon="104.639847"><ele>458.57233</ele><time>2026-03-07T23:10:45.000Z</time></trkpt>
        <trkpt lat="29.182237" lon="104.639867"><ele>458.41452</ele><time>2026-03-07T23:10:49.000Z</time></trkpt>
        <trkpt lat="29.182183" lon="104.639866"><ele>457.25317</ele><time>2026-03-07T23:10:54.000Z</time></trkpt>
        <trkpt lat="29.182145" lon="104.639904"><ele>458.01807</ele><time>2026-03-07T23:10:58.000Z</time></trkpt>
        <trkpt lat="29.182096" lon="104.639935"><ele>457.58347</ele><time>2026-03-07T23:11:03.000Z</time></trkpt>
        <trkpt lat="29.182048" lon="104.639943"><ele>457.58002</ele><time>2026-03-07T23:11:07.000Z</time></trkpt>
        <trkpt lat="29.181993" lon="104.639943"><ele>457.9628</ele><time>2026-03-07T23:11:11.000Z</time></trkpt>
        <trkpt lat="29.181954" lon="104.639917"><ele>457.33566</ele><time>2026-03-07T23:11:15.000Z</time></trkpt>
        <trkpt lat="29.181902" lon="104.6399"><ele>457.52075</ele><time>2026-03-07T23:11:19.000Z</time></trkpt>
        <trkpt lat="29.181856" lon="104.639895"><ele>457.2669</ele><time>2026-03-07T23:11:23.000Z</time></trkpt>
        <trkpt lat="29.181813" lon="104.639876"><ele>456.08472</ele><time>2026-03-07T23:11:27.000Z</time></trkpt>
        <trkpt lat="29.181766" lon="104.639861"><ele>456.0497</ele><time>2026-03-07T23:11:31.000Z</time></trkpt>
        <trkpt lat="29.181715" lon="104.639852"><ele>456.23145</ele><time>2026-03-07T23:11:34.000Z</time></trkpt>
        <trkpt lat="29.181665" lon="104.639843"><ele>457.33606</ele><time>2026-03-07T23:11:39.000Z</time></trkpt>
        <trkpt lat="29.18162" lon="104.63982"><ele>457.0801</ele><time>2026-03-07T23:11:43.000Z</time></trkpt>
        <trkpt lat="29.181575" lon="104.639805"><ele>456.894</ele><time>2026-03-07T23:11:47.000Z</time></trkpt>
        <trkpt lat="29.181525" lon="104.639784"><ele>455.97324</ele><time>2026-03-07T23:11:51.000Z</time></trkpt>
        <trkpt lat="29.181474" lon="104.639763"><ele>455.85648</ele><time>2026-03-07T23:11:55.000Z</time></trkpt>
        <trkpt lat="29.181421" lon="104.639752"><ele>453.95346</ele><time>2026-03-07T23:12:00.000Z</time></trkpt>
        <trkpt lat="29.181369" lon="104.639771"><ele>456.03543</ele><time>2026-03-07T23:12:10.000Z</time></trkpt>
        <trkpt lat="29.181314" lon="104.639778"><ele>456.4832</ele><time>2026-03-07T23:12:15.000Z</time></trkpt>
        <trkpt lat="29.181259" lon="104.639797"><ele>456.184</ele><time>2026-03-07T23:12:21.000Z</time></trkpt>
        <trkpt lat="29.181213" lon="104.639806"><ele>457.13022</ele><time>2026-03-07T23:12:25.000Z</time></trkpt>
        <trkpt lat="29.181162" lon="104.639833"><ele>457.30258</ele><time>2026-03-07T23:12:30.000Z</time></trkpt>
        <trkpt lat="29.181122" lon="104.639861"><ele>456.56943</ele><time>2026-03-07T23:12:34.000Z</time></trkpt>
        <trkpt lat="29.181068" lon="104.639886"><ele>456.98422</ele><time>2026-03-07T23:12:38.000Z</time></trkpt>
        <trkpt lat="29.181026" lon="104.639905"><ele>456.31094</ele><time>2026-03-07T23:12:43.000Z</time></trkpt>
        <trkpt lat="29.18098" lon="104.639895"><ele>455.53564</ele><time>2026-03-07T23:12:47.000Z</time></trkpt>
        <trkpt lat="29.18093" lon="104.639896"><ele>454.81967</ele><time>2026-03-07T23:12:51.000Z</time></trkpt>
        <trkpt lat="29.180884" lon="104.639894"><ele>453.90503</ele><time>2026-03-07T23:12:55.000Z</time></trkpt>
        <trkpt lat="29.180842" lon="104.639914"><ele>454.2402</ele><time>2026-03-07T23:12:59.000Z</time></trkpt>
        <trkpt lat="29.180799" lon="104.639949"><ele>453.55655</ele><time>2026-03-07T23:13:04.000Z</time></trkpt>
        <trkpt lat="29.180759" lon="104.639975"><ele>453.32156</ele><time>2026-03-07T23:13:08.000Z</time></trkpt>
        <trkpt lat="29.180716" lon="104.639993"><ele>453.39526</ele><time>2026-03-07T23:13:12.000Z</time></trkpt>
        <trkpt lat="29.180676" lon="104.640038"><ele>452.13022</ele><time>2026-03-07T23:13:23.000Z</time></trkpt>
        <trkpt lat="29.180638" lon="104.640066"><ele>452.6361</ele><time>2026-03-07T23:13:26.000Z</time></trkpt>
        <trkpt lat="29.180601" lon="104.640105"><ele>451.95755</ele><time>2026-03-07T23:13:29.000Z</time></trkpt>
        <trkpt lat="29.180558" lon="104.640133"><ele>451.12244</ele><time>2026-03-07T23:13:33.000Z</time></trkpt>
        <trkpt lat="29.180508" lon="104.640154"><ele>449.7429</ele><time>2026-03-07T23:13:37.000Z</time></trkpt>
        <trkpt lat="29.180464" lon="104.640178"><ele>450.06766</ele><time>2026-03-07T23:13:41.000Z</time></trkpt>
        <trkpt lat="29.180421" lon="104.640203"><ele>447.5114</ele><time>2026-03-07T23:13:54.000Z</time></trkpt>
        <trkpt lat="29.18038" lon="104.640238"><ele>447.03098</ele><time>2026-03-07T23:13:59.000Z</time></trkpt>
        <trkpt lat="29.180337" lon="104.640266"><ele>447.4941</ele><time>2026-03-07T23:14:04.000Z</time></trkpt>
        <trkpt lat="29.180289" lon="104.640291"><ele>447.70532</ele><time>2026-03-07T23:14:10.000Z</time></trkpt>
        <trkpt lat="29.180237" lon="104.640291"><ele>446.623</ele><time>2026-03-07T23:14:28.000Z</time></trkpt>
        <trkpt lat="29.180187" lon="104.640306"><ele>446.4103</ele><time>2026-03-07T23:14:34.000Z</time></trkpt>
        <trkpt lat="29.180141" lon="104.640319"><ele>446.3752</ele><time>2026-03-07T23:14:40.000Z</time></trkpt>
        <trkpt lat="29.18009" lon="104.640334"><ele>445.60037</ele><time>2026-03-07T23:14:46.000Z</time></trkpt>
        <trkpt lat="29.180042" lon="104.64034"><ele>445.38162</ele><time>2026-03-07T23:14:51.000Z</time></trkpt>
        <trkpt lat="29.179995" lon="104.640354"><ele>445.75256</ele><time>2026-03-07T23:14:55.000Z</time></trkpt>
        <trkpt lat="29.17995" lon="104.640345"><ele>445.47546</ele><time>2026-03-07T23:14:59.000Z</time></trkpt>
        <trkpt lat="29.179901" lon="104.640335"><ele>445.96262</ele><time>2026-03-07T23:15:03.000Z</time></trkpt>
        <trkpt lat="29.179848" lon="104.640313"><ele>444.7831</ele><time>2026-03-07T23:15:08.000Z</time></trkpt>
        <trkpt lat="29.179801" lon="104.64028"><ele>444.58008</ele><time>2026-03-07T23:15:13.000Z</time></trkpt>
        <trkpt lat="29.179842" lon="104.640315"><ele>443.85068</ele><time>2026-03-07T23:15:26.000Z</time></trkpt>
        <trkpt lat="29.179883" lon="104.640345"><ele>443.45038</ele><time>2026-03-07T23:15:29.000Z</time></trkpt>
        <trkpt lat="29.179931" lon="104.640373"><ele>443.1716</ele><time>2026-03-07T23:15:33.000Z</time></trkpt>
        <trkpt lat="29.179977" lon="104.640382"><ele>443.08936</ele><time>2026-03-07T23:15:36.000Z</time></trkpt>
        <trkpt lat="29.180026" lon="104.640404"><ele>443.4221</ele><time>2026-03-07T23:15:42.000Z</time></trkpt>
        <trkpt lat="29.180049" lon="104.640451"><ele>442.32584</ele><time>2026-03-07T23:15:47.000Z</time></trkpt>
        <trkpt lat="29.18001" lon="104.640421"><ele>443.31583</ele><time>2026-03-07T23:16:55.000Z</time></trkpt>
        <trkpt lat="29.179981" lon="104.640378"><ele>444.80518</ele><time>2026-03-07T23:16:59.000Z</time></trkpt>
        <trkpt lat="29.179925" lon="104.640369"><ele>444.7693</ele><time>2026-03-07T23:17:04.000Z</time></trkpt>
        <trkpt lat="29.179883" lon="104.640349"><ele>444.31598</ele><time>2026-03-07T23:17:08.000Z</time></trkpt>
        <trkpt lat="29.179839" lon="104.640327"><ele>443.9793</ele><time>2026-03-07T23:17:12.000Z</time></trkpt>
        <trkpt lat="29.179802" lon="104.64029"><ele>443.60187</ele><time>2026-03-07T23:17:16.000Z</time></trkpt>
        <trkpt lat="29.179761" lon="104.640252"><ele>443.94556</ele><time>2026-03-07T23:17:20.000Z</time></trkpt>
        <trkpt lat="29.179715" lon="104.640216"><ele>443.46814</ele><time>2026-03-07T23:17:25.000Z</time></trkpt>
        <trkpt lat="29.179685" lon="104.640167"><ele>442.60077</ele><time>2026-03-07T23:17:29.000Z</time></trkpt>
        <trkpt lat="29.179661" lon="104.64012"><ele>443.20758</ele><time>2026-03-07T23:17:37.000Z</time></trkpt>
        <trkpt lat="29.179634" lon="104.640057"><ele>443.32996</ele><time>2026-03-07T23:17:41.000Z</time></trkpt>
        <trkpt lat="29.179622" lon="104.640001"><ele>443.4692</ele><time>2026-03-07T23:17:45.000Z</time></trkpt>
        <trkpt lat="29.179613" lon="104.639945"><ele>443.88</ele><time>2026-03-07T23:17:49.000Z</time></trkpt>
        <trkpt lat="29.179585" lon="104.639905"><ele>444.3511</ele><time>2026-03-07T23:17:55.000Z</time></trkpt>
        <trkpt lat="29.179538" lon="104.639887"><ele>444.69733</ele><time>2026-03-07T23:18:00.000Z</time></trkpt>
        <trkpt lat="29.17949" lon="104.639857"><ele>443.30215</ele><time>2026-03-07T23:18:05.000Z</time></trkpt>
        <trkpt lat="29.179448" lon="104.639878"><ele>443.4614</ele><time>2026-03-07T23:18:09.000Z</time></trkpt>
        <trkpt lat="29.179397" lon="104.639903"><ele>442.14185</ele><time>2026-03-07T23:18:14.000Z</time></trkpt>
        <trkpt lat="29.17937" lon="104.639954"><ele>440.90274</ele><time>2026-03-07T23:18:18.000Z</time></trkpt>
        <trkpt lat="29.179334" lon="104.639999"><ele>439.5851</ele><time>2026-03-07T23:18:22.000Z</time></trkpt>
        <trkpt lat="29.179301" lon="104.640043"><ele>438.26834</ele><time>2026-03-07T23:18:27.000Z</time></trkpt>
        <trkpt lat="29.179258" lon="104.640062"><ele>437.1563</ele><time>2026-03-07T23:18:31.000Z</time></trkpt>
        <trkpt lat="29.179204" lon="104.640064"><ele>437.23544</ele><time>2026-03-07T23:18:36.000Z</time></trkpt>
        <trkpt lat="29.179157" lon="104.640043"><ele>435.74994</ele><time>2026-03-07T23:18:41.000Z</time></trkpt>
        <trkpt lat="29.179104" lon="104.640053"><ele>434.9938</ele><time>2026-03-07T23:18:45.000Z</time></trkpt>
        <trkpt lat="29.179057" lon="104.640075"><ele>434.28348</ele><time>2026-03-07T23:18:50.000Z</time></trkpt>
        <trkpt lat="29.179075" lon="104.640123"><ele>432.47043</ele><time>2026-03-07T23:18:55.000Z</time></trkpt>
        <trkpt lat="29.179116" lon="104.640151"><ele>430.88513</ele><time>2026-03-07T23:18:59.000Z</time></trkpt>
        <trkpt lat="29.179164" lon="104.640166"><ele>430.12033</ele><time>2026-03-07T23:19:03.000Z</time></trkpt>
        <trkpt lat="29.17921" lon="104.640174"><ele>429.74582</ele><time>2026-03-07T23:19:07.000Z</time></trkpt>
        <trkpt lat="29.17925" lon="104.640206"><ele>429.80008</ele><time>2026-03-07T23:19:13.000Z</time></trkpt>
        <trkpt lat="29.179222" lon="104.640246"><ele>429.65475</ele><time>2026-03-07T23:19:16.000Z</time></trkpt>
        <trkpt lat="29.179177" lon="104.640259"><ele>428.95532</ele><time>2026-03-07T23:19:19.000Z</time></trkpt>
        <trkpt lat="29.179134" lon="104.640296"><ele>428.9228</ele><time>2026-03-07T23:19:23.000Z</time></trkpt>
        <trkpt lat="29.179084" lon="104.640327"><ele>427.6771</ele><time>2026-03-07T23:19:28.000Z</time></trkpt>
        <trkpt lat="29.179038" lon="104.640332"><ele>427.02786</ele><time>2026-03-07T23:19:34.000Z</time></trkpt>
        <trkpt lat="29.178992" lon="104.640322"><ele>426.5805</ele><time>2026-03-07T23:19:38.000Z</time></trkpt>
        <trkpt lat="29.178939" lon="104.640306"><ele>427.29727</ele><time>2026-03-07T23:19:41.000Z</time></trkpt>
        <trkpt lat="29.178892" lon="104.6403"><ele>426.93326</ele><time>2026-03-07T23:19:45.000Z</time></trkpt>
        <trkpt lat="29.178842" lon="104.640289"><ele>426.58414</ele><time>2026-03-07T23:19:49.000Z</time></trkpt>
        <trkpt lat="29.178798" lon="104.640273"><ele>426.02847</ele><time>2026-03-07T23:19:54.000Z</time></trkpt>
        <trkpt lat="29.178751" lon="104.640241"><ele>425.64313</ele><time>2026-03-07T23:19:59.000Z</time></trkpt>
        <trkpt lat="29.178711" lon="104.640189"><ele>424.86047</ele><time>2026-03-07T23:20:04.000Z</time></trkpt>
        <trkpt lat="29.17876" lon="104.640191"><ele>425.9121</ele><time>2026-03-07T23:20:31.000Z</time></trkpt>
        <trkpt lat="29.178793" lon="104.640152"><ele>427.07864</ele><time>2026-03-07T23:20:37.000Z</time></trkpt>
        <trkpt lat="29.178777" lon="104.640098"><ele>427.91663</ele><time>2026-03-07T23:20:41.000Z</time></trkpt>
        <trkpt lat="29.178764" lon="104.640048"><ele>428.73834</ele><time>2026-03-07T23:20:46.000Z</time></trkpt>
        <trkpt lat="29.17873" lon="104.640011"><ele>427.38202</ele><time>2026-03-07T23:20:53.000Z</time></trkpt>
        <trkpt lat="29.178685" lon="104.639997"><ele>426.32288</ele><time>2026-03-07T23:20:58.000Z</time></trkpt>
        <trkpt lat="29.178662" lon="104.639947"><ele>425.9191</ele><time>2026-03-07T23:21:03.000Z</time></trkpt>
        <trkpt lat="29.178675" lon="104.639884"><ele>425.0688</ele><time>2026-03-07T23:21:08.000Z</time></trkpt>
        <trkpt lat="29.178664" lon="104.639832"><ele>425.34805</ele><time>2026-03-07T23:21:11.000Z</time></trkpt>
        <trkpt lat="29.178643" lon="104.639785"><ele>425.3202</ele><time>2026-03-07T23:21:14.000Z</time></trkpt>
        <trkpt lat="29.178596" lon="104.639743"><ele>424.91956</ele><time>2026-03-07T23:21:18.000Z</time></trkpt>
        <trkpt lat="29.178548" lon="104.63971"><ele>423.95642</ele><time>2026-03-07T23:21:23.000Z</time></trkpt>
        <trkpt lat="29.178497" lon="104.639716"><ele>424.53214</ele><time>2026-03-07T23:21:27.000Z</time></trkpt>
        <trkpt lat="29.17847" lon="104.639766"><ele>425.04636</ele><time>2026-03-07T23:21:31.000Z</time></trkpt>
        <trkpt lat="29.17842" lon="104.639794"><ele>425.6607</ele><time>2026-03-07T23:21:36.000Z</time></trkpt>
        <trkpt lat="29.178372" lon="104.639833"><ele>425.83847</ele><time>2026-03-07T23:21:41.000Z</time></trkpt>
        <trkpt lat="29.178327" lon="104.63987"><ele>425.8028</ele><time>2026-03-07T23:21:45.000Z</time></trkpt>
        <trkpt lat="29.178282" lon="104.639883"><ele>425.19946</ele><time>2026-03-07T23:21:49.000Z</time></trkpt>
        <trkpt lat="29.178226" lon="104.639886"><ele>425.1719</ele><time>2026-03-07T23:21:52.000Z</time></trkpt>
        <trkpt lat="29.17817" lon="104.639876"><ele>425.0198</ele><time>2026-03-07T23:21:57.000Z</time></trkpt>
        <trkpt lat="29.17812" lon="104.639864"><ele>425.07297</ele><time>2026-03-07T23:22:01.000Z</time></trkpt>
        <trkpt lat="29.178073" lon="104.639858"><ele>425.09705</ele><time>2026-03-07T23:22:05.000Z</time></trkpt>
        <trkpt lat="29.178026" lon="104.639832"><ele>425.73804</ele><time>2026-03-07T23:22:09.000Z</time></trkpt>
        <trkpt lat="29.177976" lon="104.639832"><ele>426.41806</ele><time>2026-03-07T23:22:12.000Z</time></trkpt>
        <trkpt lat="29.177921" lon="104.639842"><ele>426.14584</ele><time>2026-03-07T23:22:16.000Z</time></trkpt>
        <trkpt lat="29.177873" lon="104.639823"><ele>426.1899</ele><time>2026-03-07T23:22:20.000Z</time></trkpt>
        <trkpt lat="29.177828" lon="104.639782"><ele>426.0045</ele><time>2026-03-07T23:22:25.000Z</time></trkpt>
        <trkpt lat="29.177784" lon="104.639752"><ele>425.6511</ele><time>2026-03-07T23:22:30.000Z</time></trkpt>
        <trkpt lat="29.177747" lon="104.639709"><ele>425.53818</ele><time>2026-03-07T23:22:34.000Z</time></trkpt>
        <trkpt lat="29.177736" lon="104.639655"><ele>426.6598</ele><time>2026-03-07T23:22:41.000Z</time></trkpt>
        <trkpt lat="29.177718" lon="104.639599"><ele>426.67572</ele><time>2026-03-07T23:22:45.000Z</time></trkpt>
        <trkpt lat="29.177696" lon="104.639543"><ele>427.8645</ele><time>2026-03-07T23:22:50.000Z</time></trkpt>
        <trkpt lat="29.177648" lon="104.639509"><ele>431.66754</ele><time>2026-03-07T23:22:55.000Z</time></trkpt>
        <trkpt lat="29.177603" lon="104.639499"><ele>433.5297</ele><time>2026-03-07T23:22:59.000Z</time></trkpt>
        <trkpt lat="29.177557" lon="104.639521"><ele>433.16156</ele><time>2026-03-07T23:23:04.000Z</time></trkpt>
        <trkpt lat="29.177511" lon="104.639544"><ele>432.65973</ele><time>2026-03-07T23:23:09.000Z</time></trkpt>
        <trkpt lat="29.177461" lon="104.639543"><ele>431.82147</ele><time>2026-03-07T23:23:14.000Z</time></trkpt>
        <trkpt lat="29.177421" lon="104.639569"><ele>432.10983</ele><time>2026-03-07T23:23:17.000Z</time></trkpt>
        <trkpt lat="29.17737" lon="104.639597"><ele>431.02588</ele><time>2026-03-07T23:23:22.000Z</time></trkpt>
        <trkpt lat="29.177324" lon="104.639607"><ele>430.9222</ele><time>2026-03-07T23:23:26.000Z</time></trkpt>
        <trkpt lat="29.177277" lon="104.639614"><ele>430.9141</ele><time>2026-03-07T23:23:30.000Z</time></trkpt>
        <trkpt lat="29.177228" lon="104.639633"><ele>430.28967</ele><time>2026-03-07T23:23:35.000Z</time></trkpt>
        <trkpt lat="29.177186" lon="104.639654"><ele>430.23175</ele><time>2026-03-07T23:23:39.000Z</time></trkpt>
        <trkpt lat="29.177148" lon="104.639683"><ele>429.72797</ele><time>2026-03-07T23:23:43.000Z</time></trkpt>
        <trkpt lat="29.177107" lon="104.639708"><ele>429.28723</ele><time>2026-03-07T23:23:47.000Z</time></trkpt>
        <trkpt lat="29.177061" lon="104.639724"><ele>429.1741</ele><time>2026-03-07T23:23:51.000Z</time></trkpt>
        <trkpt lat="29.177015" lon="104.639749"><ele>429.71237</ele><time>2026-03-07T23:24:08.000Z</time></trkpt>
        <trkpt lat="29.176967" lon="104.639752"><ele>429.78668</ele><time>2026-03-07T23:24:12.000Z</time></trkpt>
        <trkpt lat="29.17692" lon="104.63979"><ele>430.41248</ele><time>2026-03-07T23:24:17.000Z</time></trkpt>
        <trkpt lat="29.176954" lon="104.639747"><ele>429.88156</ele><time>2026-03-07T23:24:34.000Z</time></trkpt>
        <trkpt lat="29.176998" lon="104.639716"><ele>429.77905</ele><time>2026-03-07T23:24:38.000Z</time></trkpt>
        <trkpt lat="29.176988" lon="104.639772"><ele>428.6473</ele><time>2026-03-07T23:24:48.000Z</time></trkpt>
        <trkpt lat="29.176964" lon="104.639816"><ele>427.78558</ele><time>2026-03-07T23:24:52.000Z</time></trkpt>
        <trkpt lat="29.176928" lon="104.639849"><ele>426.9312</ele><time>2026-03-07T23:24:56.000Z</time></trkpt>
        <trkpt lat="29.176898" lon="104.639894"><ele>427.27103</ele><time>2026-03-07T23:24:59.000Z</time></trkpt>
        <trkpt lat="29.176849" lon="104.639915"><ele>427.76993</ele><time>2026-03-07T23:25:03.000Z</time></trkpt>
        <trkpt lat="29.176799" lon="104.639892"><ele>428.68848</ele><time>2026-03-07T23:25:08.000Z</time></trkpt>
        <trkpt lat="29.176752" lon="104.639904"><ele>428.2677</ele><time>2026-03-07T23:25:13.000Z</time></trkpt>
        <trkpt lat="29.176716" lon="104.639946"><ele>428.69223</ele><time>2026-03-07T23:25:20.000Z</time></trkpt>
        <trkpt lat="29.17667" lon="104.639958"><ele>427.58365</ele><time>2026-03-07T23:25:26.000Z</time></trkpt>
        <trkpt lat="29.176621" lon="104.639964"><ele>427.71283</ele><time>2026-03-07T23:25:33.000Z</time></trkpt>
        <trkpt lat="29.17659" lon="104.640013"><ele>426.61963</ele><time>2026-03-07T23:25:40.000Z</time></trkpt>
        <trkpt lat="29.176537" lon="104.640019"><ele>426.95135</ele><time>2026-03-07T23:25:45.000Z</time></trkpt>
        <trkpt lat="29.17649" lon="104.640012"><ele>426.8076</ele><time>2026-03-07T23:25:49.000Z</time></trkpt>
        <trkpt lat="29.176452" lon="104.639974"><ele>428.0343</ele><time>2026-03-07T23:25:58.000Z</time></trkpt>
        <trkpt lat="29.176424" lon="104.639931"><ele>428.83096</ele><time>2026-03-07T23:26:02.000Z</time></trkpt>
        <trkpt lat="29.176379" lon="104.639916"><ele>429.1581</ele><time>2026-03-07T23:26:06.000Z</time></trkpt>
        <trkpt lat="29.176351" lon="104.639868"><ele>428.89655</ele><time>2026-03-07T23:26:10.000Z</time></trkpt>
        <trkpt lat="29.176322" lon="104.639817"><ele>429.604</ele><time>2026-03-07T23:26:14.000Z</time></trkpt>
        <trkpt lat="29.176294" lon="104.639764"><ele>429.91653</ele><time>2026-03-07T23:26:19.000Z</time></trkpt>
        <trkpt lat="29.17625" lon="104.639745"><ele>430.13992</ele><time>2026-03-07T23:26:23.000Z</time></trkpt>
        <trkpt lat="29.176216" lon="104.639702"><ele>429.53006</ele><time>2026-03-07T23:26:30.000Z</time></trkpt>
        <trkpt lat="29.176225" lon="104.639642"><ele>429.44382</ele><time>2026-03-07T23:26:34.000Z</time></trkpt>
        <trkpt lat="29.17625" lon="104.639585"><ele>430.11136</ele><time>2026-03-07T23:26:38.000Z</time></trkpt>
        <trkpt lat="29.176237" lon="104.639525"><ele>429.841</ele><time>2026-03-07T23:26:44.000Z</time></trkpt>
        <trkpt lat="29.176188" lon="104.639506"><ele>428.94986</ele><time>2026-03-07T23:26:50.000Z</time></trkpt>
        <trkpt lat="29.176194" lon="104.639446"><ele>428.86255</ele><time>2026-03-07T23:26:54.000Z</time></trkpt>
        <trkpt lat="29.176195" lon="104.639394"><ele>428.1181</ele><time>2026-03-07T23:26:58.000Z</time></trkpt>
        <trkpt lat="29.176191" lon="104.639337"><ele>426.7326</ele><time>2026-03-07T23:27:05.000Z</time></trkpt>
        <trkpt lat="29.176186" lon="104.639274"><ele>425.99918</ele><time>2026-03-07T23:27:09.000Z</time></trkpt>
        <trkpt lat="29.176189" lon="104.639209"><ele>425.39716</ele><time>2026-03-07T23:27:16.000Z</time></trkpt>
        <trkpt lat="29.176228" lon="104.639179"><ele>425.5697</ele><time>2026-03-07T23:27:21.000Z</time></trkpt>
        <trkpt lat="29.176262" lon="104.639133"><ele>425.41376</ele><time>2026-03-07T23:27:25.000Z</time></trkpt>
        <trkpt lat="29.176291" lon="104.639082"><ele>425.49103</ele><time>2026-03-07T23:27:29.000Z</time></trkpt>
        <trkpt lat="29.176315" lon="104.639037"><ele>425.89612</ele><time>2026-03-07T23:27:32.000Z</time></trkpt>
        <trkpt lat="29.176348" lon="104.638991"><ele>423.66013</ele><time>2026-03-07T23:27:36.000Z</time></trkpt>
        <trkpt lat="29.176344" lon="104.638926"><ele>423.4712</ele><time>2026-03-07T23:27:40.000Z</time></trkpt>
        <trkpt lat="29.176338" lon="104.63887"><ele>421.16562</ele><time>2026-03-07T23:27:56.000Z</time></trkpt>
        <trkpt lat="29.176299" lon="104.638828"><ele>422.24124</ele><time>2026-03-07T23:28:23.000Z</time></trkpt>
        <trkpt lat="29.176266" lon="104.638791"><ele>423.66693</ele><time>2026-03-07T23:28:27.000Z</time></trkpt>
        <trkpt lat="29.17622" lon="104.638787"><ele>424.57812</ele><time>2026-03-07T23:28:31.000Z</time></trkpt>
        <trkpt lat="29.176165" lon="104.638801"><ele>425.25174</ele><time>2026-03-07T23:28:35.000Z</time></trkpt>
        <trkpt lat="29.176114" lon="104.638791"><ele>425.60593</ele><time>2026-03-07T23:28:39.000Z</time></trkpt>
        <trkpt lat="29.176064" lon="104.638777"><ele>425.61975</ele><time>2026-03-07T23:28:44.000Z</time></trkpt>
        <trkpt lat="29.176012" lon="104.638768"><ele>426.30566</ele><time>2026-03-07T23:28:48.000Z</time></trkpt>
        <trkpt lat="29.175966" lon="104.638737"><ele>426.37988</ele><time>2026-03-07T23:28:52.000Z</time></trkpt>
        <trkpt lat="29.17593" lon="104.638702"><ele>426.70996</ele><time>2026-03-07T23:28:56.000Z</time></trkpt>
        <trkpt lat="29.175878" lon="104.638676"><ele>425.2991</ele><time>2026-03-07T23:29:01.000Z</time></trkpt>
        <trkpt lat="29.175826" lon="104.638662"><ele>425.35522</ele><time>2026-03-07T23:29:06.000Z</time></trkpt>
        <trkpt lat="29.175785" lon="104.638619"><ele>425.74152</ele><time>2026-03-07T23:29:11.000Z</time></trkpt>
        <trkpt lat="29.175752" lon="104.638584"><ele>425.98163</ele><time>2026-03-07T23:29:15.000Z</time></trkpt>
        <trkpt lat="29.175726" lon="104.638536"><ele>425.09894</ele><time>2026-03-07T23:29:19.000Z</time></trkpt>
        <trkpt lat="29.175691" lon="104.638501"><ele>424.9123</ele><time>2026-03-07T23:29:23.000Z</time></trkpt>
        <trkpt lat="29.175668" lon="104.638456"><ele>424.24454</ele><time>2026-03-07T23:29:26.000Z</time></trkpt>
        <trkpt lat="29.175651" lon="104.638395"><ele>424.2263</ele><time>2026-03-07T23:29:30.000Z</time></trkpt>
        <trkpt lat="29.175628" lon="104.638333"><ele>424.63837</ele><time>2026-03-07T23:29:34.000Z</time></trkpt>
        <trkpt lat="29.175577" lon="104.638303"><ele>424.72458</ele><time>2026-03-07T23:29:38.000Z</time></trkpt>
        <trkpt lat="29.175531" lon="104.638299"><ele>424.20856</ele><time>2026-03-07T23:29:41.000Z</time></trkpt>
        <trkpt lat="29.175483" lon="104.63832"><ele>423.98474</ele><time>2026-03-07T23:29:45.000Z</time></trkpt>
        <trkpt lat="29.175435" lon="104.638344"><ele>424.06174</ele><time>2026-03-07T23:29:49.000Z</time></trkpt>
        <trkpt lat="29.175396" lon="104.638381"><ele>424.45428</ele><time>2026-03-07T23:29:53.000Z</time></trkpt>
        <trkpt lat="29.175358" lon="104.638419"><ele>425.135</ele><time>2026-03-07T23:29:57.000Z</time></trkpt>
        <trkpt lat="29.175305" lon="104.638426"><ele>426.016</ele><time>2026-03-07T23:30:01.000Z</time></trkpt>
        <trkpt lat="29.175258" lon="104.638435"><ele>426.14386</ele><time>2026-03-07T23:30:05.000Z</time></trkpt>
        <trkpt lat="29.175213" lon="104.638459"><ele>426.00677</ele><time>2026-03-07T23:30:09.000Z</time></trkpt>
        <trkpt lat="29.175172" lon="104.638491"><ele>426.1856</ele><time>2026-03-07T23:30:13.000Z</time></trkpt>
        <trkpt lat="29.175122" lon="104.638501"><ele>426.27124</ele><time>2026-03-07T23:30:16.000Z</time></trkpt>
        <trkpt lat="29.175072" lon="104.638498"><ele>425.91702</ele><time>2026-03-07T23:30:20.000Z</time></trkpt>
        <trkpt lat="29.175022" lon="104.638496"><ele>425.8192</ele><time>2026-03-07T23:30:24.000Z</time></trkpt>
        <trkpt lat="29.174971" lon="104.638485"><ele>425.96188</ele><time>2026-03-07T23:30:28.000Z</time></trkpt>
        <trkpt lat="29.174926" lon="104.638499"><ele>426.06122</ele><time>2026-03-07T23:30:32.000Z</time></trkpt>
        <trkpt lat="29.174885" lon="104.638538"><ele>425.46286</ele><time>2026-03-07T23:30:37.000Z</time></trkpt>
        <trkpt lat="29.174845" lon="104.638571"><ele>425.47943</ele><time>2026-03-07T23:30:41.000Z</time></trkpt>
        <trkpt lat="29.174807" lon="104.638609"><ele>425.701</ele><time>2026-03-07T23:30:45.000Z</time></trkpt>
        <trkpt lat="29.174765" lon="104.638646"><ele>425.57654</ele><time>2026-03-07T23:30:49.000Z</time></trkpt>
        <trkpt lat="29.174718" lon="104.638676"><ele>425.35663</ele><time>2026-03-07T23:30:53.000Z</time></trkpt>
        <trkpt lat="29.174668" lon="104.638698"><ele>426.04382</ele><time>2026-03-07T23:30:57.000Z</time></trkpt>
        <trkpt lat="29.174624" lon="104.638734"><ele>426.04758</ele><time>2026-03-07T23:31:01.000Z</time></trkpt>
        <trkpt lat="29.174591" lon="104.638775"><ele>425.30695</ele><time>2026-03-07T23:31:05.000Z</time></trkpt>
        <trkpt lat="29.174554" lon="104.638816"><ele>423.68402</ele><time>2026-03-07T23:31:09.000Z</time></trkpt>
        <trkpt lat="29.174502" lon="104.638835"><ele>423.81332</ele><time>2026-03-07T23:31:14.000Z</time></trkpt>
        <trkpt lat="29.174448" lon="104.638852"><ele>423.8781</ele><time>2026-03-07T23:31:18.000Z</time></trkpt>
        <trkpt lat="29.174399" lon="104.638864"><ele>423.8789</ele><time>2026-03-07T23:31:22.000Z</time></trkpt>
        <trkpt lat="29.174348" lon="104.638885"><ele>424.0946</ele><time>2026-03-07T23:31:26.000Z</time></trkpt>
        <trkpt lat="29.174297" lon="104.638885"><ele>424.9602</ele><time>2026-03-07T23:31:30.000Z</time></trkpt>
        <trkpt lat="29.174245" lon="104.638881"><ele>425.2859</ele><time>2026-03-07T23:31:34.000Z</time></trkpt>
        <trkpt lat="29.174198" lon="104.638895"><ele>425.65823</ele><time>2026-03-07T23:31:38.000Z</time></trkpt>
        <trkpt lat="29.174152" lon="104.638917"><ele>427.04724</ele><time>2026-03-07T23:31:45.000Z</time></trkpt>
        <trkpt lat="29.174096" lon="104.638924"><ele>426.5986</ele><time>2026-03-07T23:31:49.000Z</time></trkpt>
        <trkpt lat="29.174047" lon="104.638939"><ele>427.13358</ele><time>2026-03-07T23:31:53.000Z</time></trkpt>
        <trkpt lat="29.173997" lon="104.638925"><ele>427.26273</ele><time>2026-03-07T23:31:57.000Z</time></trkpt>
        <trkpt lat="29.173948" lon="104.638911"><ele>427.54953</ele><time>2026-03-07T23:32:01.000Z</time></trkpt>
        <trkpt lat="29.173898" lon="104.638907"><ele>427.91714</ele><time>2026-03-07T23:32:05.000Z</time></trkpt>
        <trkpt lat="29.173853" lon="104.638898"><ele>427.7083</ele><time>2026-03-07T23:32:10.000Z</time></trkpt>
        <trkpt lat="29.173802" lon="104.638885"><ele>428.34116</ele><time>2026-03-07T23:32:14.000Z</time></trkpt>
        <trkpt lat="29.173753" lon="104.638869"><ele>428.33356</ele><time>2026-03-07T23:32:18.000Z</time></trkpt>
        <trkpt lat="29.173711" lon="104.638847"><ele>427.786</ele><time>2026-03-07T23:32:22.000Z</time></trkpt>
        <trkpt lat="29.173663" lon="104.638832"><ele>428.60962</ele><time>2026-03-07T23:32:26.000Z</time></trkpt>
        <trkpt lat="29.173615" lon="104.638798"><ele>428.82635</ele><time>2026-03-07T23:32:29.000Z</time></trkpt>
        <trkpt lat="29.173572" lon="104.638778"><ele>429.66028</ele><time>2026-03-07T23:32:33.000Z</time></trkpt>
        <trkpt lat="29.173531" lon="104.63875"><ele>430.37106</ele><time>2026-03-07T23:32:37.000Z</time></trkpt>
        <trkpt lat="29.173484" lon="104.638726"><ele>430.43002</ele><time>2026-03-07T23:32:41.000Z</time></trkpt>
        <trkpt lat="29.173452" lon="104.638679"><ele>431.08795</ele><time>2026-03-07T23:32:46.000Z</time></trkpt>
        <trkpt lat="29.173411" lon="104.638642"><ele>431.2542</ele><time>2026-03-07T23:32:50.000Z</time></trkpt>
        <trkpt lat="29.173371" lon="104.638601"><ele>430.66788</ele><time>2026-03-07T23:32:54.000Z</time></trkpt>
        <trkpt lat="29.173336" lon="104.638555"><ele>430.34323</ele><time>2026-03-07T23:32:58.000Z</time></trkpt>
        <trkpt lat="29.173295" lon="104.638513"><ele>429.33136</ele><time>2026-03-07T23:33:03.000Z</time></trkpt>
        <trkpt lat="29.173259" lon="104.638478"><ele>429.26083</ele><time>2026-03-07T23:33:08.000Z</time></trkpt>
        <trkpt lat="29.173228" lon="104.638438"><ele>428.65976</ele><time>2026-03-07T23:33:14.000Z</time></trkpt>
        <trkpt lat="29.173181" lon="104.638439"><ele>428.51886</ele><time>2026-03-07T23:33:20.000Z</time></trkpt>
        <trkpt lat="29.173135" lon="104.63845"><ele>428.21494</ele><time>2026-03-07T23:33:24.000Z</time></trkpt>
        <trkpt lat="29.173087" lon="104.638462"><ele>426.98987</ele><time>2026-03-07T23:33:28.000Z</time></trkpt>
        <trkpt lat="29.173033" lon="104.638473"><ele>425.76965</ele><time>2026-03-07T23:33:33.000Z</time></trkpt>
        <trkpt lat="29.172984" lon="104.638493"><ele>424.61005</ele><time>2026-03-07T23:33:37.000Z</time></trkpt>
        <trkpt lat="29.172931" lon="104.638503"><ele>423.84952</ele><time>2026-03-07T23:33:41.000Z</time></trkpt>
        <trkpt lat="29.172883" lon="104.638522"><ele>422.93442</ele><time>2026-03-07T23:33:45.000Z</time></trkpt>
        <trkpt lat="29.172833" lon="104.63853"><ele>423.34158</ele><time>2026-03-07T23:33:49.000Z</time></trkpt>
        <trkpt lat="29.172781" lon="104.638546"><ele>422.7015</ele><time>2026-03-07T23:33:53.000Z</time></trkpt>
        <trkpt lat="29.172732" lon="104.63856"><ele>422.3586</ele><time>2026-03-07T23:33:57.000Z</time></trkpt>
        <trkpt lat="29.17268" lon="104.63858"><ele>421.9747</ele><time>2026-03-07T23:34:01.000Z</time></trkpt>
        <trkpt lat="29.172624" lon="104.638592"><ele>422.49982</ele><time>2026-03-07T23:34:05.000Z</time></trkpt>
        <trkpt lat="29.172572" lon="104.638592"><ele>422.2434</ele><time>2026-03-07T23:34:10.000Z</time></trkpt>
        <trkpt lat="29.172559" lon="104.638646"><ele>421.4612</ele><time>2026-03-07T23:34:15.000Z</time></trkpt>
        <trkpt lat="29.17257" lon="104.638698"><ele>421.91577</ele><time>2026-03-07T23:34:19.000Z</time></trkpt>
        <trkpt lat="29.17257" lon="104.638757"><ele>422.43777</ele><time>2026-03-07T23:34:24.000Z</time></trkpt>
        <trkpt lat="29.172581" lon="104.638808"><ele>422.57382</ele><time>2026-03-07T23:34:27.000Z</time></trkpt>
        <trkpt lat="29.172583" lon="104.638871"><ele>422.44305</ele><time>2026-03-07T23:34:31.000Z</time></trkpt>
        <trkpt lat="29.17258" lon="104.638932"><ele>422.67502</ele><time>2026-03-07T23:34:35.000Z</time></trkpt>
        <trkpt lat="29.172568" lon="104.638992"><ele>423.12982</ele><time>2026-03-07T23:34:39.000Z</time></trkpt>
        <trkpt lat="29.172555" lon="104.639054"><ele>424.3864</ele><time>2026-03-07T23:34:43.000Z</time></trkpt>
        <trkpt lat="29.172559" lon="104.639114"><ele>423.5038</ele><time>2026-03-07T23:34:47.000Z</time></trkpt>
        <trkpt lat="29.17255" lon="104.639169"><ele>422.77856</ele><time>2026-03-07T23:34:51.000Z</time></trkpt>
        <trkpt lat="29.172578" lon="104.639214"><ele>422.40396</ele><time>2026-03-07T23:34:55.000Z</time></trkpt>
        <trkpt lat="29.172585" lon="104.63927"><ele>423.4195</ele><time>2026-03-07T23:34:59.000Z</time></trkpt>
        <trkpt lat="29.172597" lon="104.639325"><ele>422.60696</ele><time>2026-03-07T23:35:03.000Z</time></trkpt>
        <trkpt lat="29.172613" lon="104.639375"><ele>422.22913</ele><time>2026-03-07T23:35:07.000Z</time></trkpt>
        <trkpt lat="29.172592" lon="104.639431"><ele>421.931</ele><time>2026-03-07T23:35:11.000Z</time></trkpt>
        <trkpt lat="29.172574" lon="104.63948"><ele>422.33362</ele><time>2026-03-07T23:35:15.000Z</time></trkpt>
        <trkpt lat="29.17255" lon="104.639525"><ele>422.90784</ele><time>2026-03-07T23:35:19.000Z</time></trkpt>
        <trkpt lat="29.172527" lon="104.639579"><ele>422.5797</ele><time>2026-03-07T23:35:23.000Z</time></trkpt>
        <trkpt lat="29.172501" lon="104.63963"><ele>422.53577</ele><time>2026-03-07T23:35:28.000Z</time></trkpt>
        <trkpt lat="29.172476" lon="104.639684"><ele>422.29086</ele><time>2026-03-07T23:35:33.000Z</time></trkpt>
        <trkpt lat="29.172456" lon="104.639744"><ele>422.19473</ele><time>2026-03-07T23:35:38.000Z</time></trkpt>
        <trkpt lat="29.172427" lon="104.639801"><ele>422.31155</ele><time>2026-03-07T23:35:43.000Z</time></trkpt>
        <trkpt lat="29.172418" lon="104.639862"><ele>423.20328</ele><time>2026-03-07T23:35:48.000Z</time></trkpt>
        <trkpt lat="29.172419" lon="104.639923"><ele>422.61356</ele><time>2026-03-07T23:35:53.000Z</time></trkpt>
        <trkpt lat="29.17238" lon="104.639962"><ele>423.56573</ele><time>2026-03-07T23:35:57.000Z</time></trkpt>
        <trkpt lat="29.172328" lon="104.639992"><ele>423.4689</ele><time>2026-03-07T23:36:03.000Z</time></trkpt>
        <trkpt lat="29.172289" lon="104.640024"><ele>423.95392</ele><time>2026-03-07T23:36:07.000Z</time></trkpt>
        <trkpt lat="29.17225" lon="104.640061"><ele>423.73068</ele><time>2026-03-07T23:36:11.000Z</time></trkpt>
        <trkpt lat="29.172217" lon="104.640099"><ele>423.47513</ele><time>2026-03-07T23:36:15.000Z</time></trkpt>
        <trkpt lat="29.172186" lon="104.640141"><ele>423.3019</ele><time>2026-03-07T23:36:19.000Z</time></trkpt>
        <trkpt lat="29.172153" lon="104.640178"><ele>423.1977</ele><time>2026-03-07T23:36:22.000Z</time></trkpt>
        <trkpt lat="29.172106" lon="104.640205"><ele>423.46118</ele><time>2026-03-07T23:36:27.000Z</time></trkpt>
        <trkpt lat="29.172057" lon="104.640246"><ele>423.601</ele><time>2026-03-07T23:36:32.000Z</time></trkpt>
        <trkpt lat="29.172006" lon="104.64028"><ele>423.5762</ele><time>2026-03-07T23:36:35.000Z</time></trkpt>
        <trkpt lat="29.171961" lon="104.640281"><ele>423.8053</ele><time>2026-03-07T23:36:39.000Z</time></trkpt>
        <trkpt lat="29.171901" lon="104.640286"><ele>424.32056</ele><time>2026-03-07T23:36:44.000Z</time></trkpt>
        <trkpt lat="29.171862" lon="104.640232"><ele>423.34457</ele><time>2026-03-07T23:37:12.000Z</time></trkpt>
        <trkpt lat="29.171825" lon="104.640201"><ele>424.15384</ele><time>2026-03-07T23:37:30.000Z</time></trkpt>
        <trkpt lat="29.171829" lon="104.640257"><ele>424.4167</ele><time>2026-03-07T23:37:34.000Z</time></trkpt>
        <trkpt lat="29.171778" lon="104.640247"><ele>424.77747</ele><time>2026-03-07T23:37:41.000Z</time></trkpt>
        <trkpt lat="29.171726" lon="104.64022"><ele>424.55432</ele><time>2026-03-07T23:37:46.000Z</time></trkpt>
        <trkpt lat="29.171679" lon="104.640173"><ele>424.80148</ele><time>2026-03-07T23:37:53.000Z</time></trkpt>
        <trkpt lat="29.171647" lon="104.640136"><ele>426.36298</ele><time>2026-03-07T23:37:56.000Z</time></trkpt>
        <trkpt lat="29.171619" lon="104.640088"><ele>427.4852</ele><time>2026-03-07T23:38:01.000Z</time></trkpt>
        <trkpt lat="29.171579" lon="104.640052"><ele>428.1443</ele><time>2026-03-07T23:38:05.000Z</time></trkpt>
        <trkpt lat="29.171527" lon="104.640054"><ele>428.94034</ele><time>2026-03-07T23:38:09.000Z</time></trkpt>
        <trkpt lat="29.171467" lon="104.640066"><ele>428.93472</ele><time>2026-03-07T23:38:13.000Z</time></trkpt>
        <trkpt lat="29.171425" lon="104.6401"><ele>428.3495</ele><time>2026-03-07T23:38:17.000Z</time></trkpt>
        <trkpt lat="29.171394" lon="104.640139"><ele>426.3846</ele><time>2026-03-07T23:38:21.000Z</time></trkpt>
        <trkpt lat="29.171355" lon="104.64019"><ele>425.25555</ele><time>2026-03-07T23:38:25.000Z</time></trkpt>
        <trkpt lat="29.171325" lon="104.640229"><ele>424.98474</ele><time>2026-03-07T23:38:28.000Z</time></trkpt>
        <trkpt lat="29.171296" lon="104.640278"><ele>422.74954</ele><time>2026-03-07T23:38:33.000Z</time></trkpt>
        <trkpt lat="29.171264" lon="104.640316"><ele>422.1297</ele><time>2026-03-07T23:38:36.000Z</time></trkpt>
        <trkpt lat="29.171255" lon="104.640373"><ele>422.6134</ele><time>2026-03-07T23:38:41.000Z</time></trkpt>
        <trkpt lat="29.171217" lon="104.640411"><ele>423.57205</ele><time>2026-03-07T23:38:44.000Z</time></trkpt>
        <trkpt lat="29.171197" lon="104.640466"><ele>424.5772</ele><time>2026-03-07T23:38:49.000Z</time></trkpt>
        <trkpt lat="29.171228" lon="104.640512"><ele>423.78543</ele><time>2026-03-07T23:38:55.000Z</time></trkpt>
        <trkpt lat="29.171276" lon="104.640539"><ele>422.99454</ele><time>2026-03-07T23:38:59.000Z</time></trkpt>
        <trkpt lat="29.171318" lon="104.640564"><ele>422.36368</ele><time>2026-03-07T23:39:03.000Z</time></trkpt>
        <trkpt lat="29.171352" lon="104.640603"><ele>421.42398</ele><time>2026-03-07T23:39:07.000Z</time></trkpt>
        <trkpt lat="29.171389" lon="104.640639"><ele>421.0776</ele><time>2026-03-07T23:39:11.000Z</time></trkpt>
        <trkpt lat="29.17143" lon="104.640678"><ele>420.69836</ele><time>2026-03-07T23:39:16.000Z</time></trkpt>
        <trkpt lat="29.171466" lon="104.640715"><ele>420.308</ele><time>2026-03-07T23:39:20.000Z</time></trkpt>
        <trkpt lat="29.17151" lon="104.64075"><ele>420.1479</ele><time>2026-03-07T23:39:39.000Z</time></trkpt>
        <trkpt lat="29.171549" lon="104.640793"><ele>420.3152</ele><time>2026-03-07T23:39:43.000Z</time></trkpt>
        <trkpt lat="29.171584" lon="104.640831"><ele>420.28036</ele><time>2026-03-07T23:39:47.000Z</time></trkpt>
        <trkpt lat="29.17162" lon="104.640863"><ele>420.13226</ele><time>2026-03-07T23:39:51.000Z</time></trkpt>
        <trkpt lat="29.171669" lon="104.640885"><ele>420.11975</ele><time>2026-03-07T23:39:56.000Z</time></trkpt>
        <trkpt lat="29.171723" lon="104.640894"><ele>419.41193</ele><time>2026-03-07T23:40:00.000Z</time></trkpt>
        <trkpt lat="29.171773" lon="104.640913"><ele>419.60495</ele><time>2026-03-07T23:40:05.000Z</time></trkpt>
        <trkpt lat="29.17182" lon="104.640914"><ele>419.71307</ele><time>2026-03-07T23:40:09.000Z</time></trkpt>
        <trkpt lat="29.17188" lon="104.640919"><ele>420.2516</ele><time>2026-03-07T23:40:15.000Z</time></trkpt>
        <trkpt lat="29.17193" lon="104.640937"><ele>420.7362</ele><time>2026-03-07T23:40:20.000Z</time></trkpt>
        <trkpt lat="29.171974" lon="104.640952"><ele>420.78677</ele><time>2026-03-07T23:40:32.000Z</time></trkpt>
        <trkpt lat="29.17202" lon="104.640952"><ele>421.30545</ele><time>2026-03-07T23:40:42.000Z</time></trkpt>
        <trkpt lat="29.172066" lon="104.640951"><ele>421.18625</ele><time>2026-03-07T23:40:46.000Z</time></trkpt>
        <trkpt lat="29.172116" lon="104.640957"><ele>421.4123</ele><time>2026-03-07T23:40:51.000Z</time></trkpt>
        <trkpt lat="29.172164" lon="104.64094"><ele>421.564</ele><time>2026-03-07T23:40:57.000Z</time></trkpt>
      </trkseg>
  </trk>
</gpx>